[[{"header":{"parameterUnit":"m.s-1","parameterCategory":1,"la1":30.6,"la2":29.2853,"lo1":-89.7004,"lo2":-87.6739,"dy":0.0162,"dx":0.0183,"nx":112,"ny":82,"refTime":"2023-05-09T12:00:00:Z","depth":0,"parameterNumber":2,"parameterNumberName":"U-component_of_WINDS"},"data":[0.0,0.0,0.0,0.0,0.0,0.0,0.0,0.0,0.0,0.0,0.0,0.0,0.0,0.0,0.0,0.0,0.0,0.0,0.0,0.0,0.0,0.0,0.0,0.0,0.0,0.0,0.0,0.0,0.0,0.0,0.0,0.0,0.0,0.0,0.0,0.0,0.0,0.0,0.0,0.0,0.0,0.0,0.0,0.0,0.0,0.0,0.0,0.0,0.0,0.0,0.0,0.0,0.0,0.0,0.0,0.0,0.0,0.0,0.0,0.0,0.0,0.0,0.0,0.0,0.0,0.0,0.0,0.0,0.0,0.0,0.0,0.0,0.0,0.0,0.0,0.0,0.0,0.0,0.0,0.0,0.0,0.0,0.0,0.0,0.0,0.0,0.0,0.0,0.0,0.0,0.0,-2.0952,-2.4218,-2.619,-2.6117,-2.529,-2.2971,-1.8796,0.0,0.0,0.0,0.0,0.0,0.0,0.0,0.0,0.0,0.0,0.0,0.0,0.0,0.0,0.0,0.0,0.0,0.0,0.0,0.0,0.0,0.0,0.0,0.0,0.0,0.0,0.0,0.0,0.0,0.0,0.0,0.0,0.0,0.0,0.0,0.0,0.0,0.0,0.0,0.0,0.0,0.0,0.0,0.0,0.0,0.0,0.0,0.0,0.0,0.0,0.0,0.0,0.0,0.0,0.0,0.0,0.0,0.0,0.0,0.0,0.0,0.0,0.0,0.0,0.0,0.0,0.0,0.0,0.0,0.0,0.0,0.0,0.0,0.0,0.0,0.0,0.0,0.0,0.0,0.0,0.0,0.0,0.0,0.0,0.0,0.0,0.0,0.0,0.0,0.0,0.0,0.0,0.0,0.0,0.0,0.0,0.0,0.0,0.0,0.0,0.0,0.0,0.0,0.0,-2.0081,-2.3544,-2.5625,-2.6585,-2.6142,-2.3768,-2.1518,-1.9684,0.0,0.0,0.0,0.0,0.0,0.0,0.0,0.0,0.0,0.0,0.0,0.0,0.0,0.0,0.0,0.0,0.0,0.0,0.0,0.0,0.0,0.0,0.0,0.0,0.0,0.0,0.0,0.0,0.0,0.0,0.0,0.0,0.0,0.0,0.0,0.0,0.0,0.0,0.0,0.0,0.0,0.0,0.0,0.0,0.0,0.0,0.0,0.0,0.0,0.0,0.0,0.0,0.0,0.0,0.0,0.0,0.0,0.0,0.0,0.0,0.0,0.0,0.0,0.0,0.0,0.0,0.0,0.0,0.0,0.0,0.0,0.0,0.0,0.0,0.0,0.0,0.0,0.0,0.0,0.0,0.0,0.0,0.0,0.0,0.0,0.0,0.0,0.0,0.0,0.0,0.0,0.0,0.0,0.0,0.0,0.0,0.0,0.0,0.0,0.0,0.0,0.0,0.0,-1.9071,-2.1163,-2.4578,-2.5612,-2.5863,-2.5483,-2.3524,-2.1273,-1.8907,-1.7868,0.0,0.0,0.0,0.0,0.0,0.0,0.0,0.0,0.0,0.0,0.0,0.0,0.0,0.0,0.0,0.0,0.0,0.0,0.0,0.0,0.0,0.0,0.0,0.0,0.0,0.0,0.0,0.0,0.0,0.0,0.0,0.0,0.0,0.0,0.0,0.0,0.0,0.0,0.0,0.0,0.0,0.0,0.0,0.0,0.0,0.0,0.0,0.0,0.0,0.0,0.0,0.0,0.0,0.0,0.0,0.0,0.0,0.0,0.0,0.0,0.0,0.0,0.0,0.0,0.0,0.0,0.0,0.0,0.0,0.0,0.0,0.0,0.0,0.0,0.0,0.0,0.0,0.0,0.0,0.0,0.0,0.0,0.0,0.0,0.0,0.0,0.0,0.0,0.0,0.0,0.0,0.0,0.0,0.0,0.0,0.0,0.0,0.0,0.0,0.0,0.0,0.0,-2.047,-2.1964,-2.4987,-2.542,-2.5338,-2.5015,-2.3248,-2.1026,-1.8358,-1.6767,0.0,0.0,0.0,0.0,0.0,0.0,0.0,0.0,0.0,0.0,0.0,0.0,0.0,0.0,0.0,0.0,0.0,0.0,0.0,0.0,0.0,0.0,0.0,0.0,0.0,0.0,0.0,0.0,0.0,0.0,0.0,0.0,0.0,0.0,0.0,0.0,0.0,0.0,0.0,0.0,0.0,0.0,0.0,0.0,0.0,0.0,0.0,0.0,0.0,0.0,0.0,0.0,0.0,0.0,0.0,0.0,0.0,0.0,0.0,0.0,0.0,0.0,0.0,0.0,0.0,0.0,0.0,0.0,0.0,0.0,0.0,0.0,0.0,0.0,0.0,0.0,0.0,0.0,0.0,0.0,0.0,0.0,0.0,0.0,0.0,0.0,0.0,0.0,0.0,0.0,0.0,0.0,0.0,0.0,0.0,0.0,0.0,0.0,0.0,0.0,0.0,0.0,-2.0995,-2.2366,-2.5035,-2.5757,-2.5817,-2.5325,-2.2363,-2.0119,-1.9074,-1.6042,0.0,0.0,0.0,0.0,0.0,0.0,0.0,0.0,0.0,0.0,0.0,0.0,0.0,0.0,0.0,0.0,0.0,0.0,0.0,0.0,0.0,0.0,0.0,0.0,0.0,0.0,0.0,0.0,0.0,0.0,0.0,0.0,0.0,0.0,0.0,0.0,0.0,0.0,0.0,0.0,0.0,0.0,0.0,0.0,0.0,0.0,0.0,0.0,0.0,0.0,0.0,0.0,0.0,0.0,0.0,0.0,0.0,0.0,0.0,0.0,0.0,0.0,0.0,0.0,0.0,0.0,0.0,0.0,0.0,0.0,0.0,0.0,0.0,0.0,0.0,0.0,0.0,0.0,0.0,0.0,0.0,0.0,0.0,0.0,0.0,0.0,0.0,0.0,0.0,0.0,0.0,0.0,0.0,0.0,0.0,0.0,0.0,0.0,0.0,0.0,0.0,0.0,-2.0494,-2.1524,0.0,-2.4566,-2.419,-2.3676,-2.1395,-1.9521,-1.8367,0.0,0.0,0.0,0.0,0.0,0.0,0.0,0.0,0.0,0.0,0.0,0.0,0.0,0.0,0.0,0.0,0.0,0.0,0.0,0.0,0.0,0.0,0.0,0.0,0.0,0.0,0.0,0.0,0.0,0.0,0.0,0.0,0.0,0.0,0.0,0.0,0.0,0.0,0.0,0.0,0.0,0.0,0.0,0.0,0.0,0.0,0.0,0.0,0.0,0.0,0.0,0.0,0.0,0.0,0.0,0.0,0.0,0.0,0.0,0.0,0.0,0.0,0.0,0.0,0.0,0.0,0.0,0.0,0.0,0.0,0.0,0.0,0.0,0.0,0.0,0.0,0.0,0.0,0.0,0.0,0.0,0.0,0.0,0.0,0.0,0.0,0.0,0.0,0.0,0.0,0.0,0.0,0.0,0.0,0.0,0.0,0.0,0.0,0.0,0.0,0.0,0.0,-2.0181,-2.0133,-2.0955,0.0,-2.3665,-2.3075,-2.2857,-2.0617,-1.892,-1.8223,0.0,0.0,0.0,0.0,0.0,0.0,0.0,0.0,0.0,0.0,0.0,0.0,0.0,0.0,0.0,0.0,0.0,0.0,0.0,0.0,0.0,0.0,0.0,0.0,0.0,0.0,0.0,0.0,0.0,0.0,0.0,0.0,0.0,0.0,0.0,0.0,0.0,0.0,0.0,0.0,0.0,0.0,0.0,0.0,0.0,0.0,0.0,0.0,0.0,0.0,0.0,0.0,0.0,0.0,0.0,0.0,0.0,0.0,0.0,0.0,0.0,0.0,0.0,0.0,0.0,0.0,0.0,0.0,0.0,0.0,0.0,0.0,0.0,0.0,0.0,0.0,0.0,0.0,0.0,0.0,0.0,0.0,0.0,0.0,0.0,0.0,0.0,0.0,0.0,0.0,0.0,0.0,0.0,0.0,0.0,0.0,0.0,0.0,0.0,0.0,0.0,0.0,-2.0181,-2.0105,-2.089,-2.3789,-2.3248,-2.2857,-2.3328,-1.9998,-1.819,0.0,0.0,0.0,0.0,0.0,0.0,0.0,0.0,0.0,0.0,0.0,0.0,0.0,0.0,0.0,0.0,0.0,0.0,0.0,0.0,0.0,0.0,0.0,0.0,0.0,0.0,0.0,0.0,0.0,0.0,0.0,0.0,0.0,0.0,0.0,0.0,0.0,0.0,0.0,0.0,0.0,0.0,0.0,0.0,0.0,0.0,0.0,0.0,0.0,0.0,0.0,0.0,0.0,0.0,0.0,0.0,0.0,0.0,0.0,0.0,0.0,0.0,0.0,0.0,0.0,0.0,0.0,0.0,0.0,0.0,0.0,0.0,0.0,0.0,0.0,0.0,0.0,0.0,0.0,0.0,0.0,0.0,0.0,0.0,0.0,0.0,0.0,0.0,0.0,0.0,0.0,0.0,0.0,0.0,0.0,0.0,0.0,0.0,0.0,0.0,0.0,0.0,0.0,-2.0169,-1.9604,-1.9809,-2.2284,-2.1359,-2.0559,-2.0597,-1.8416,-1.7236,-1.7641,0.0,0.0,0.0,0.0,0.0,0.0,0.0,0.0,0.0,0.0,0.0,0.0,0.0,0.0,0.0,0.0,0.0,0.0,0.0,0.0,0.0,0.0,0.0,0.0,0.0,0.0,0.0,0.0,0.0,0.0,0.0,0.0,0.0,0.0,0.0,0.0,0.0,0.0,0.0,0.0,0.0,0.0,0.0,0.0,0.0,0.0,0.0,0.0,0.0,0.0,0.0,0.0,0.0,0.0,0.0,0.0,0.0,0.0,0.0,0.0,0.0,0.0,0.0,0.0,0.0,0.0,0.0,0.0,0.0,0.0,0.0,0.0,0.0,0.0,0.0,0.0,0.0,0.0,0.0,0.0,0.0,0.0,0.0,0.0,0.0,0.0,0.0,0.0,0.0,0.0,0.0,0.0,0.0,0.0,0.0,0.0,0.0,0.0,0.0,0.0,0.0,0.0,-2.0071,-1.9299,-1.9378,-2.1623,-2.0411,-1.951,-1.9755,-1.7731,-1.6715,-1.7345,0.0,0.0,0.0,0.0,0.0,0.0,0.0,0.0,0.0,0.0,0.0,0.0,0.0,0.0,0.0,0.0,0.0,0.0,0.0,0.0,0.0,0.0,0.0,0.0,0.0,0.0,0.0,0.0,0.0,0.0,0.0,0.0,0.0,0.0,0.0,0.0,0.0,0.0,0.0,0.0,0.0,0.0,0.0,0.0,0.0,0.0,0.0,0.0,0.0,0.0,0.0,0.0,0.0,0.0,0.0,0.0,0.0,0.0,0.0,0.0,0.0,0.0,0.0,0.0,0.0,0.0,0.0,0.0,0.0,0.0,0.0,0.0,0.0,0.0,0.0,0.0,0.0,0.0,0.0,0.0,0.0,0.0,0.0,0.0,0.0,0.0,0.0,0.0,0.0,0.0,0.0,0.0,0.0,0.0,0.0,0.0,0.0,0.0,0.0,0.0,0.0,0.0,-1.9795,-1.914,-1.9285,-2.1437,-2.0091,-1.9308,-2.0026,-1.7676,-1.6576,-1.7575,0.0,0.0,0.0,0.0,0.0,0.0,0.0,0.0,0.0,0.0,0.0,0.0,0.0,0.0,0.0,0.0,0.0,0.0,0.0,0.0,0.0,0.0,0.0,0.0,0.0,0.0,0.0,0.0,0.0,0.0,0.0,0.0,0.0,0.0,0.0,0.0,0.0,0.0,0.0,0.0,0.0,0.0,0.0,0.0,0.0,0.0,0.0,0.0,0.0,0.0,0.0,0.0,0.0,0.0,0.0,0.0,0.0,0.0,0.0,0.0,-2.3735,0.0,0.0,0.0,0.0,0.0,0.0,0.0,0.0,0.0,0.0,0.0,0.0,0.0,0.0,0.0,0.0,0.0,0.0,0.0,0.0,0.0,0.0,0.0,0.0,0.0,0.0,0.0,0.0,0.0,0.0,0.0,0.0,0.0,0.0,0.0,0.0,0.0,0.0,0.0,0.0,0.0,-1.9206,-1.8674,-1.8764,-2.0447,-1.9797,-1.9021,-1.8528,-1.7292,-1.6547,-1.6455,-1.5792,0.0,0.0,0.0,0.0,0.0,0.0,0.0,0.0,0.0,0.0,0.0,0.0,0.0,0.0,0.0,0.0,0.0,0.0,0.0,0.0,0.0,0.0,0.0,0.0,0.0,0.0,0.0,0.0,0.0,0.0,0.0,0.0,0.0,0.0,0.0,0.0,0.0,0.0,0.0,0.0,0.0,0.0,0.0,0.0,0.0,0.0,0.0,0.0,0.0,0.0,0.0,0.0,0.0,0.0,0.0,0.0,0.0,0.0,0.0,0.0,-2.4779,0.0,0.0,0.0,0.0,0.0,0.0,0.0,0.0,0.0,0.0,0.0,0.0,0.0,0.0,0.0,0.0,0.0,0.0,0.0,0.0,0.0,0.0,0.0,0.0,0.0,0.0,0.0,0.0,0.0,0.0,0.0,0.0,0.0,0.0,0.0,0.0,0.0,0.0,0.0,0.0,-1.8992,-1.8662,-1.8773,-1.9985,-1.9614,-1.9102,-1.8652,-1.7656,-1.6953,-1.675,-1.6124,0.0,0.0,0.0,0.0,0.0,0.0,0.0,0.0,0.0,0.0,0.0,0.0,0.0,0.0,0.0,0.0,0.0,0.0,0.0,0.0,0.0,0.0,0.0,0.0,0.0,0.0,0.0,0.0,0.0,0.0,0.0,0.0,0.0,0.0,0.0,0.0,0.0,0.0,0.0,0.0,0.0,0.0,0.0,0.0,0.0,0.0,0.0,0.0,0.0,0.0,0.0,0.0,0.0,-3.0105,-3.0834,-3.1185,-3.1286,-3.1863,-3.2616,-2.9149,-2.7089,-2.6034,0.0,0.0,0.0,0.0,0.0,0.0,0.0,0.0,0.0,0.0,0.0,0.0,0.0,0.0,0.0,0.0,0.0,0.0,0.0,0.0,0.0,0.0,0.0,0.0,0.0,-1.9785,-1.9551,0.0,0.0,0.0,0.0,0.0,0.0,0.0,0.0,0.0,0.0,0.0,0.0,-1.885,-1.8764,-1.8948,-1.9922,-1.9727,-1.949,-1.9297,-1.8262,-1.7539,-1.7402,-1.6574,-1.6124,0.0,0.0,0.0,0.0,0.0,0.0,0.0,0.0,0.0,0.0,0.0,0.0,0.0,0.0,0.0,0.0,0.0,0.0,0.0,0.0,0.0,0.0,0.0,0.0,0.0,0.0,0.0,0.0,0.0,0.0,0.0,0.0,-2.5234,-2.4725,0.0,0.0,0.0,0.0,0.0,0.0,0.0,0.0,0.0,0.0,0.0,0.0,0.0,-2.9176,-3.0608,-3.1779,-3.2382,-3.2441,-3.3545,-3.3872,-3.3495,-3.3972,-3.448,-3.5006,-3.4003,0.0,-2.9514,-2.8027,0.0,0.0,0.0,0.0,0.0,0.0,0.0,0.0,0.0,0.0,0.0,0.0,0.0,0.0,0.0,0.0,0.0,0.0,0.0,0.0,0.0,0.0,-2.0429,-2.0429,-2.0468,-2.0449,0.0,-1.9069,-1.7994,-1.7416,0.0,0.0,0.0,0.0,0.0,0.0,0.0,0.0,-1.8577,-1.8625,-1.9065,-2.039,-2.0468,-2.0136,-1.9355,-1.8789,-1.813,-1.7422,-1.6574,-1.6261,-1.659,-1.581,0.0,0.0,0.0,0.0,0.0,0.0,0.0,0.0,0.0,0.0,0.0,0.0,0.0,0.0,0.0,0.0,0.0,0.0,0.0,0.0,0.0,0.0,0.0,0.0,0.0,0.0,0.0,0.0,0.0,-2.6113,-2.6691,-2.5837,-2.649,-2.6339,0.0,0.0,0.0,0.0,0.0,0.0,0.0,0.0,0.0,-3.1311,-3.1888,-3.2649,-3.3677,-3.4826,-3.5529,-3.5855,-3.6985,-3.7563,-3.7638,-3.7864,-3.8216,-3.8693,-3.7563,-3.6135,-3.439,-3.1489,-2.9075,-2.7045,0.0,0.0,0.0,0.0,-2.2801,-2.2879,-2.3371,-2.32,0.0,0.0,0.0,0.0,0.0,0.0,0.0,0.0,0.0,0.0,0.0,0.0,0.0,-2.2014,-2.2012,-2.1953,-2.1719,-2.0684,-1.9592,0.0,-1.9228,-1.9117,-1.7678,0.0,0.0,0.0,0.0,0.0,-1.8682,-1.8903,-1.9316,-2.0117,-2.0195,-2.0039,-1.9668,-1.9238,-1.875,-1.8125,-1.7285,-1.6926,-1.709,-1.6453,-1.6133,0.0,0.0,0.0,0.0,0.0,0.0,0.0,0.0,0.0,0.0,0.0,0.0,0.0,0.0,0.0,0.0,0.0,0.0,0.0,0.0,0.0,0.0,0.0,0.0,0.0,0.0,0.0,0.0,-2.7595,-2.8348,-2.7218,-2.8323,-2.8247,0.0,0.0,0.0,0.0,0.0,0.0,-3.0984,-3.2089,-3.337,-3.4901,-3.5629,-3.6285,-3.6987,-3.799,-3.8743,-3.9295,-3.9848,-4.04,-4.0927,-4.0802,-4.0899,-4.1225,-4.0049,-3.9094,-3.8165,-3.455,-3.1603,-2.9342,-2.8184,-2.6742,-2.5267,-2.55,-2.5295,-2.5139,-2.6239,-2.6033,-2.5325,-2.5205,0.0,-2.3659,-2.2372,0.0,0.0,0.0,0.0,-2.159,-2.2127,-2.2554,-2.2949,-2.3467,-2.3443,-2.3223,-2.291,-2.2246,-2.1366,0.0,-2.0469,-2.0289,-1.8758,0.0,0.0,0.0,0.0,-1.8532,-1.9081,-1.933,-1.9609,-2.0039,-2.0078,-2.0039,-1.9922,-1.9531,-1.9102,-1.8637,-1.7852,-1.7455,-1.7539,-1.698,-1.6621,-1.6437,0.0,0.0,0.0,0.0,0.0,0.0,0.0,0.0,0.0,0.0,0.0,0.0,0.0,0.0,0.0,0.0,0.0,0.0,0.0,0.0,0.0,0.0,0.0,0.0,0.0,0.0,0.0,0.0,0.0,-2.8888,-3.0708,0.0,0.0,0.0,0.0,-3.0357,-3.2365,-3.3822,-3.4449,-3.5554,-3.6659,-3.7764,-3.8868,-3.9948,-4.0974,-4.1605,-4.2238,-4.271,-4.1731,-4.1555,-4.2112,-4.153,-4.125,-4.1275,-4.12,-4.0601,-3.9396,-3.6511,-3.4354,-3.28,-3.2139,-3.0898,-2.9413,-2.8958,-2.8407,-2.7819,-2.7413,-2.6924,-2.6653,-2.7461,-2.6826,-2.5544,-2.4396,-2.3731,0.0,0.0,-2.3008,-2.3149,-2.3865,-2.3915,-2.3918,-2.4578,-2.4244,-2.375,-2.373,-2.3359,-2.2496,0.0,-2.0233,-1.992,-1.9824,0.0,-1.9216,-1.9196,-1.9235,-1.9375,-1.9803,-1.9863,-2.0059,-2.0527,-2.0566,-2.0371,-1.9941,-1.9531,-1.9102,-1.8637,-1.7852,-1.7559,-1.7969,-1.7135,-1.6882,-1.7337,-1.6914,0.0,0.0,0.0,0.0,0.0,0.0,0.0,0.0,0.0,0.0,0.0,0.0,0.0,0.0,0.0,0.0,0.0,0.0,0.0,0.0,0.0,0.0,0.0,0.0,0.0,0.0,0.0,0.0,-3.2674,-3.46,0.0,-3.2591,-3.2918,-3.3351,-3.3727,-3.5177,-3.6734,-3.8366,-3.917,-4.0249,-4.1681,-4.1781,-4.2158,-4.2911,-4.276,-4.2961,-4.3514,-4.3112,-4.3037,-4.3212,-4.3011,-4.2735,-4.2384,-4.2032,-4.143,-4.0651,-3.9244,-3.6996,-3.432,-3.371,-3.256,-3.1293,-3.1391,-3.0993,-3.0426,-3.0549,-2.9868,-2.8838,-2.8137,-2.7198,-2.6249,-2.5484,-2.5476,-2.5548,-2.4937,-2.4887,-2.5148,-2.5217,-2.5046,-2.496,-2.5299,-2.4988,-2.4531,-2.4258,-2.3867,-2.3301,-2.2402,-2.166,-2.1094,-2.0781,-2.0391,-2.0155,-2.0155,-2.0352,-2.0488,-2.0352,-2.0332,-2.0391,-2.0586,-2.0312,-2.0195,-2.0332,-1.9687,-1.9219,-1.9062,-1.8262,-1.7852,-1.8008,-1.7681,-1.75,-1.7383,-1.7227,-1.7012,0.0,0.0,0.0,0.0,0.0,0.0,0.0,0.0,0.0,0.0,0.0,0.0,0.0,0.0,0.0,0.0,0.0,0.0,0.0,0.0,0.0,0.0,0.0,0.0,0.0,0.0,-3.6132,-3.6132,-3.8065,-3.8542,-3.6332,-3.6634,-3.7186,-3.7739,-3.8969,-4.0425,-4.2108,-4.271,-4.3438,-4.4342,-4.4192,-4.4192,-4.4367,-4.4016,-4.4091,-4.4644,-4.4267,-4.4091,-4.4066,-4.389,-4.3489,-4.2961,-4.264,-4.2108,-4.158,-4.1028,-3.9235,-3.6824,-3.6088,-3.4872,-3.3595,-3.4064,-3.3457,-3.2381,-3.2134,-3.1475,-3.0409,-2.888,-2.7973,-2.7423,-2.6858,-2.6919,-2.7089,-2.65,-2.6493,-2.6572,-2.6496,-2.6304,-2.6102,-2.6045,-2.5654,-2.5176,-2.4727,-2.4297,-2.3867,-2.3437,-2.2676,-2.2012,-2.1678,-2.1309,-2.1055,-2.1055,-2.1269,-2.1348,-2.1094,-2.0879,-2.0781,-2.0781,-2.0391,-2.0195,-2.0332,-1.9824,-1.9375,-1.9082,-1.8535,-1.813,-1.8008,-1.8008,-1.7871,-1.7598,-1.7598,-1.7461,-1.7135,0.0,0.0,0.0,0.0,0.0,0.0,0.0,0.0,0.0,0.0,0.0,0.0,0.0,0.0,0.0,0.0,0.0,0.0,0.0,0.0,0.0,0.0,0.0,-3.3897,-3.6885,-3.9045,-3.912,-4.1056,-4.1509,-3.9372,-4.0551,-4.1706,-4.2288,-4.379,-4.497,-4.5547,-4.6075,-4.6125,-4.5598,-4.6075,-4.6075,-4.5522,-4.5497,-4.5748,-4.6276,-4.5171,-4.4644,-4.4593,-4.4066,-4.3514,-4.2986,-4.2986,-4.266,-4.2137,-4.1555,-4.0949,-4.0375,-3.932,-3.7862,-3.6534,-3.6936,-3.5686,-3.3595,-3.1986,-3.1402,-3.1174,-2.9808,-2.9352,-2.9219,-2.8471,-2.8097,-2.7864,-2.7915,-2.7692,-2.752,-2.7703,-2.7602,-2.726,-2.6844,-2.6183,-2.5605,-2.5223,-2.4746,-2.4316,-2.3867,-2.3125,-2.2539,-2.2539,-2.2187,-2.1934,-2.1934,-2.1934,0.0,-2.1914,-2.1543,-2.1229,-2.121,-2.0859,-2.0468,-1.998,-1.9941,-1.9514,-1.8676,-1.8598,-1.8403,-1.8027,-1.8008,-1.8008,-1.8008,-1.8008,-1.8008,-1.8027,0.0,0.0,0.0,0.0,0.0,0.0,0.0,0.0,0.0,0.0,0.0,0.0,0.0,0.0,0.0,0.0,0.0,0.0,0.0,0.0,0.0,0.0,-3.7161,-3.7462,-3.9724,-4.1911,-4.3463,-4.492,-4.5372,-4.4367,-4.4669,-4.4995,-4.5146,-4.5949,-4.6853,-4.7807,-4.7606,-4.7581,-4.7857,-4.723,-4.6652,-4.61,-4.5673,-4.5573,-4.5723,-4.5397,-4.502,-4.4618,-4.4468,-4.389,-4.2986,-4.2986,-4.2434,-4.1555,-4.1351,-4.0724,-3.9769,-3.8666,-3.7899,-3.7412,-3.6684,-3.5568,-3.4106,-3.2769,-3.2147,-3.1733,-3.1029,-3.0574,-3.0222,-2.9642,-2.929,-2.9021,-2.8716,-2.841,-2.8073,-2.7631,-2.7362,-2.7102,-2.6834,-2.6379,-2.5895,-2.5461,-2.5122,-2.4668,-2.3926,-2.3594,-2.334,-2.2984,-2.2828,-2.275,-2.275,-2.275,0.0,-2.2383,-2.2227,-2.2051,-2.1738,-2.1602,-2.1348,-2.0859,-2.0235,-1.9687,-1.9141,-1.8516,-1.8125,-1.8008,-1.8008,-1.8008,-1.8008,-1.8008,-1.813,0.0,0.0,0.0,0.0,0.0,0.0,0.0,0.0,0.0,0.0,0.0,0.0,0.0,0.0,0.0,0.0,0.0,0.0,0.0,0.0,0.0,0.0,-3.8215,-4.0855,-4.2434,-4.3765,-4.5146,-4.6677,-4.7832,-4.8284,-4.7732,-4.7908,-4.8033,-4.8033,-4.856,-4.9038,-4.9439,-4.9138,-4.8912,-4.8786,-4.8159,-4.7431,-4.6652,-4.6326,-4.6075,-4.5824,-4.5824,-4.5522,-4.497,-4.4744,-4.4141,0.0,-4.3087,-4.2484,-4.1656,-4.1376,-4.0774,0.0,0.0,0.0,0.0,0.0,-3.648,-3.5749,-3.4339,-3.3381,-3.2619,-3.2017,-3.1314,-3.0594,-3.0139,-2.9816,-2.9565,-2.9424,-2.9186,-2.8845,-2.8428,-2.8115,-2.7783,-2.7202,-2.6744,-2.6291,-2.5729,-2.5447,-2.5137,-2.4453,0.0,0.0,-2.3496,-2.3218,-2.3101,-2.3101,-2.3101,-2.3003,-2.2769,-2.2617,-2.2422,-2.2168,-2.1836,-2.1426,-2.0996,-2.0488,0.0,0.0,0.0,-1.873,-1.8555,-1.8535,0.0,0.0,0.0,-1.8672,0.0,0.0,0.0,0.0,-1.8437,-1.8418,0.0,0.0,0.0,0.0,0.0,0.0,0.0,0.0,0.0,0.0,0.0,0.0,0.0,0.0,0.0,0.0,-4.1333,-4.4066,-4.7682,-4.8309,-4.856,-4.9012,-4.9916,-5.0318,-4.9841,-5.0218,-5.0519,-5.0519,-5.0996,-5.1046,-5.0544,0.0,0.0,0.0,0.0,-4.836,-4.733,-4.7193,-4.6954,-4.6401,-4.6351,-4.6024,-4.5472,-4.4895,-4.4317,-4.3765,-4.3212,-4.269,-4.2087,-4.153,-4.0924,-4.0322,-3.9613,-3.9258,-3.8973,-3.7897,-3.7447,0.0,0.0,0.0,0.0,-3.2594,-3.1625,-3.0677,-3.016,-2.9816,-2.9659,-2.9889,-2.9764,-2.9554,-2.9554,-2.9303,-2.8798,-2.7759,-2.7247,-2.6789,-2.6026,-2.5762,-2.5605,-2.5156,-2.4746,-2.4336,-2.3867,-2.3437,-2.3101,-2.3101,-2.3101,-2.3101,-2.3101,-2.2769,-2.2578,-2.2578,0.0,0.0,-2.0801,-2.0664,-2.0253,-1.9414,-1.9668,-1.9668,-1.9297,-1.9297,-1.9297,-1.9297,-1.9297,-1.9316,-1.9355,-1.9355,-1.9375,-1.9434,-1.9336,-1.9297,0.0,0.0,0.0,0.0,0.0,0.0,0.0,0.0,0.0,0.0,0.0,0.0,0.0,0.0,0.0,-4.1681,-4.4769,-4.7531,-4.964,-5.072,-5.1172,-5.0845,-5.0996,-5.1071,-5.0971,-5.1046,-5.1122,-5.1122,-5.1222,-5.1222,-5.1122,-5.067,0.0,-5.0117,-4.9665,-4.9113,-4.846,-4.7983,-4.7506,-4.6979,0.0,0.0,-4.5472,-4.4895,-4.4317,-4.3765,-4.3212,-4.2409,-4.1505,-4.1326,-4.0752,-3.9667,-3.7655,-3.6317,-3.5466,-3.5245,-3.4525,-3.3797,-3.4471,-3.3892,-3.2776,-3.191,-3.1454,-3.1091,-3.0243,-2.9816,0.0,-2.9659,-2.9448,-2.9185,-2.9185,-2.908,-2.8827,-2.8387,-2.7703,-2.7043,-2.6666,-2.6124,-2.5605,-2.5156,-2.5047,-2.4734,-2.3926,-2.3437,-2.3101,-2.3101,-2.3101,-2.3101,-2.3101,-2.3023,-2.2984,-2.2984,-2.2516,-2.209,-2.166,-2.1016,-2.039,-1.9824,-1.9551,-1.9375,-1.9297,-1.9297,-1.9297,-1.9297,-1.9297,-1.9453,-1.9785,-1.9785,-1.998,-2.0351,-1.9646,-1.9297,0.0,0.0,0.0,0.0,0.0,0.0,0.0,0.0,0.0,0.0,0.0,-3.4801,0.0,0.0,-4.2233,-4.4995,-4.7531,-4.9665,-5.1071,-5.1975,-5.2302,-5.1749,-5.195,-5.2101,-5.2101,-5.2101,-5.2101,-5.2101,-5.2101,-5.1975,-5.1699,-5.1147,-5.072,-5.0419,-4.9891,-4.9339,-4.8786,-4.8209,-4.7782,-4.7506,-4.6702,-4.6301,-4.6276,-4.5447,-4.4744,-4.4192,-4.3639,-4.276,-4.1706,-4.1153,-4.045,-3.9517,-3.7713,-3.7073,-3.7073,-3.7073,-3.6317,-3.5388,-3.5991,-3.508,-3.3444,-3.2563,-3.1831,-3.1195,-3.0284,-2.9889,-2.9784,-2.9784,-2.9659,-2.9554,-2.9554,-2.9286,-2.8926,-2.858,-2.7782,-2.6992,-2.6675,-2.6133,-2.5615,-2.5449,-2.5215,-2.4988,-2.4558,-2.3887,-2.3354,-2.314,-2.3101,-2.3101,-2.3101,-2.3101,-2.3101,-2.3101,-2.2711,-2.2344,-2.1914,-2.1114,-2.0507,-2.0254,-2.0077,-1.9959,-1.9959,-1.9959,-1.9959,-1.9959,-1.9959,-2.0077,-2.0234,-2.0234,-2.0352,-2.0586,-2.0155,-1.9959,0.0,0.0,0.0,0.0,0.0,0.0,0.0,0.0,-3.3319,-3.5002,-3.6734,-3.8693,-4.1053,-4.3288,-4.5573,-4.8008,-4.9715,-5.1096,-5.2126,-5.2653,-5.2754,-5.2327,-5.2653,-5.2929,-5.2929,-5.2929,-5.2929,-5.2929,-5.2929,-5.2628,-5.1975,-5.1523,-5.0971,-5.0268,-4.9816,-4.9389,-4.8937,-4.8259,-4.7908,-4.7883,-4.6828,-4.6552,-4.6928,-4.5824,-4.507,-4.4593,-4.3815,-4.2911,-4.1932,-4.0927,-4.0199,-3.9594,-3.8659,-3.8816,-3.9697,-3.9413,-3.8425,-3.7287,-3.7737,-3.6426,-3.4393,-3.3496,-3.2588,-3.1646,-3.0514,-3.0139,-3.0118,-3.0015,-2.9994,-2.9994,-2.9994,-2.9627,-2.9157,-2.8689,-2.7907,-2.7153,-2.6769,-2.6289,-2.5908,-2.583,-2.5566,-2.5321,-2.5145,-2.4538,-2.3867,-2.3296,-2.314,-2.3101,-2.3101,-2.3101,-2.3101,-2.3101,-2.2711,-2.2305,-2.1797,-2.1113,-2.0703,-2.0605,-2.0605,-2.0605,-2.0605,-2.0605,-2.0605,-2.0605,-2.0605,-2.0605,-2.0605,-2.0605,-2.0605,-2.0605,-2.0605,-2.0605,-2.9704,-2.9603,-3.0156,-3.2039,-3.2265,-3.3068,0.0,0.0,-3.8517,-4.0174,-4.2208,-4.394,-4.4769,-4.6728,-4.8636,-4.9916,-5.1147,-5.2126,-5.2754,-5.2879,-5.2904,-5.2854,-5.2879,-5.2929,-5.2929,-5.2929,-5.2929,-5.2929,-5.2929,-5.2477,-5.1423,-5.1322,-5.0795,-4.9715,-4.9615,-4.9565,-4.9515,-4.8435,-4.7908,-4.7883,-4.6828,-4.6351,-4.6376,-4.5246,-4.4694,-4.4543,-4.3011,-4.1982,-4.1326,-4.0777,-4.0199,-3.9697,-3.9542,-3.9594,-3.9569,-3.8502,-3.675,-3.519,-3.718,-3.6426,-3.4382,-3.389,-3.3606,-3.3182,-3.1186,-3.0615,-3.0512,-3.0118,-2.9994,-2.9994,-2.9994,-2.9942,-2.9764,-2.9177,-2.8677,-2.8201,-2.7695,-2.7187,-2.6758,-2.6387,-2.6269,-2.5996,-2.5243,-2.5028,-2.4648,-2.3848,-2.3379,-2.3101,-2.3101,-2.3101,-2.3101,-2.3101,-2.2711,-2.2187,-2.1327,-2.1171,-2.0996,-2.0625,-2.0605,-2.0605,-2.0605,-2.0605,-2.0605,-2.0605,-2.0605,-2.0605,-2.0605,-2.0605,-2.0605,-2.0605,-2.0605,-2.0605,-3.1361,-3.1687,-3.2491,-3.3721,-3.5303,-3.7211,-3.9747,-4.1053,-4.2208,-4.389,-4.5723,-4.7205,-4.7782,-4.9439,-5.087,0.0,-5.2076,-5.2653,-5.2904,-5.2653,-5.2076,-5.1096,-5.1272,-5.185,-5.2829,-5.2929,-5.2929,-5.2929,-5.2628,-5.2251,-5.1774,-5.1147,-5.0569,-5.0092,-4.9766,-4.9439,-4.9113,-4.8636,-4.841,-4.841,-4.7305,-4.6954,-4.7205,-4.61,-4.5246,-4.4543,-4.3212,-4.2133,-4.1275,-4.105,-4.0475,-3.9697,-3.9697,-3.9697,-3.9645,-3.9154,-3.7501,-3.5663,-3.6565,-3.5388,-3.336,-3.2894,-3.2725,-3.2564,-3.1441,-3.1091,-3.0988,-3.0532,-3.0408,-3.0325,-3.0056,-2.9889,-2.9711,-2.9448,-2.879,-2.8209,-2.7969,-2.7427,-2.6973,-2.6777,-2.6562,-2.6269,-2.5898,-2.5458,-2.4988,-2.4636,-2.3965,-2.3516,-2.3516,-2.3257,-2.3101,-2.3101,-2.2711,-2.2363,-2.2012,-2.1758,-2.1426,-2.0977,-2.0957,-2.084,-2.0625,-2.0605,-2.0605,-2.0605,-2.0605,-2.0605,-2.0605,-2.0605,-2.0605,-2.0605,-2.0605,-2.0605,-3.2566,-3.3596,-3.5077,-3.621,-3.8693,-4.1229,-4.2785,-4.4192,-4.5648,-4.733,-4.8761,-4.9866,-5.0419,-5.1373,-5.2151,-5.2302,-5.2528,-5.2754,-5.2904,-5.2176,-5.1122,-4.9766,-4.9665,-5.0193,-5.1423,-5.1975,-5.2302,-5.2452,-5.2251,-5.1975,-5.1649,-5.1021,-5.0519,-5.0193,-4.9791,-4.9414,-4.9012,-4.8686,-4.8535,-4.851,-4.7431,-4.7104,-4.7431,-4.6502,-4.5472,-4.4342,-4.3388,-4.2359,-4.1275,-4.1125,-4.0551,-3.9697,-3.9697,-3.949,-3.9206,-3.9206,-3.8108,-3.6673,-3.6673,-3.5333,-3.3529,-3.2875,-3.2714,-3.2574,-3.1802,-3.1567,-3.1464,-3.1008,-3.0884,-3.0801,-3.047,-3.0178,-2.9896,-2.979,-2.9128,-2.8441,-2.8284,-2.7838,-2.7395,-2.7226,-2.6953,-2.666,-2.6426,-2.5859,-2.5391,-2.5273,-2.4609,-2.4062,-2.3828,-2.3418,-2.3101,-2.3101,-2.2828,-2.2637,-2.2519,-2.2227,-2.1875,-2.1405,-2.1268,-2.1094,-2.0762,-2.0664,-2.0605,-2.0605,-2.0605,-2.0605,-2.0605,-2.0605,-2.0605,-2.0605,-2.0605,-2.0605,-3.3068,-3.5027,-3.7739,-4.0398,-4.2409,-4.4392,-4.7079,-4.8184,-4.9088,-5.0795,-5.1599,-5.2176,-5.2729,-5.2427,-5.2277,-5.2804,-5.2477,-5.2327,-5.2854,-5.1498,-5.0243,-4.9665,-4.8636,-4.8008,0.0,-4.954,-5.072,-5.1297,-5.18,-5.1624,-5.0519,-5.0971,-5.0745,-4.9665,-4.9615,-4.959,-4.9565,-4.8485,-4.7933,-4.7933,-4.6853,-4.6351,-4.6326,-4.5773,-4.4895,-4.379,-4.3212,-4.2359,-4.125,-4.0752,-4.0199,-3.9697,-3.9697,-3.8973,-3.795,-3.795,-3.7897,-3.7844,-3.7844,-3.7073,-3.5913,-3.4781,-3.4391,-3.4103,-3.2483,-3.1967,-3.1919,-3.1485,-3.136,-3.136,-3.134,-3.1008,-3.0603,-3.0261,-2.986,-2.9375,-2.8814,-2.8654,-2.8463,-2.7787,-2.7689,-2.7415,-2.6543,-2.6367,-2.6211,-2.5732,-2.5332,-2.4773,-2.3887,-2.3418,-2.3101,-2.3101,-2.3081,-2.2906,-2.2539,-2.25,-2.2305,-2.1894,-2.1424,-2.119,-2.1171,-2.0801,-2.0605,-2.0605,-2.0605,-2.0605,-2.0605,-2.0605,-2.0605,-2.0605,-2.0605,-2.0605,-3.5403,-3.7839,-4.0601,-4.3388,-4.5598,-4.7631,-4.969,-5.0569,-5.1046,-5.1247,-5.082,-5.0167,-4.9238,-4.8937,-4.9113,-5.0017,-5.0619,-5.1322,-5.2251,-5.1574,-4.9967,-4.7205,-4.7481,0.0,0.0,0.0,0.0,-5.0645,-5.087,-5.0996,-5.0996,-5.082,-5.0544,-5.0142,-4.9791,-4.9414,-4.9063,-4.9038,-4.8661,-4.7908,-4.7179,-4.6476,-4.5748,-4.5171,-4.4518,-4.3765,-4.3212,-4.2359,-4.1275,-4.11,-4.0526,-3.9697,-3.9697,-3.8973,-3.7897,-3.7897,-3.7394,-3.6673,-3.5881,-3.4858,-3.3818,-3.3445,-3.3332,-3.3197,-3.2654,-3.2442,-3.2339,-3.194,-3.1816,-3.1754,-3.1464,-3.1257,-3.1071,-3.0632,-3.0512,-3.0181,-2.9146,-2.9053,-2.8971,-2.8217,-2.7851,-2.763,-2.7285,-2.6758,-2.625,-2.5752,-2.5352,-2.4812,-2.3906,-2.3652,-2.3457,-2.312,-2.3101,-2.3042,-2.2906,-2.2886,-2.2711,-2.2324,-2.1894,-2.1543,-2.121,-2.0801,-2.0605,-2.0605,-2.0605,-2.0605,-2.0605,-2.0605,-2.0605,-2.0605,-2.0605,-2.0605,-3.8266,-4.1003,-4.379,-4.6552,-4.8611,-5.0293,-5.1574,-5.2,-5.1774,-5.0619,-4.949,-4.8159,-4.6301,-4.5447,-4.5547,-4.7054,-4.7732,-4.8786,-5.0921,-5.0218,-4.8711,-4.6602,-4.6753,-4.6351,0.0,0.0,0.0,-4.9715,-5.0193,-5.0569,-5.0946,-5.082,-5.0619,-5.0419,-4.9891,-4.9414,-4.9063,-4.9213,-4.8736,-4.7631,-4.7244,-4.6652,-4.5773,-4.5196,-4.4618,-4.4041,-4.3087,-4.2183,-4.125,-4.0902,-4.0325,-3.9697,-3.9697,-3.8712,-3.7287,-3.7287,-3.6317,-3.4891,-3.458,-3.3987,-3.3275,-3.2841,-3.2669,-3.2669,-3.2669,-3.2669,-3.2607,-3.2318,-3.2235,-3.2153,-3.194,-3.1733,-3.1547,-3.1236,-3.1093,-3.0806,-2.9728,-2.9541,-2.9331,-2.8593,-2.8172,-2.7904,-2.7748,-2.6953,-2.6289,-2.6016,-2.5586,-2.5,-2.4121,-2.375,-2.3457,-2.312,-2.3101,-2.3101,-2.3101,-2.3101,-2.2984,-2.2711,-2.2344,-2.1992,-2.1658,-2.1269,-2.0997,-2.0801,-2.0801,-2.0723,-2.0605,-2.0605,-2.0605,-2.0605,-2.0605,-2.0605,-4.1559,-4.4418,-4.7179,-4.9866,-5.1322,-5.2226,-5.2729,-5.2352,-5.1247,-4.8987,-4.7581,-4.6075,0.0,0.0,-4.1852,-4.4141,-4.4192,-4.5321,-4.9138,-4.7883,-4.6903,0.0,0.0,0.0,0.0,0.0,0.0,-4.8661,0.0,-5.0368,-5.0419,-5.0971,-5.1021,-5.0444,-4.9891,-4.959,-4.959,-4.9063,-4.8234,-4.7118,-4.7093,-4.6803,-4.62,-4.5673,-4.5095,-4.4418,-4.2836,-4.1831,-4.1175,-4.0122,-3.9671,-3.9594,-3.9517,-3.8108,-3.6131,-3.6131,-3.467,-3.2841,-3.3987,-3.4435,-3.4211,-3.3048,-3.2669,-3.2669,-3.2669,-3.2669,-3.2669,-3.2669,-3.2669,-3.2669,-3.2669,-3.2339,-3.2008,-3.1988,-3.1733,-3.1244,-3.0383,-3.0032,-2.9587,-2.888,-2.8461,-2.8164,-2.7787,-2.6973,-2.6406,-2.6387,-2.5996,-2.5343,-2.4531,-2.3666,-2.314,-2.3101,-2.3101,-2.3101,-2.3101,-2.3101,-2.3101,-2.3101,-2.2711,-2.2519,-2.2519,-2.2109,-2.1699,-2.1229,-2.1229,-2.1055,-2.0644,-2.0644,-2.0625,-2.0605,-2.0605,-2.0605,-4.4945,-4.7581,-4.9841,-5.18,-5.2201,-5.2026,-5.1749,-5.0293,-4.8234,-4.5598,-4.3212,-4.0777,0.0,0.0,0.0,-4.2359,-4.4744,0.0,-5.0419,-5.0368,0.0,-4.8083,0.0,-4.7908,-4.625,-4.7581,0.0,0.0,-4.9264,-4.9565,-5.0368,-5.0971,-5.1021,-5.0444,-4.9891,-4.959,-4.959,-4.9063,-4.841,-4.7707,-4.7305,-4.6341,-4.5045,-4.4895,-4.4091,-4.276,-4.2389,-4.1605,-4.0648,-3.9476,-3.879,-3.8267,-3.7447,-3.6208,-3.4914,-3.4914,-3.3987,-3.2727,-3.3069,-3.3161,-3.3126,-3.2784,-3.2669,-3.2669,-3.2669,-3.2669,-3.2669,-3.2669,-3.2669,-3.2669,-3.2669,-3.2587,-3.2401,-3.207,-3.2153,-3.1952,-3.0506,-3.0275,-3.0023,-2.8939,-2.8461,-2.8164,-2.7787,-2.7207,-2.6758,-2.6445,-2.5742,-2.5039,-2.4492,-2.4219,-2.3803,-2.3159,-2.3101,-2.3101,-2.3101,-2.3101,-2.3101,-2.3101,-2.2711,-2.2519,-2.2519,-2.2109,-2.1836,-2.1719,-2.1719,-2.1504,-2.1055,-2.1055,-2.0898,-2.0605,-2.0605,-2.0605,-4.8109,-5.0218,-5.18,-5.298,-5.2503,-5.1348,-4.9816,-4.7908,-4.5397,-4.1656,-3.9295,-3.7111,-3.4505,-3.5052,0.0,0.0,0.0,0.0,-4.8962,-4.9665,-4.969,0.0,-4.9715,0.0,-4.8234,-4.9012,-4.9791,0.0,-5.0042,-5.0142,-5.077,-5.1322,-5.1373,-5.082,-5.0243,-4.9841,-4.959,-4.9289,-4.8711,-4.7908,-4.7606,-4.6602,-4.4995,-4.4744,-4.3991,-4.2916,0.0,-4.1681,-4.0824,-4.0133,-3.9253,-3.8179,-3.7746,-3.6437,-3.4775,-3.4775,-3.3877,-3.2669,-3.2669,-3.2669,-3.2669,-3.2669,-3.2669,-3.2669,-3.2669,-3.2669,-3.2669,-3.2669,-3.2669,-3.2669,-3.2669,-3.2669,-3.2607,-3.2339,-3.2483,-3.2282,-3.0813,-3.0498,-3.0108,-2.8779,-2.8408,-2.8223,-2.7988,-2.7578,-2.7148,-2.6719,-2.6094,-2.543,-2.4785,-2.4375,-2.3965,-2.3477,-2.3198,-2.3101,-2.3101,-2.3101,-2.3101,-2.3101,-2.2867,-2.275,-2.275,-2.2559,-2.2344,-2.2168,-2.2168,-2.1855,-2.119,-2.119,-2.1073,-2.0859,-2.0859,-2.0957,-5.0971,-5.2427,-5.3231,-5.3607,-5.2377,-5.0318,-4.7556,-4.5321,-4.2509,-3.7739,-3.5805,-3.4279,-3.2164,-3.2416,-3.379,-3.6229,0.0,-4.2233,-4.6828,-4.7857,-4.8912,-5.1021,-5.0896,-5.0594,-5.0444,-5.0193,-5.0419,-5.1322,-5.1448,-5.1398,-5.1172,-5.1774,-5.1825,-5.1197,-5.067,-5.0142,-4.9615,-4.9515,-4.8962,-4.7908,-4.7832,-4.6979,-4.5472,-4.4895,-4.4292,-4.3639,0.0,0.0,-4.1275,-4.1114,-4.0035,-3.8513,-3.8801,-3.7313,-3.4991,-3.4991,-3.4025,-3.2809,-3.2809,-3.2768,-3.2669,-3.2669,-3.2669,-3.2669,-3.2669,-3.2669,-3.2669,-3.2669,-3.2669,-3.2669,-3.2669,-3.2669,-3.2669,-3.2669,-3.2669,-3.2365,-3.114,-3.0544,-2.9859,-2.8545,-2.8301,-2.8301,-2.8301,-2.7949,-2.7539,-2.7148,-2.6699,-2.6113,-2.5399,-2.4434,-2.3848,-2.3789,-2.3398,-2.3101,-2.3101,-2.3101,-2.3101,-2.3101,-2.3101,-2.3101,-2.3101,-2.3101,-2.2925,-2.2598,-2.2598,-2.2165,-2.1366,-2.1366,-2.1327,-2.1288,-2.1288,-2.1523,-5.3381,-5.4135,-5.4185,-5.3808,-5.1774,-4.9163,-4.6401,-4.271,0.0,-3.5203,-3.3219,-3.1562,-2.979,-3.106,-3.3545,-3.7136,-3.9672,-4.3062,-4.841,-4.9238,-4.9791,0.0,-5.1599,-5.1448,-5.0519,0.0,0.0,0.0,0.0,-5.2026,-5.0645,-5.1548,-5.1624,-5.0594,-5.0469,-5.0142,-4.9615,-4.9138,-4.8586,-4.7908,-4.7481,-4.6652,-4.5472,-4.4895,-4.4066,-4.3087,0.0,0.0,-4.1222,-4.0251,-3.9109,-3.7755,-3.6939,-3.5613,-3.4282,-3.4282,-3.3834,-3.3265,-3.3265,-3.3037,-3.2669,-3.2669,-3.2669,-3.2669,-3.2669,-3.2669,-3.2669,-3.2669,-3.2669,-3.2669,-3.2669,-3.2669,-3.2669,-3.2669,-3.2669,-3.2365,-3.114,-2.9896,-2.8852,-2.8374,-2.8301,-2.8301,-2.8301,-2.7949,-2.7689,-2.7559,-2.6894,-2.6328,-2.6172,-2.5078,-2.418,-2.3828,-2.3398,-2.3101,-2.3101,-2.3101,-2.3101,-2.3101,-2.3101,-2.3101,-2.3101,-2.3101,-2.3062,-2.2984,-2.2984,-2.275,-2.2285,-2.2285,-2.2109,-2.1777,-2.1777,-2.1816,-5.4185,-5.4762,-5.4863,-5.4285,-5.1398,-4.7782,-4.4141,0.0,0.0,-3.2516,-3.111,-3.0306,-2.9528,-3.0934,-3.3018,-3.5479,-3.7739,-4.1003,-4.6276,-4.7506,-4.8837,-5.1398,-5.2201,-5.2327,0.0,0.0,0.0,0.0,0.0,-5.2452,-5.1348,-5.1548,-5.1423,-5.0896,-5.0569,-5.0142,-4.9615,-4.9063,-4.8485,-4.7908,-4.738,-4.6552,-4.5472,-4.4895,-4.4192,-4.3363,-4.2866,0.0,-4.1727,-4.1483,-4.005,-3.8022,-3.7775,-3.6323,-3.4484,-3.4484,-3.4049,-3.3368,-3.3368,-3.3099,-3.2669,-3.2669,-3.2669,-3.2669,-3.2669,-3.2669,-3.2669,-3.2669,-3.2669,-3.2669,-3.2669,-3.2669,-3.2669,-3.2555,-3.2085,-3.1455,-3.06,-2.9555,-2.8716,-2.8393,-2.8301,-2.8301,-2.8301,-2.8125,-2.791,-2.7748,-2.7129,-2.6641,-2.6426,-2.543,-2.4687,-2.4519,-2.3867,-2.3477,-2.3477,-2.3218,-2.3101,-2.3101,-2.3101,-2.3101,-2.3101,-2.3101,-2.3101,-2.3101,-2.3101,-2.2886,-2.2519,-2.2519,-2.2402,-2.2207,-2.2207,-2.2324,-5.4386,-5.4963,-5.5164,-5.426,-5.077,-4.6401,-4.2007,-3.794,-3.4129,-3.0532,-2.9804,-2.9754,-2.9628,-3.0758,-3.2164,-3.3646,-3.5454,-3.8442,-4.3539,-4.5447,-4.7631,0.0,-5.2377,0.0,0.0,0.0,0.0,0.0,0.0,0.0,-5.2302,-5.1649,-5.1272,-5.1272,-5.072,-5.0142,-4.9615,-4.8912,-4.836,-4.7908,-4.7255,-4.6502,-4.5648,-4.4945,-4.4392,-4.394,-4.3263,0.0,0.0,-4.2866,-4.1258,-3.8607,-3.9055,-3.7449,-3.49,-3.4857,-3.4297,-3.3572,-3.341,-3.3099,-3.2669,-3.2669,-3.2669,-3.2669,-3.2669,-3.2669,-3.2669,-3.2669,-3.2669,-3.2669,-3.2669,-3.2669,-3.2612,-3.2363,-3.1466,-3.0591,-3.0254,-2.9597,-2.8965,-2.8633,-2.8496,-2.8437,-2.8437,-2.8359,-2.8184,-2.7904,-2.7441,-2.7031,-2.6699,-2.5898,-2.5399,-2.5399,-2.4492,-2.3887,-2.3789,-2.3477,-2.3198,-2.3101,-2.3101,-2.3101,-2.3101,-2.3101,-2.3101,-2.3101,-2.3101,-2.2925,-2.2656,-2.2656,-2.2656,-2.2656,-2.2656,-2.2789,-5.4285,-5.4963,-5.4888,-5.2854,-4.9364,-4.5296,-4.0852,0.0,-3.3244,-3.0382,-2.9804,-2.9628,-2.9063,-2.9553,-3.0859,-3.347,-3.45,-3.686,-4.2359,-4.497,-4.7179,-4.954,0.0,0.0,0.0,0.0,0.0,0.0,0.0,0.0,-5.2829,-5.185,-5.1272,-5.1272,-5.072,-5.0142,-4.9615,-4.8535,-4.7958,-4.7908,-4.6878,-4.6326,-4.62,-4.5121,-4.4593,-4.4493,0.0,0.0,0.0,-4.2961,-4.1476,-3.9147,-3.9216,-3.7588,-3.5314,-3.49,-3.4505,-3.3948,-3.3513,-3.3099,-3.2669,-3.2669,-3.2669,-3.2669,-3.2669,-3.2669,-3.2669,-3.2669,-3.2669,-3.2669,-3.2669,-3.2669,-3.2612,-3.2363,-3.1466,-3.069,-3.0631,-3.0049,-2.9492,-2.9509,-2.9141,-2.8867,-2.8867,-2.8535,-2.8281,-2.8242,-2.7871,-2.765,-2.7611,-2.6797,-2.6269,-2.6269,-2.5117,-2.4199,-2.3828,-2.375,-2.3555,-2.312,-2.3101,-2.3101,-2.3101,-2.3101,-2.3101,-2.3101,-2.3101,-2.3081,-2.3042,-2.3042,-2.3042,-2.3042,-2.3042,-2.3062,-5.3482,-5.4712,-5.5013,-5.3457,-4.9138,-4.4392,-4.0978,0.0,-3.229,-3.0231,-2.9804,-2.9729,-2.9503,-2.9628,-3.0256,-3.1687,-3.2114,-3.3847,-3.8391,-4.035,-4.3011,-4.7581,-4.949,0.0,0.0,0.0,0.0,0.0,0.0,0.0,-5.2427,-5.1373,-5.077,-5.077,-5.0218,-4.9665,-4.9113,-4.8309,-4.7757,-4.7431,-4.6677,-4.6301,-4.6276,-4.5146,-4.4618,-4.4568,0.0,0.0,0.0,-4.2986,-4.198,-4.0268,-3.951,-3.7911,-3.5994,-3.5121,-3.4339,-3.3617,-3.343,-3.3099,-3.2669,-3.2669,-3.2669,-3.2669,-3.2669,-3.2669,-3.2669,-3.2669,-3.2669,-3.2669,-3.2669,-3.244,-3.2133,-3.2018,-3.1379,-3.072,-3.0445,-3.0192,-2.9863,-2.9685,-2.9434,-2.9219,-2.8965,-2.8789,-2.8574,-2.834,-2.793,-2.7728,-2.7728,-2.6914,-2.6387,-2.6387,-2.5449,-2.4746,-2.4617,-2.4316,-2.3984,-2.3555,-2.3535,-2.3418,-2.3101,-2.3101,-2.3101,-2.3101,-2.3101,-2.3101,-2.3101,-2.3101,-2.3101,-2.3101,-2.3101,-2.3101,-5.1348,-5.3306,-5.431,-5.2854,-4.841,-4.3539,-4.0275,0.0,-3.1763,-3.0131,-2.9804,-2.9804,-2.9804,-2.9804,-2.998,-3.0532,-3.0884,-3.2265,-3.568,-3.7513,-4.0275,0.0,0.0,0.0,0.0,0.0,0.0,0.0,0.0,0.0,0.0,-5.0695,-5.0243,-5.0419,-4.9715,-4.9163,-4.8761,-4.8033,-4.7481,-4.7068,-4.6577,-4.6301,-4.6276,-4.5146,-4.4618,-4.4568,0.0,0.0,0.0,-4.2986,-4.2263,-4.0961,-3.9523,-3.8019,-3.641,-3.4903,-3.3986,-3.3348,-3.3223,-3.2996,-3.2669,-3.2669,-3.2669,-3.2669,-3.2669,-3.2669,-3.2669,-3.2669,-3.2669,-3.2669,-3.2669,-3.2268,-3.1787,-3.1787,-3.1344,-3.0801,-3.0469,-3.041,-3.0312,-3.0019,-2.9844,-2.9648,-2.9355,-2.9199,-2.8965,-2.8535,-2.8223,-2.7988,-2.7871,-2.7226,-2.6758,-2.6758,-2.5977,-2.5399,-2.5145,-2.4785,-2.4434,-2.4004,-2.3867,-2.3652,-2.3296,-2.3159,-2.3101,-2.3101,-2.3101,-2.3101,-2.3101,-2.3101,-2.3101,-2.3101,-2.3101,-2.3101,-4.7618,-5.0419,-5.2427,-5.0193,-4.6702,-4.266,-3.8216,-3.4625,-3.1763,-3.0131,-2.9804,-2.9804,-2.9804,-2.9804,-2.998,-3.0532,-3.1512,-3.2968,-3.5182,-3.7939,-4.03,0.0,0.0,0.0,0.0,0.0,0.0,0.0,0.0,0.0,0.0,-4.9916,-4.9841,-5.0393,-4.9364,-4.8786,-4.8761,-4.7682,-4.7093,-4.7068,-4.6577,-4.6301,-4.6276,-4.5146,-4.4618,0.0,0.0,0.0,0.0,-4.2986,-4.2263,-4.0937,-3.9186,-3.7727,-3.6323,-3.419,-3.3389,-3.3327,-3.2892,-3.2669,-3.2669,-3.2669,-3.2669,-3.2669,-3.2669,-3.2669,-3.2669,-3.2669,-3.2669,-3.2669,-3.2669,-3.2268,-3.1787,-3.1787,-3.1344,-3.0898,-3.0879,-3.0879,-3.0879,-3.0879,-3.0508,-3.0195,-3.0176,-2.9844,-2.9414,-2.8984,-2.8906,-2.875,-2.834,-2.791,-2.7708,-2.7708,-2.6894,-2.6016,-2.5184,-2.5106,-2.4863,-2.4434,-2.4023,-2.3789,-2.3789,-2.3379,-2.3101,-2.3101,-2.3101,-2.3101,-2.3101,-2.3101,-2.3101,-2.3101,-2.3101,-2.3101,-4.2886,-4.4744,-4.5773,-4.4317,-4.1605,-3.8617,-3.6081,-3.3495,-3.1286,-3.0055,-2.9804,-2.9804,-2.9804,-2.9804,-3.0206,-3.1512,-3.2315,-3.3319,0.0,0.0,0.0,0.0,0.0,0.0,0.0,0.0,0.0,0.0,0.0,0.0,0.0,-4.954,-4.9113,-4.9289,-4.8962,-4.841,-4.7657,-4.7305,-4.6954,-4.6577,-4.6401,-4.6125,-4.5723,-4.497,0.0,0.0,0.0,0.0,0.0,-4.2986,-4.2737,-4.2206,-3.9872,-3.8399,-3.7186,-3.4752,-3.3451,-3.2913,-3.2768,-3.2669,-3.2669,-3.2669,-3.2669,-3.2669,-3.2669,-3.2669,-3.2669,-3.2669,-3.2669,-3.2669,-3.2669,-3.2268,-3.1787,-3.1787,-3.1344,-3.0898,-3.0898,-3.0898,-3.0898,-3.0898,-3.0762,-3.0566,-3.0254,-3.0078,-2.9863,-2.9434,-2.9101,-2.8867,-2.873,-2.8105,-2.7728,-2.7728,-2.6894,-2.6269,-2.5996,-2.5703,-2.5332,-2.4883,-2.4773,-2.4394,-2.3809,-2.3652,-2.3437,-2.3101,-2.3101,-2.3101,-2.3101,-2.3101,-2.3101,-2.3101,-2.3101,-2.3101,-3.8693,-4.0727,-4.1781,-4.0676,-3.8617,0.0,-3.4525,-3.2541,-3.0859,-2.998,-2.9804,-2.9804,-2.9804,-2.9804,-3.0131,-3.1135,-3.1938,-3.2817,0.0,0.0,0.0,0.0,0.0,0.0,0.0,0.0,0.0,0.0,0.0,0.0,0.0,-4.9264,-4.8661,-4.846,-4.8259,-4.7832,-4.7093,-4.6928,-4.6652,-4.6301,-4.6301,-4.6125,-4.5773,-4.4995,0.0,0.0,0.0,0.0,0.0,-4.2986,-4.2737,-4.2069,-3.9825,-3.8204,-3.6904,-3.4668,-3.3348,-3.2669,-3.2669,-3.2669,-3.2669,-3.2669,-3.2669,-3.2669,-3.2669,-3.2669,-3.2669,-3.2669,-3.2669,-3.2669,-3.2555,-3.2211,-3.1787,-3.1614,-3.1228,-3.0898,-3.0898,-3.0898,-3.0898,-3.0898,-3.0898,-3.0801,-3.0508,-3.0449,-3.0312,-2.9863,-2.957,-2.9277,-2.8965,-2.8457,-2.8066,-2.791,-2.7285,-2.6875,-2.6875,-2.6172,-2.5577,-2.5332,-2.5156,-2.4871,-2.4297,-2.3965,-2.3652,-2.3379,-2.3179,-2.3101,-2.3101,-2.3101,-2.3101,-2.3101,-2.3101,-2.3101,0.0,-3.7814,-3.9546,-3.8492,-3.7134,-3.5449,-3.3319,-3.1687,0.0,-2.9905,-2.9804,-2.9804,-2.9854,-2.9829,-2.9854,-3.0005,-3.0884,0.0,0.0,-3.6257,0.0,0.0,0.0,0.0,0.0,0.0,0.0,0.0,0.0,0.0,0.0,-4.9038,-4.846,-4.7933,-4.733,-4.6968,-4.7018,-4.6577,-4.6301,-4.6301,-4.6301,-4.6276,-4.615,-4.5095,0.0,0.0,0.0,0.0,0.0,-4.2986,-4.2263,-4.0937,-3.9209,-3.7514,-3.5809,-3.4101,-3.3141,-3.2669,-3.2669,-3.2669,-3.2669,-3.2669,-3.2669,-3.2669,-3.2669,-3.2669,-3.2669,-3.2669,-3.2669,-3.2612,-3.2363,-3.2076,-3.173,-3.1383,-3.1112,-3.0898,-3.0898,-3.0898,-3.0898,-3.0898,-3.0898,-3.0898,-3.0898,-3.0898,-3.0742,-3.0312,-3.0215,-2.9902,-2.9121,-2.8945,-2.8769,-2.8379,-2.793,-2.7728,-2.7728,-2.6543,-2.5771,-2.5732,-2.5391,-2.5184,-2.5106,-2.4297,-2.3848,-2.3789,-2.3315,-2.3101,-2.3101,-2.3101,-2.3101,-2.3101,-2.3101,-2.3101,-3.1085,0.0,-3.2767,-3.2089,-3.1938,-3.1712,0.0,-3.0583,-3.0457,-2.9905,-2.9804,-2.993,-3.0357,-3.008,-3.0331,-3.2039,0.0,0.0,0.0,0.0,0.0,0.0,0.0,0.0,0.0,0.0,0.0,0.0,0.0,0.0,0.0,-4.8661,-4.8058,-4.7908,-4.6577,-4.6075,-4.6502,-4.6376,-4.6301,-4.6301,-4.6301,-4.5849,-4.502,-4.4744,0.0,0.0,0.0,0.0,-4.2986,-4.2986,-4.2263,-4.0961,-3.9546,-3.7807,-3.5852,-3.4459,-3.341,-3.2669,-3.2669,-3.2669,-3.2669,-3.2669,-3.2669,-3.2669,-3.2669,-3.2669,-3.2669,-3.2669,-3.2669,-3.2612,-3.2363,-3.2076,-3.173,-3.1383,-3.1112,-3.0898,-3.0898,-3.0898,-3.0898,-3.0898,-3.0898,-3.0898,-3.0898,-3.0898,-3.0859,-3.0742,-3.043,-3.0117,-2.9922,-2.9316,-2.8887,-2.8789,-2.8105,-2.7728,-2.7728,-2.709,-2.6582,-2.625,-2.6133,-2.583,-2.5145,-2.493,-2.4453,-2.3809,-2.3315,-2.3101,-2.3101,-2.3101,-2.3101,-2.3101,-2.3101,-2.3101,-2.9804,-3.0206,-3.0532,-3.0256,-3.0407,-3.0532,-3.0231,-3.0206,-3.0156,-2.9854,-2.9804,-2.9955,-3.0507,-3.0156,-3.0432,-3.2365,-3.2943,0.0,0.0,0.0,0.0,0.0,0.0,0.0,0.0,0.0,0.0,0.0,0.0,0.0,0.0,-4.8159,-4.7556,-4.7556,-4.6451,-4.5999,-4.6301,-4.605,-4.6075,-4.6301,-4.605,-4.5623,-4.4995,-4.4493,0.0,0.0,0.0,0.0,-4.2986,-4.2986,-4.1923,-4.0152,-3.9451,-3.7509,-3.5077,-3.4599,-3.3679,-3.2747,-3.2954,-3.2892,-3.2669,-3.2669,-3.2669,-3.2669,-3.2669,-3.2669,-3.2669,-3.2669,-3.2669,-3.2612,-3.219,-3.196,-3.1672,-3.1228,-3.0995,-3.0898,-3.0898,-3.0898,-3.0898,-3.0898,-3.0898,-3.0898,-3.0898,-3.0898,-3.0898,-3.0898,-3.0684,-3.043,-3.0234,-2.9629,-2.9141,-2.8945,-2.834,-2.8002,-2.8002,-2.7734,-2.7246,-2.6445,-2.6387,-2.6074,-2.541,-2.5176,-2.4715,-2.3809,-2.3555,-2.334,-2.3101,-2.3101,-2.3101,-2.3101,-2.3101,-2.3101,-2.9905,-3.0382,-3.0809,-3.0557,-3.0557,-3.0583,-3.0507,-3.0131,-2.9804,-2.9804,-2.9804,-2.9955,-3.0507,-3.0357,-3.0633,0.0,0.0,0.0,0.0,0.0,0.0,0.0,0.0,0.0,0.0,0.0,0.0,0.0,0.0,0.0,0.0,-4.7657,0.0,-4.7004,-4.6301,-4.5974,-4.605,-4.5673,-4.5673,-4.605,-4.5573,-4.5321,-4.5196,-4.4242,-4.3765,0.0,0.0,0.0,-4.2986,-4.2793,-4.1329,-3.9157,-3.8912,-3.6853,-3.4173,-3.4484,-3.3782,-3.2789,-3.3161,-3.3037,-3.2669,-3.2669,-3.2669,-3.2669,-3.2669,-3.2669,-3.2669,-3.2669,-3.2669,-3.2555,-3.196,-3.1787,-3.1672,-3.1054,-3.0898,-3.0898,-3.0898,-3.0898,-3.0898,-3.0898,-3.0898,-3.0898,-3.0898,-3.0898,-3.0898,-3.0898,-3.0898,-3.0742,-3.0351,-2.9922,-2.9512,-2.9062,-2.8633,-2.8359,-2.8301,-2.8301,-2.7793,-2.666,-2.6582,-2.6348,-2.581,-2.5352,-2.4773,-2.4004,-2.3848,-2.3613,-2.3198,-2.312,-2.3101,-2.3101,-2.3101,-2.3101,-3.0357,-3.121,-3.1637,-3.0256,-3.0256,-3.0482,-3.003,-2.9854,-2.9804,-2.9804,-2.9804,-2.9955,-3.0507,-3.1286,-3.2089,0.0,0.0,0.0,0.0,0.0,0.0,0.0,0.0,0.0,0.0,0.0,0.0,0.0,0.0,0.0,0.0,0.0,0.0,-4.6426,-4.497,-4.4418,-4.4869,-4.5296,-4.5271,-4.4895,-4.4794,-4.4518,-4.4066,-4.389,-4.3539,0.0,0.0,-4.2986,-4.293,-4.1866,-4.05,-3.9053,-3.7584,-3.58,-3.409,-3.3699,-3.3223,-3.2747,-3.2809,-3.2789,-3.2669,-3.2669,-3.2669,-3.2669,-3.2669,-3.2669,-3.2669,-3.2669,-3.2669,-3.2555,-3.196,-3.1787,-3.1672,-3.1054,-3.0898,-3.0898,-3.0898,-3.0898,-3.0898,-3.0898,-3.0898,-3.0898,-3.0898,-3.0898,-3.0898,-3.0898,-3.0898,-3.0859,-3.0801,-3.0391,-2.9941,-2.9512,-2.9082,-2.8672,-2.832,-2.8301,-2.8066,-2.7552,-2.7513,-2.7109,-2.6328,-2.5508,-2.5047,-2.493,-2.416,-2.375,-2.3691,-2.3276,-2.3101,-2.3101,-2.3101,-2.3101,-3.0105,-3.0758,-3.1235,-3.0783,-3.1311,-3.1637,-3.0507,-3.0231,-3.0231,-3.0231,-3.0231,-3.0482,-3.1311,-3.2139,-3.3445,-3.5877,0.0,0.0,0.0,0.0,0.0,0.0,0.0,0.0,0.0,0.0,0.0,0.0,0.0,0.0,0.0,0.0,0.0,0.0,-4.4819,-4.4217,-4.4192,-4.4443,-4.4593,-4.4618,-4.4317,-4.4041,-4.379,-4.3489,-4.3212,-4.2986,0.0,-4.2986,-4.288,-4.1355,-3.9959,-3.8641,-3.6941,-3.5253,-3.3637,-3.3182,-3.3058,-3.3037,-3.2809,-3.2669,-3.2669,-3.2669,-3.2669,-3.2669,-3.2669,-3.2669,-3.2669,-3.2669,-3.2612,-3.2383,-3.1903,-3.1672,-3.1441,-3.0995,-3.0898,-3.0898,-3.0898,-3.0898,-3.0898,-3.0898,-3.0898,-3.0898,-3.0898,-3.0898,-3.0898,-3.0898,-3.0898,-3.0898,-3.0898,-3.0488,-3.0117,-2.9922,-2.9316,-2.8848,-2.8652,-2.8418,-2.8125,-2.7748,-2.7278,-2.6797,-2.6406,-2.5781,-2.5312,-2.5125,-2.4734,-2.4355,-2.4121,-2.3926,-2.3711,-2.3496,-2.3496,-2.3315,-2.9955,-3.0382,-3.0859,-3.1135,-3.1863,-3.229,-3.1562,-3.1286,-3.126,-3.1512,-3.1587,-3.1788,-3.2491,-3.3495,0.0,-3.8868,0.0,0.0,0.0,0.0,0.0,0.0,0.0,0.0,0.0,0.0,0.0,0.0,0.0,0.0,0.0,0.0,0.0,0.0,-4.4543,-4.4041,-4.3614,-4.3489,-4.3689,-4.4242,-4.3815,-4.3614,-4.3589,-4.2881,-4.2569,-4.2569,-4.2206,-4.2019,-4.1815,-4.0311,-3.8942,-3.7733,-3.6158,-3.4577,-3.3182,-3.2851,-3.2934,-3.3182,-3.2851,-3.2669,-3.2669,-3.2669,-3.2669,-3.2669,-3.2669,-3.2669,-3.2669,-3.2669,-3.244,-3.2133,-3.1845,-3.1556,-3.1208,-3.0937,-3.0898,-3.0898,-3.0898,-3.0898,-3.0898,-3.0898,-3.0898,-3.0898,-3.0898,-3.0898,-3.0898,-3.0898,-3.0898,-3.0898,-3.0898,-3.0586,-3.0312,-3.0215,-2.9609,-2.9141,-2.8945,-2.8535,-2.8164,-2.7885,-2.7012,-2.6543,-2.6543,-2.6016,-2.5586,-2.5234,-2.5165,-2.4902,-2.457,-2.4473,-2.4199,-2.3789,-2.3789,-2.3555,-3.0407,-3.0934,-3.1235,-3.0783,-3.0733,-3.1311,-3.3219,-3.3269,-3.3194,-3.4223,-3.4379,-3.4299,-3.3847,-3.5906,-3.8417,-4.0724,0.0,0.0,0.0,0.0,0.0,0.0,0.0,0.0,0.0,0.0,0.0,0.0,0.0,0.0,0.0,0.0,0.0,0.0,0.0,-4.3087,-4.3037,-4.259,-4.2615,-4.3087,-4.3062,-4.3037,-4.3037,-4.181,-4.1215,-4.1157,-3.9978,-3.9232,-3.8782,-3.7903,-3.6978,-3.6012,-3.4783,-3.3651,-3.2768,-3.269,-3.269,-3.2768,-3.269,-3.2669,-3.2669,-3.2669,-3.2669,-3.2669,-3.2669,-3.2669,-3.2669,-3.2669,-3.2268,-3.1845,-3.1787,-3.1556,-3.1208,-3.0937,-3.0898,-3.0898,-3.0898,-3.0898,-3.0898,-3.0898,-3.0898,-3.0898,-3.0898,-3.0898,-3.0898,-3.0898,-3.0898,-3.0898,-3.0898,-3.0859,-3.0684,-3.0234,-3.0137,-2.9785,-2.8984,-2.8535,-2.8281,-2.8242,-2.7441,-2.6973,-2.6973,-2.6122,-2.5674,-2.5635,-2.5273,-2.5106,-2.5067,-2.4609,-2.4199,-2.3789,-2.3789,-2.3555,-3.0055,-3.0733,-3.1436,-3.1562,-3.1888,-3.2365,-3.3194,-3.4299,-3.5278,-3.568,-3.6307,-3.6709,-3.6483,0.0,-4.0174,0.0,0.0,0.0,0.0,0.0,0.0,0.0,0.0,0.0,0.0,0.0,0.0,0.0,0.0,0.0,0.0,0.0,0.0,0.0,0.0,-4.2308,-4.1957,-4.1756,-4.1756,-4.1957,-4.1957,-4.2308,-4.2961,-4.133,-4.0787,-4.1043,-3.9744,-3.8918,-3.8401,-3.7066,-3.6122,-3.5373,-3.3849,-3.3037,-3.2669,-3.2669,-3.2669,-3.2669,-3.2669,-3.2669,-3.2669,-3.2669,-3.2669,-3.2669,-3.2669,-3.2669,-3.2669,-3.2498,-3.2133,-3.1787,-3.1787,-3.146,-3.0995,-3.0937,-3.0898,-3.0898,-3.0898,-3.0898,-3.0898,-3.0898,-3.0898,-3.0898,-3.0898,-3.0898,-3.0898,-3.0898,-3.0898,-3.0898,-3.0898,-3.0898,-3.082,-3.0644,-3.0137,-2.957,-2.8965,-2.8535,-2.8301,-2.8301,-2.7754,-2.7422,-2.7422,-2.6602,-2.6133,-2.6133,-2.5703,-2.5488,-2.5488,-2.5265,-2.5019,-2.4636,-2.4636,-2.4355,-2.9804,-3.0331,-3.106,-3.1763,-3.2641,-3.3621,-3.472,-3.6232,-3.7638,-3.8341,-3.8642,-3.8743,-3.8567,-3.9622,0.0,0.0,0.0,0.0,0.0,0.0,0.0,0.0,0.0,0.0,0.0,0.0,0.0,0.0,0.0,0.0,0.0,0.0,0.0,0.0,0.0,-4.1731,-4.1275,-4.1125,-4.1125,-4.1275,-4.0604,-4.1002,-4.2404,-4.0403,-3.967,-3.9969,-3.8267,-3.7295,-3.6827,-3.5801,-3.5106,-3.4576,-3.3236,-3.2669,-3.2669,-3.2669,-3.2669,-3.2669,-3.2669,-3.2669,-3.2669,-3.2669,-3.2669,-3.2669,-3.2669,-3.2669,-3.2612,-3.2363,-3.2076,-3.1787,-3.1672,-3.1286,-3.0898,-3.0898,-3.0898,-3.0898,-3.0898,-3.0898,-3.0898,-3.0898,-3.0898,-3.0898,-3.0898,-3.0898,-3.0898,-3.0898,-3.0898,-3.0898,-3.0898,-3.0898,-3.0898,-3.0898,-3.0098,-2.9453,-2.9141,-2.8613,-2.8301,-2.8301,-2.8027,-2.7865,-2.7728,-2.6973,-2.6523,-2.6387,-2.6094,-2.583,-2.5693,-2.5693,-2.5508,-2.5106,-2.5106,-2.4824,-2.9804,-2.9804,-3.0055,-3.1135,-3.2667,-3.4801,-3.8115,-3.932,-4.0325,-4.2534,-4.1681,-4.0375,-3.9823,-4.0174,0.0,0.0,0.0,0.0,0.0,0.0,0.0,0.0,0.0,0.0,0.0,0.0,0.0,0.0,0.0,0.0,0.0,0.0,0.0,0.0,0.0,0.0,-4.1275,-4.0777,-4.0724,-4.125,-3.8989,-3.9116,-4.1222,-3.8768,-3.7701,-3.7531,-3.5152,-3.3803,-3.341,-3.3924,-3.3782,-3.3327,-3.2892,-3.2669,-3.2669,-3.2669,-3.2669,-3.2669,-3.2669,-3.2669,-3.2669,-3.2669,-3.2669,-3.2669,-3.2669,-3.2669,-3.2612,-3.2363,-3.2076,-3.173,-3.1383,-3.1112,-3.0898,-3.0898,-3.0898,-3.0898,-3.0898,-3.0898,-3.0898,-3.0898,-3.0898,-3.0898,-3.0898,-3.0898,-3.0898,-3.0898,-3.0898,-3.0898,-3.0898,-3.0898,-3.0898,-3.0898,-3.0098,-2.957,-2.9626,-2.8789,-2.8301,-2.8301,-2.8301,-2.8105,-2.7748,-2.7246,-2.6836,-2.6406,-2.6387,-2.6191,-2.5693,-2.5693,-2.5527,-2.5125,-2.5125,-2.4844,-2.9905,-3.0331,-3.1185,-3.229,-3.4123,-3.6433,-3.9371,-4.0149,-4.1003,-4.3589,-4.3438,-4.266,-4.2108,-4.2459,0.0,0.0,0.0,0.0,0.0,0.0,0.0,0.0,0.0,0.0,0.0,0.0,0.0,0.0,0.0,0.0,0.0,0.0,0.0,0.0,0.0,0.0,-4.0199,-4.0023,-3.9581,-3.8912,-3.82,-3.8664,-4.0007,-3.7165,-3.6077,-3.6432,-3.4821,-3.3803,-3.3368,-3.3203,-3.3037,-3.2913,-3.2731,-3.2669,-3.2669,-3.2669,-3.2669,-3.2669,-3.2669,-3.2669,-3.2669,-3.2669,-3.2669,-3.2669,-3.2669,-3.2555,-3.2363,-3.2018,-3.173,-3.1383,-3.1112,-3.0957,-3.0898,-3.0898,-3.0898,-3.0898,-3.0898,-3.0898,-3.0898,-3.0898,-3.0898,-3.0898,-3.0898,-3.0898,-3.0898,-3.0898,-3.0898,-3.0898,-3.0898,-3.0898,-3.0898,-3.0898,-3.0351,-2.9883,-2.959,-2.9062,-2.8613,-2.832,-2.8301,-2.8242,-2.8105,-2.7695,-2.7422,-2.7337,-2.6992,-2.6758,-2.659,-2.659,-2.6426,-2.5996,-2.5996,-2.5762,-2.988,-3.0583,-3.1763,-3.3345,-3.5403,-3.7814,-4.0802,-4.2359,-4.3614,-4.5271,-4.502,-4.4292,-4.374,-4.3363,0.0,0.0,0.0,0.0,0.0,0.0,0.0,0.0,0.0,0.0,0.0,0.0,0.0,0.0,0.0,0.0,0.0,0.0,0.0,0.0,0.0,0.0,-3.9697,-3.9697,-3.9102,-3.7897,-3.7447,-3.7348,-3.7493,-3.5692,-3.5059,-3.5343,-3.4096,-3.3368,-3.3099,-3.2851,-3.2669,-3.2669,-3.2669,-3.2669,-3.2669,-3.2669,-3.2669,-3.2669,-3.2669,-3.2669,-3.2669,-3.2669,-3.2669,-3.2669,-3.2669,-3.2612,-3.2363,-3.1903,-3.1672,-3.1383,-3.0995,-3.0898,-3.0898,-3.0898,-3.0898,-3.0898,-3.0898,-3.0898,-3.0898,-3.0898,-3.0898,-3.0898,-3.0898,-3.0898,-3.0898,-3.0898,-3.0898,-3.0898,-3.0898,-3.0898,-3.0898,-3.0898,-3.0469,-3.0019,-2.9609,-2.916,-2.875,-2.832,-2.8301,-2.8301,-2.8301,-2.8047,-2.7832,-2.7728,-2.7402,-2.7187,-2.7012,-2.7012,-2.6894,-2.6641,-2.6465,-2.625,-2.9777,-3.0618,-3.1989,-3.4248,-3.6609,-3.9195,-4.2333,-4.5095,-4.6979,-4.6842,-4.6175,-4.5372,-4.4744,0.0,0.0,0.0,0.0,0.0,0.0,0.0,0.0,0.0,0.0,0.0,0.0,0.0,0.0,0.0,0.0,0.0,0.0,0.0,0.0,0.0,0.0,0.0,-3.9542,-3.9542,-3.8868,0.0,-3.6534,-3.5443,-3.4323,-3.4323,-3.4323,-3.4267,-3.3161,-3.2669,-3.2669,-3.2669,-3.2669,-3.2669,-3.2669,-3.2669,-3.2669,-3.2669,-3.2669,-3.2669,-3.2669,-3.2669,-3.2669,-3.2669,-3.2669,-3.2669,-3.2669,-3.2612,-3.2498,-3.196,-3.173,-3.1556,-3.1054,-3.0898,-3.0898,-3.0898,-3.0898,-3.0898,-3.0898,-3.0898,-3.0898,-3.0898,-3.0898,-3.0898,-3.0898,-3.0898,-3.0898,-3.0898,-3.0898,-3.0898,-3.0898,-3.0898,-3.0898,-3.0898,-3.0508,-3.0098,-2.9668,-2.9219,-2.8809,-2.8379,-2.832,-2.8301,-2.8301,-2.8301,-2.8105,-2.7787,-2.7767,-2.7519,-2.7129,-2.7129,-2.7109,-2.707,-2.668,-2.6465,-2.9585,-3.0696,-3.2566,-3.4781,-3.8341,-4.1735,-4.3263,-4.4769,-4.5723,-4.5246,-4.5673,-4.5824,-4.4819,0.0,0.0,0.0,0.0,0.0,0.0,0.0,0.0,0.0,0.0,0.0,0.0,0.0,0.0,0.0,0.0,0.0,0.0,0.0,0.0,0.0,0.0,-3.9258,-3.8319,-3.8267,-3.7233,0.0,-3.4969,-3.4267,-3.3105,-3.3105,-3.3105,-3.3048,-3.2784,-3.2669,-3.2669,-3.2669,-3.2669,-3.2669,-3.2669,-3.2669,-3.2669,-3.2669,-3.2669,-3.2669,-3.2669,-3.2669,-3.2669,-3.242,-3.2555,-3.2669,-3.244,-3.219,-3.196,-3.1845,-3.146,-3.1054,-3.0957,-3.0898,-3.0898,-3.0898,-3.0898,-3.0898,-3.0898,-3.0898,-3.0898,-3.0898,-3.0898,-3.0898,-3.0898,-3.0898,-3.0898,-3.0898,-3.0898,-3.0898,-3.0898,-3.0898,-3.0898,-3.0898,-3.0801,-3.0566,-3.0098,-2.9668,-2.9238,-2.8809,-2.8476,-2.8301,-2.8301,-2.8301,-2.8262,-2.8164,-2.8164,-2.8105,-2.8027,-2.8027,-2.7851,-2.7519,-2.7493,-2.7031,-2.9044,-3.0745,-3.342,-3.6709,-3.9873,-4.2489,-4.3539,-4.4267,-4.4593,-4.4292,-4.5121,-4.5648,0.0,0.0,0.0,0.0,0.0,0.0,0.0,0.0,0.0,0.0,0.0,0.0,0.0,0.0,0.0,0.0,0.0,0.0,0.0,0.0,0.0,0.0,-3.9154,-3.8554,-3.7897,-3.734,-3.6208,-3.4469,-3.4469,-3.3875,-3.2669,-3.2669,-3.2669,-3.2669,-3.2669,-3.2669,-3.2669,-3.2669,-3.2669,-3.2669,-3.2669,-3.2669,-3.2669,-3.2669,-3.2669,-3.2669,-3.2669,-3.2669,-3.2669,-3.2383,-3.2498,-3.2669,-3.2363,-3.219,-3.2018,-3.1845,-3.1441,-3.1054,-3.0937,-3.0898,-3.0898,-3.0898,-3.0898,-3.0898,-3.0898,-3.0898,-3.0898,-3.0898,-3.0898,-3.0898,-3.0898,-3.0898,-3.0898,-3.0898,-3.0898,-3.0898,-3.0898,-3.0898,-3.0898,-3.0898,-3.0898,-3.0703,-3.0234,-3.0,-2.959,-2.8965,-2.8711,-2.8496,-2.8301,-2.8301,-2.8301,-2.8301,-2.8301,-2.8301,-2.8301,-2.8301,-2.8184,-2.7969,-2.7806,-2.7474,-2.821,-3.0608,-3.4145,-3.8341,-4.0576,-4.2062,-4.3112,-4.3388,-4.3388,-4.3388,-4.4267,0.0,0.0,0.0,0.0,0.0,0.0,0.0,0.0,0.0,0.0,0.0,0.0,0.0,0.0,0.0,0.0,0.0,0.0,0.0,0.0,0.0,-3.9446,-3.9546,-3.831,-3.7604,-3.7488,-3.6248,-3.5064,-3.3951,-3.3951,-3.35,-3.2669,-3.2504,-3.2582,-3.2669,-3.2669,-3.2669,-3.2669,-3.2669,-3.2669,-3.2669,-3.2669,-3.2669,-3.2669,-3.2669,-3.2669,-3.2669,-3.2669,-3.2669,-3.2669,-3.2305,-3.244,-3.2612,-3.2248,-3.219,-3.2133,-3.1787,-3.1498,-3.117,-3.0957,-3.0898,-3.0898,-3.0898,-3.0898,-3.0898,-3.0898,-3.0898,-3.0898,-3.0898,-3.0898,-3.0898,-3.0898,-3.0898,-3.0898,-3.0898,-3.0898,-3.0898,-3.0898,-3.0898,-3.0898,-3.0898,-3.0898,-3.0742,-3.0351,-3.0176,-2.9785,-2.9082,-2.8887,-2.8652,-2.8301,-2.8301,-2.8301,-2.8301,-2.8301,-2.8301,-2.8301,-2.8301,-2.8301,-2.8281,-2.793,-2.7787,-2.6979,-3.0082,-3.4132,-3.7392,-3.9145,-4.03,-4.1404,-4.1601,-4.1601,0.0,0.0,0.0,0.0,0.0,0.0,0.0,0.0,0.0,0.0,0.0,0.0,0.0,0.0,0.0,0.0,0.0,0.0,0.0,0.0,0.0,0.0,-3.8241,-3.8467,-3.8969,-3.7433,-3.6359,-3.5839,-3.4311,-3.2955,-3.1822,-3.1822,-3.2128,-3.2649,-3.1919,-3.1981,-3.2669,-3.2669,-3.2669,-3.2669,-3.2669,-3.2669,-3.2669,-3.2669,-3.2669,-3.2669,-3.2669,-3.2669,-3.2669,-3.2669,-3.2669,-3.2612,-3.2018,-3.2248,-3.2555,-3.1672,-3.1614,-3.1787,-3.1441,-3.117,-3.0957,-3.0898,-3.0898,-3.0898,-3.0898,-3.0898,-3.0898,-3.0898,-3.0898,-3.0898,-3.0898,-3.0898,-3.0898,-3.0898,-3.0898,-3.0898,-3.0898,-3.0898,-3.0898,-3.0898,-3.0898,-3.0898,-3.0898,-3.0898,-3.0859,-3.0801,-3.0098,-2.9609,-2.9492,-2.8789,-2.8359,-2.8301,-2.8301,-2.8301,-2.8301,-2.8301,-2.8301,-2.8301,-2.8301,-2.8301,-2.8301,-2.8242,-2.8008,-2.8188,-3.0261,-3.2731,-3.5821,-3.7236,-3.8291,-4.0023,-4.0425,-4.0601,0.0,0.0,0.0,0.0,0.0,0.0,0.0,0.0,0.0,0.0,0.0,0.0,0.0,0.0,0.0,0.0,0.0,0.0,0.0,0.0,0.0,-3.8015,-3.8015,-3.8115,-3.8391,-3.6459,-3.5305,-3.5044,-3.3136,-3.1885,-3.1381,-3.1381,-3.1588,-3.1961,-3.1567,-3.1733,-3.2277,-3.2277,-3.2277,-3.2318,-3.2566,-3.2669,-3.2669,-3.2669,-3.2669,-3.2669,-3.2669,-3.2669,-3.2669,-3.2669,-3.2669,-3.2612,-3.2018,-3.219,-3.2555,-3.1787,-3.1672,-3.1787,-3.1614,-3.1228,-3.0898,-3.0898,-3.0898,-3.0898,-3.0898,-3.0898,-3.0898,-3.0898,-3.0898,-3.0898,-3.0898,-3.0898,-3.0898,-3.0898,-3.0898,-3.0898,-3.0898,-3.0898,-3.0898,-3.0898,-3.0898,-3.0898,-3.0898,-3.0898,-3.0781,-3.0527,-3.0391,-3.0,-2.9258,-2.9082,-2.8789,-2.832,-2.8301,-2.8301,-2.8301,-2.8301,-2.8301,-2.8301,-2.8301,-2.8301,-2.8301,-2.8301,-2.8203,-2.8352,-2.9687,-3.098,-3.3642,-3.5019,-3.6329,-3.8366,0.0,-3.917,0.0,0.0,0.0,0.0,0.0,0.0,0.0,0.0,0.0,0.0,0.0,0.0,0.0,0.0,0.0,0.0,0.0,0.0,0.0,0.0,0.0,-3.7588,-3.7588,-3.754,-3.737,-3.5395,-3.4245,-3.4123,-3.2052,-3.1091,-3.1195,-3.1091,-3.1153,-3.136,-3.1133,-3.1278,-3.1712,-3.1816,-3.1878,-3.1899,-3.2318,-3.2504,-3.2504,-3.2628,-3.2669,-3.2669,-3.2669,-3.2669,-3.2669,-3.2669,-3.2669,-3.2612,-3.2018,-3.219,-3.2555,-3.1903,-3.173,-3.1787,-3.1672,-3.1286,-3.0898,-3.0898,-3.0898,-3.0898,-3.0898,-3.0898,-3.0898,-3.0898,-3.0898,-3.0898,-3.0898,-3.0898,-3.0898,-3.0898,-3.0898,-3.0898,-3.0898,-3.0898,-3.0898,-3.0898,-3.0898,-3.0898,-3.0898,-3.0898,-3.0762,-3.041,-3.0586,-3.0293,-2.9297,-2.9336,-2.9121,-2.8476,-2.834,-2.8301,-2.8301,-2.8301,-2.8301,-2.8301,-2.8301,-2.8301,-2.8301,-2.8301,-2.8301,-2.5759,-2.7414,-2.9246,-3.0788,-3.2586,-3.4474,0.0,0.0,0.0,0.0,0.0,0.0,0.0,0.0,0.0,0.0,0.0,0.0,0.0,0.0,0.0,0.0,0.0,0.0,0.0,0.0,0.0,0.0,0.0,0.0,-3.6531,-3.648,-3.6228,-3.5742,-3.4123,-3.3045,-3.2537,-3.0874,-3.0284,-3.0719,-3.0284,-3.0532,-3.134,-3.047,-3.0325,-3.0781,-3.1215,-3.1422,-3.1443,-3.1899,-3.2029,-3.207,-3.2504,-3.2669,-3.2669,-3.2669,-3.2669,-3.2669,-3.2669,-3.2669,-3.2612,-3.2018,-3.219,-3.2555,-3.1614,-3.1556,-3.173,-3.1441,-3.1112,-3.0898,-3.0898,-3.0898,-3.0898,-3.0898,-3.0898,-3.0898,-3.0898,-3.0898,-3.0898,-3.0898,-3.0898,-3.0898,-3.0898,-3.0898,-3.0898,-3.0898,-3.0898,-3.0898,-3.0898,-3.0898,-3.0898,-3.0898,-3.0898,-3.0879,-3.0859,-3.0469,-3.0195,-3.0137,-2.9394,-2.8926,-2.8887,-2.8496,-2.8301,-2.8301,-2.8301,-2.8301,-2.8301,-2.8301,-2.8301,-2.8301,-2.8301,-2.8301,-2.5589,-2.6334,-2.7454,-2.9791,-3.0913,-3.2074,-3.431,-3.5052,0.0,0.0,0.0,0.0,0.0,0.0,0.0,0.0,0.0,0.0,0.0,0.0,0.0,0.0,0.0,0.0,0.0,0.0,0.0,0.0,0.0,0.0,-3.6405,-3.6405,-3.6005,-3.5113,-3.384,-3.2437,-3.0884,-3.0287,-3.0077,-3.0243,-3.0077,-3.018,-3.047,-3.0139,-3.0077,-3.0243,-3.0408,-3.0657,-3.0988,-3.1733,-3.1988,-3.2029,-3.2483,-3.2669,-3.2669,-3.2669,-3.2669,-3.2669,-3.2669,-3.2669,-3.2612,-3.2018,-3.2076,-3.2305,-3.1787,-3.1556,-3.1498,-3.1614,-3.1286,-3.0898,-3.0898,-3.0898,-3.0898,-3.0898,-3.0898,-3.0898,-3.0898,-3.0898,-3.0898,-3.0898,-3.0898,-3.0898,-3.0898,-3.0898,-3.0898,-3.0898,-3.0898,-3.0898,-3.0898,-3.0898,-3.0898,-3.0898,-3.0898,-3.0762,-3.0469,-3.0566,-3.0273,-2.9434,-2.9355,-2.9082,-2.8535,-2.8379,-2.8301,-2.8301,-2.8301,-2.8301,-2.8301,-2.8301,-2.8301,-2.8301,-2.8301,-2.8301,-2.5232,-2.5589,-2.6309,-2.8364,-2.9004,-2.975,-3.2296,0.0,0.0,0.0,0.0,0.0,0.0,0.0,0.0,0.0,0.0,0.0,0.0,0.0,0.0,0.0,0.0,0.0,0.0,0.0,0.0,0.0,0.0,0.0,-3.6107,-3.5799,-3.4917,-3.3307,-3.2229,-3.0976,-2.9539,-2.9684,-2.9766,-2.9766,-2.9911,-2.9994,-2.9994,-2.9994,-2.9994,-2.9994,-2.9994,-3.018,-3.0512,-3.1278,-3.1588,-3.165,-3.2215,-3.2442,-3.2463,-3.2607,-3.2669,-3.2669,-3.2669,-3.2612,-3.2498,-3.196,-3.196,-3.2076,-3.173,-3.1498,-3.1325,-3.1556,-3.1286,-3.0898,-3.0898,-3.0898,-3.0898,-3.0898,-3.0898,-3.0898,-3.0898,-3.0898,-3.0898,-3.0898,-3.0898,-3.0898,-3.0898,-3.0898,-3.0898,-3.0898,-3.0898,-3.0898,-3.0898,-3.0898,-3.0898,-3.0898,-3.0898,-3.0762,-3.0449,-3.0703,-3.0508,-2.9629,-2.9707,-2.9453,-2.875,-2.8574,-2.8437,-2.8301,-2.8301,-2.8301,-2.8301,-2.8301,-2.8301,-2.8301,-2.8301,-2.8301,0.0,0.0,0.0,-2.6366,0.0,0.0,-3.0143,0.0,0.0,0.0,0.0,0.0,0.0,0.0,0.0,0.0,0.0,0.0,0.0,0.0,0.0,0.0,0.0,0.0,0.0,0.0,0.0,0.0,0.0,-3.606,-3.5533,-3.4548,-3.2887,-3.0339,-2.9183,-2.8607,-2.8607,-2.9083,-2.9311,-2.9311,-2.9766,-2.9994,-2.9994,-2.9994,-2.9994,-2.9994,-2.9994,-2.9994,-3.0036,-3.0491,-3.0677,-3.0781,-3.1671,-3.1967,-3.205,-3.2483,-3.2669,-3.2669,-3.2669,-3.2498,-3.2248,-3.1903,-3.1787,-3.173,-3.1383,-3.1267,-3.1267,-3.1325,-3.1112,-3.0898,-3.0898,-3.0898,-3.0898,-3.0898,-3.0898,-3.0898,-3.0898,-3.0898,-3.0898,-3.0898,-3.0898,-3.0898,-3.0898,-3.0898,-3.0898,-3.0898,-3.0898,-3.0898,-3.0898,-3.0898,-3.0898,-3.0898,-3.0898,-3.0898,-3.0898,-3.0898,-3.0879,-3.0879,-3.0449,-3.0,-2.9626,-2.916,-2.875,-2.832,-2.832,-2.832,-2.832,-2.8301,-2.8301,-2.8301,-2.8301,-2.8301,-2.4507,0.0,0.0,0.0,0.0,0.0,0.0,0.0,0.0,0.0,0.0,0.0,0.0,0.0,0.0,0.0,0.0,0.0,0.0,0.0,0.0,0.0,0.0,0.0,0.0,0.0,0.0,0.0,-3.4413,-3.415,-3.5415,-3.3527,-3.2014,-3.1303,-2.9529,-2.8607,-2.8607,-2.9083,-2.9311,-2.9311,-2.9766,-2.9994,-2.9994,-2.9994,-2.9994,-2.9994,-2.9994,-2.9994,-3.0036,-3.0491,-3.0677,-3.0739,-3.134,-3.1754,-3.2008,-3.2132,-3.238,-3.2669,-3.2669,-3.2498,-3.2248,-3.1903,-3.1614,-3.1441,-3.1325,-3.117,-3.1054,-3.1267,-3.1112,-3.0898,-3.0898,-3.0898,-3.0898,-3.0898,-3.0898,-3.0898,-3.0898,-3.0898,-3.0898,-3.0898,-3.0898,-3.0898,-3.0898,-3.0898,-3.0898,-3.0898,-3.0898,-3.0898,-3.0898,-3.0898,-3.0898,-3.0898,-3.0898,-3.0898,-3.0898,-3.0898,-3.0742,-3.041,-3.0273,-2.9863,-2.9121,-2.9277,-2.918,-2.875,-2.9062,-2.9062,-2.875,-2.8437,-2.8301,-2.8301,-2.8301,-2.8301,-2.4507,-2.4507,-2.4657,0.0,0.0,0.0,-2.7084,-2.7239,0.0,0.0,0.0,0.0,0.0,0.0,0.0,0.0,0.0,0.0,0.0,0.0,0.0,0.0,0.0,0.0,0.0,0.0,0.0,0.0,-3.3504,-3.2889,-3.3005,-3.1365,-3.0267,-2.9888,-2.8709,-2.8048,-2.8048,-2.8504,-2.8835,-2.9021,-2.9477,-2.9808,-2.9994,-2.9994,-2.9994,-2.9994,-2.9994,-2.9994,-3.0015,-3.0284,-3.0408,-3.045,-3.0905,-3.136,-3.1795,-3.1926,-3.2277,-3.2669,-3.2669,-3.244,-3.2076,-3.1845,-3.1498,-3.1112,-3.1112,-3.0995,-3.0957,-3.1112,-3.0995,-3.0898,-3.0898,-3.0898,-3.0898,-3.0898,-3.0898,-3.0898,-3.0898,-3.0898,-3.0898,-3.0898,-3.0898,-3.0898,-3.0898,-3.0898,-3.0898,-3.0898,-3.0898,-3.0898,-3.0898,-3.0898,-3.0898,-3.0898,-3.0898,-3.0898,-3.0898,-3.0898,-3.0781,-3.0508,-3.0488,-3.0176,-2.9473,-2.9687,-2.9629,-2.9199,-2.9434,-2.9453,-2.9199,-2.8769,-2.8457,-2.8301,-2.8301,-2.8301,-2.4507,-2.4507,-2.459,0.0,0.0,0.0,-2.6981,-2.657,-2.6426,0.0,0.0,0.0,0.0,0.0,0.0,0.0,0.0,0.0,0.0,0.0,0.0,0.0,0.0,0.0,0.0,0.0,-3.3271,-3.3109,-3.3068,-3.1996,-2.961,-2.8986,-2.8305,-2.7499,-2.7357,-2.7309,-2.7309,-2.7696,-2.8131,-2.8545,-2.9063,-2.9518,-2.9911,-2.9973,-2.9994,-2.9994,-2.9994,-2.9994,-2.9994,-2.9994,-2.9994,-3.0036,-3.045,-3.0926,-3.1422,-3.1816,-3.2235,-3.2669,-3.2669,-3.2268,-3.1787,-3.173,-3.1344,-3.0898,-3.0898,-3.0898,-3.0898,-3.0898,-3.0898,-3.0898,-3.0898,-3.0898,-3.0898,-3.0898,-3.0898,-3.0898,-3.0898,-3.0898,-3.0898,-3.0898,-3.0898,-3.0898,-3.0898,-3.0898,-3.0898,-3.0898,-3.0898,-3.0898,-3.0898,-3.0898,-3.0898,-3.0898,-3.0898,-3.0898,-3.0898,-3.0898,-3.0898,-3.0898,-3.0898,-3.0684,-3.0215,-3.0254,-3.0078,-2.9648,-2.9704,-2.9704,-2.9704,-2.916,-2.873,-2.8359,-2.832,-2.8301,0.0,0.0,0.0,0.0,0.0,0.0,-2.5146,-2.5228,-2.5571,0.0,0.0,0.0,0.0,0.0,0.0,0.0,0.0,0.0,0.0,0.0,0.0,0.0,0.0,0.0,0.0,0.0,-3.0316,-3.1821,-3.1617,-3.0833,-2.9493,-2.8939,-2.8631,-2.8445,-2.7668,-2.7309,-2.7309,-2.7696,-2.7966,-2.8069,-2.8897,-2.9352,-2.9456,-2.9829,-2.9994,-2.9994,-2.9994,-2.9994,-2.9994,-2.9994,-2.9994,-2.9994,-3.0098,-3.0636,-3.1381,-3.1485,-3.2023,-3.2669,-3.242,-3.2133,-3.173,-3.1498,-3.117,-3.0898,-3.0898,-3.0898,-3.0898,-3.0898,-3.0898,-3.0898,-3.0898,-3.0898,-3.0898,-3.0898,-3.0898,-3.0898,-3.0898,-3.0898,-3.0898,-3.0898,-3.0898,-3.0898,-3.0898,-3.0898,-3.0898,-3.0898,-3.0898,-3.0898,-3.0898,-3.0898,-3.0898,-3.0898,-3.0898,-3.0898,-3.0898,-3.0898,-3.0898,-3.0898,-3.0898,-3.0684,-3.0215,-3.0547,-3.0547,-3.0078,-3.0078,-3.0078,-3.0078,-2.9297,-2.8887,-2.8789,-2.8457,-2.8301,0.0,0.0,0.0,-2.4776,0.0,0.0,0.0,-2.5164,-2.5144,0.0,0.0,0.0,0.0,0.0,0.0,0.0,0.0,0.0,0.0,0.0,0.0,0.0,0.0,0.0,0.0,0.0,-3.0061,-3.0178,-2.9105,-2.8324,-2.8023,-2.7764,-2.7742,-2.7977,-2.7526,-2.7309,-2.7309,-2.7489,-2.7696,-2.7924,-2.8628,-2.9083,-2.9332,-2.9787,-2.9994,-2.9994,-2.9994,-2.9994,-2.9994,-2.9994,-2.9994,-2.9994,-2.9994,-3.0429,-3.1029,-3.1029,-3.1609,-3.2318,-3.2035,-3.1893,-3.173,-3.1383,-3.1112,-3.0898,-3.0898,-3.0898,-3.0898,-3.0898,-3.0898,-3.0898,-3.0898,-3.0898,-3.0898,-3.0898,-3.0898,-3.0898,-3.0898,-3.0898,-3.0898,-3.0898,-3.0898,-3.0898,-3.0898,-3.0898,-3.0898,-3.0898,-3.0898,-3.0898,-3.0898,-3.0898,-3.0898,-3.0898,-3.0898,-3.0898,-3.0898,-3.0898,-3.0898,-3.0898,-3.0898,-3.0781,-3.0547,-3.0762,-3.0781,-3.0547,-3.0547,-3.0547,-3.0547,-2.9883,-2.9453,-2.9238,-2.8809,-2.873,0.0,0.0,0.0,0.0,0.0,-2.5138,0.0,0.0,0.0,-2.6321,0.0,0.0,0.0,0.0,0.0,0.0,0.0,0.0,0.0,0.0,0.0,0.0,0.0,0.0,0.0,0.0,-2.9952,-2.8173,-2.6708,-2.6086,-2.6459,-2.6563,-2.6791,-2.7164,-2.7268,-2.7309,-2.7309,-2.7309,-2.7448,-2.78,-2.8255,-2.8711,-2.9187,-2.9642,-2.9911,-2.9994,-2.9994,-2.9994,-2.9994,-2.9994,-2.9994,-2.9994,-2.9994,-3.0284,-3.0698,-3.0781,-3.134,-3.1952,-3.1733,-3.1714,-3.173,-3.1325,-3.1054,-3.0898,-3.0898,-3.0898,-3.0898,-3.0898,-3.0898,-3.0898,-3.0898,-3.0898,-3.0898,-3.0898,-3.0898,-3.0898,-3.0898,-3.0898,-3.0898,-3.0898,-3.0898,-3.0898,-3.0898,-3.0898,-3.0898,-3.0898,-3.0898,-3.0898,-3.0898,-3.0898,-3.0898,-3.0898,-3.0898,-3.0898,-3.0898,-3.0898,-3.0898,-3.0898,-3.0898,-3.0898,-3.0898,-3.0898,-3.0898,-3.0898,-3.0898,-3.0898,-3.0898,-3.0508,-3.0117,-2.9668,-2.9258,-2.9238,0.0,0.0,0.0,0.0,-2.6061,0.0,0.0,0.0,-2.507,-2.4827,0.0,0.0,0.0,0.0,0.0,0.0,0.0,0.0,0.0,0.0,0.0,0.0,0.0,0.0,0.0,0.0,0.0,-2.5735,-2.5802,-2.5896,-2.6003,-2.6397,-2.6646,-2.6687,-2.7102,-2.7309,-2.7309,-2.7309,-2.733,-2.7392,-2.7779,-2.8235,-2.8711,-2.9166,-2.9601,-2.9994,-2.9994,-2.9994,-2.9994,-2.9994,-2.9994,-2.9994,-2.9994,-3.0284,-3.0739,-3.1153,-3.1609,-3.1993,-3.1815,-3.1805,-3.173,-3.1112,-3.0937,-3.0898,-3.0898,-3.0898,-3.0898,-3.0898,-3.0898,-3.0898,-3.0898,-3.0898,-3.0898,-3.0898,-3.0898,-3.0898,-3.0898,-3.0898,-3.0898,-3.0898,-3.0898,-3.0898,-3.0898,-3.0898,-3.0898,-3.0898,-3.0898,-3.0898,-3.0898,-3.0898,-3.0898,-3.0898,-3.0898,-3.0898,-3.0898,-3.0898,-3.0898,-3.0898,-3.0898,-3.0898,-3.0898,-3.0898,-3.0898,-3.0898,-3.0898,-3.0898,-3.0898,-3.084,-3.0566,-3.0117,-2.9687,-2.9531,0.0,0.0,0.0,0.0,0.0,0.0,-2.5627,0.0,-2.4735,0.0,0.0,0.0,0.0,0.0,0.0,0.0,0.0,0.0,0.0,0.0,0.0,0.0,0.0,0.0,0.0,0.0,0.0,0.0,0.0,-2.5213,-2.5482,-2.5689,-2.5916,-2.621,-2.6667,-2.6895,-2.6895,-2.7164,-2.7309,-2.7309,-2.7717,-2.8173,-2.8628,-2.9083,-2.9559,-2.9994,-2.9994,-2.9994,-2.9994,-2.9994,-2.9994,-2.9994,-2.9994,-3.0118,-3.0305,-3.0512,-3.0921,-3.1318,-3.1055,-3.1231,-3.1441,-3.0995,-3.0898,-3.0898,-3.0898,-3.0898,-3.0898,-3.0898,-3.0898,-3.0898,-3.0898,-3.0898,-3.0898,-3.0898,-3.0898,-3.0898,-3.0898,-3.0898,-3.0898,-3.0898,-3.0898,-3.0898,-3.0898,-3.0898,-3.0898,-3.0898,-3.0898,-3.0898,-3.0898,-3.0898,-3.0898,-3.0898,-3.0898,-3.0898,-3.0898,-3.0898,-3.0898,-3.0898,-3.0898,-3.0898,-3.0898,-3.0898,-3.0898,-3.0898,-3.0898,-3.0898,-3.0898,-3.0898,-3.0801,-3.0586,-3.0137,-3.0078,-2.691,0.0,0.0,0.0,0.0,0.0,0.0,0.0,0.0,0.0,0.0,0.0,0.0,0.0,0.0,0.0,0.0,0.0,0.0,0.0,0.0,0.0,0.0,0.0,0.0,0.0,0.0,0.0,0.0,0.0,-2.4983,-2.5127,-2.5378,-2.5689,-2.6314,-2.6625,-2.6625,-2.7081,-2.7309,-2.7309,-2.7593,-2.7986,-2.8442,-2.8897,-2.9373,-2.9808,-2.9932,-2.9994,-2.9994,-2.9994,-2.9994,-2.9994,-2.9994,-2.9994,-3.0036,-3.0284,-3.0619,-3.0846,-3.0636,-3.0781,-3.0993,-3.0898,-3.0898,-3.0898,-3.0898,-3.0898,-3.0898,-3.0898,-3.0898,-3.0898,-3.0898,-3.0898,-3.0898,-3.0898,-3.0898,-3.0898,-3.0898,-3.0898,-3.0898,-3.0898,-3.0898,-3.0898,-3.0898,-3.0898,-3.0898,-3.0898,-3.0898,-3.0898,-3.0898,-3.0898,-3.0898,-3.0898,-3.0898,-3.0898,-3.0898,-3.0898,-3.0898,-3.0898,-3.0898,-3.0898,-3.0898,-3.0898,-3.0898,-3.0898,-3.0898,-3.0898,-3.0898,-3.0898,-3.0898,-3.0879,-3.0547,-3.0566,0.0,0.0,0.0,-2.7392,0.0,0.0,0.0,0.0,-2.5585,0.0,0.0,0.0,0.0,0.0,-2.4363,-2.3971,0.0,0.0,0.0,0.0,0.0,0.0,0.0,0.0,0.0,0.0,0.0,0.0,0.0,0.0,-2.4507,-2.4941,-2.5189,-2.521,-2.6103,-2.6625,-2.6625,-2.7081,-2.7309,-2.7309,-2.7309,-2.751,-2.7966,-2.8421,-2.8897,-2.9352,-2.9808,-2.9994,-2.9994,-2.9994,-2.9994,-2.9994,-2.9994,-2.9994,-3.0098,-3.1008,-3.1155,-3.0907,-3.1055,-3.0707,-3.0293,-3.0742,-3.0898,-3.0898,-3.0898,-3.0898,-3.0898,-3.0898,-3.0898,-3.0898,-3.0898,-3.0898,-3.0898,-3.0898,-3.0898,-3.0898,-3.0898,-3.0898,-3.0898,-3.0898,-3.0898,-3.0898,-3.0898,-3.0898,-3.0898,-3.0898,-3.0898,-3.0898,-3.0898,-3.0898,-3.0898,-3.0898,-3.0898,-3.0898,-3.0898,-3.0898,-3.0898,-3.0898,-3.0898,-3.0898,-3.0898,-3.0898,-3.0898,-3.0898,-3.0898,-3.0898,-3.0898,-3.0898,-3.0898,-3.0898,-3.0879,-3.0879,0.0,0.0,-2.7448,-2.7351,0.0,0.0,0.0,0.0,0.0,0.0,0.0,0.0,0.0,0.0,-2.4445,-2.4301,-2.4404,-2.4445,0.0,0.0,0.0,0.0,0.0,0.0,0.0,0.0,0.0,0.0,0.0,0.0,0.0,-2.4652,-2.4735,-2.4735,-2.5647,-2.6148,-2.6148,-2.6915,-2.7309,-2.7309,-2.7309,-2.7655,-2.838,-2.8545,-2.9042,-2.9766,-2.9932,-2.9994,-2.9994,-2.9994,-2.9994,-2.9994,-2.9994,-2.9994,-3.0077,-3.0483,-3.0601,-3.0616,-3.0849,-3.0838,-3.0684,-3.084,-3.0898,-3.0898,-3.0898,-3.0898,-3.0898,-3.0898,-3.0898,-3.0898,-3.0898,-3.0898,-3.0898,-3.0898,-3.0898,-3.0898,-3.0898,-3.0898,-3.0898,-3.0898,-3.0898,-3.0898,-3.0898,-3.0898,-3.0898,-3.0898,-3.0898,-3.0898,-3.0898,-3.0898,-3.0898,-3.0898,-3.0898,-3.0898,-3.0898,-3.0898,-3.0898,-3.0898,-3.0898,-3.0898,-3.0898,-3.0898,-3.0898,-3.0898,-3.0898,-3.0898,-3.0898,-3.0898,-3.0898,-3.0898,-3.0898,-3.0898,-2.7309,-2.7309,0.0,-2.7309,-2.7081,0.0,-2.6646,0.0,0.0,0.0,0.0,0.0,0.0,0.0,-2.4693,-2.4528,-2.4507,-2.4507,0.0,-2.4507,0.0,0.0,0.0,0.0,0.0,0.0,0.0,-2.4457,-2.4136,0.0,0.0,0.0,-2.4507,-2.4507,-2.542,-2.5875,-2.5875,-2.6832,-2.7309,-2.7309,-2.7309,-2.7655,-2.838,-2.8545,-2.9021,-2.9766,-2.9932,-2.9994,-2.9994,-2.9994,-2.9994,-2.9994,-2.9994,-2.9994,-3.0024,-3.0355,-3.0484,-3.0522,-3.0818,-3.0781,-3.0664,-3.084,-3.0898,-3.0898,-3.0898,-3.0898,-3.0859,-3.0684,-3.0762,-3.0859,-3.0684,-3.0762,-3.0898,-3.0898,-3.0898,-3.0898,-3.0898,-3.0898,-3.0898,-3.0898,-3.0898,-3.0898,-3.0898,-3.0898,-3.0898,-3.0898,-3.0898,-3.0898,-3.0898,-3.0898,-3.0898,-3.0898,-3.0898,-3.0898,-3.0898,-3.0898,-3.0898,-3.0898,-3.0898,-3.0898,-3.0898,-3.0898,-3.1035,-3.1348,-3.1055,-3.1035,-3.1348,-3.1035,-3.0898,-3.0898,-3.0898,-3.0898]},{"header":{"parameterUnit":"m.s-1","parameterCategory":1,"la1":30.6,"la2":29.2853,"lo1":-89.7004,"lo2":-87.6739,"dy":0.0162,"dx":0.0183,"nx":112,"ny":82,"refTime":"2023-05-09T12:00:00:Z","depth":0,"parameterNumber":3,"parameterNumberName":"V-component_of_WINDS"},"data":[0.0,0.0,0.0,0.0,0.0,0.0,0.0,0.0,0.0,0.0,0.0,0.0,0.0,0.0,0.0,0.0,0.0,0.0,0.0,0.0,0.0,0.0,0.0,0.0,0.0,0.0,0.0,0.0,0.0,0.0,0.0,0.0,0.0,0.0,0.0,0.0,0.0,0.0,0.0,0.0,0.0,0.0,0.0,0.0,0.0,0.0,0.0,0.0,0.0,0.0,0.0,0.0,0.0,0.0,0.0,0.0,0.0,0.0,0.0,0.0,0.0,0.0,0.0,0.0,0.0,0.0,0.0,0.0,0.0,0.0,0.0,0.0,0.0,0.0,0.0,0.0,0.0,0.0,0.0,0.0,0.0,0.0,0.0,0.0,0.0,0.0,0.0,0.0,0.0,0.0,0.0,2.6757,3.0997,3.3521,3.3429,3.2736,3.0623,2.6657,0.0,0.0,0.0,0.0,0.0,0.0,0.0,0.0,0.0,0.0,0.0,0.0,0.0,0.0,0.0,0.0,0.0,0.0,0.0,0.0,0.0,0.0,0.0,0.0,0.0,0.0,0.0,0.0,0.0,0.0,0.0,0.0,0.0,0.0,0.0,0.0,0.0,0.0,0.0,0.0,0.0,0.0,0.0,0.0,0.0,0.0,0.0,0.0,0.0,0.0,0.0,0.0,0.0,0.0,0.0,0.0,0.0,0.0,0.0,0.0,0.0,0.0,0.0,0.0,0.0,0.0,0.0,0.0,0.0,0.0,0.0,0.0,0.0,0.0,0.0,0.0,0.0,0.0,0.0,0.0,0.0,0.0,0.0,0.0,0.0,0.0,0.0,0.0,0.0,0.0,0.0,0.0,0.0,0.0,0.0,0.0,0.0,0.0,0.0,0.0,0.0,0.0,0.0,0.0,2.5703,3.0135,3.2872,3.4104,3.346,3.2415,3.0377,2.703,0.0,0.0,0.0,0.0,0.0,0.0,0.0,0.0,0.0,0.0,0.0,0.0,0.0,0.0,0.0,0.0,0.0,0.0,0.0,0.0,0.0,0.0,0.0,0.0,0.0,0.0,0.0,0.0,0.0,0.0,0.0,0.0,0.0,0.0,0.0,0.0,0.0,0.0,0.0,0.0,0.0,0.0,0.0,0.0,0.0,0.0,0.0,0.0,0.0,0.0,0.0,0.0,0.0,0.0,0.0,0.0,0.0,0.0,0.0,0.0,0.0,0.0,0.0,0.0,0.0,0.0,0.0,0.0,0.0,0.0,0.0,0.0,0.0,0.0,0.0,0.0,0.0,0.0,0.0,0.0,0.0,0.0,0.0,0.0,0.0,0.0,0.0,0.0,0.0,0.0,0.0,0.0,0.0,0.0,0.0,0.0,0.0,0.0,0.0,0.0,0.0,0.0,0.0,2.441,2.7088,3.1459,3.2782,3.3478,3.3817,3.2303,3.0311,2.7768,2.6678,0.0,0.0,0.0,0.0,0.0,0.0,0.0,0.0,0.0,0.0,0.0,0.0,0.0,0.0,0.0,0.0,0.0,0.0,0.0,0.0,0.0,0.0,0.0,0.0,0.0,0.0,0.0,0.0,0.0,0.0,0.0,0.0,0.0,0.0,0.0,0.0,0.0,0.0,0.0,0.0,0.0,0.0,0.0,0.0,0.0,0.0,0.0,0.0,0.0,0.0,0.0,0.0,0.0,0.0,0.0,0.0,0.0,0.0,0.0,0.0,0.0,0.0,0.0,0.0,0.0,0.0,0.0,0.0,0.0,0.0,0.0,0.0,0.0,0.0,0.0,0.0,0.0,0.0,0.0,0.0,0.0,0.0,0.0,0.0,0.0,0.0,0.0,0.0,0.0,0.0,0.0,0.0,0.0,0.0,0.0,0.0,0.0,0.0,0.0,0.0,0.0,0.0,2.6142,2.8049,3.1982,3.2536,3.2946,3.3728,3.1924,2.9959,2.8134,2.651,0.0,0.0,0.0,0.0,0.0,0.0,0.0,0.0,0.0,0.0,0.0,0.0,0.0,0.0,0.0,0.0,0.0,0.0,0.0,0.0,0.0,0.0,0.0,0.0,0.0,0.0,0.0,0.0,0.0,0.0,0.0,0.0,0.0,0.0,0.0,0.0,0.0,0.0,0.0,0.0,0.0,0.0,0.0,0.0,0.0,0.0,0.0,0.0,0.0,0.0,0.0,0.0,0.0,0.0,0.0,0.0,0.0,0.0,0.0,0.0,0.0,0.0,0.0,0.0,0.0,0.0,0.0,0.0,0.0,0.0,0.0,0.0,0.0,0.0,0.0,0.0,0.0,0.0,0.0,0.0,0.0,0.0,0.0,0.0,0.0,0.0,0.0,0.0,0.0,0.0,0.0,0.0,0.0,0.0,0.0,0.0,0.0,0.0,0.0,0.0,0.0,0.0,2.6872,2.8627,3.2044,3.2967,3.3118,3.2561,3.078,2.9068,2.7559,2.5673,0.0,0.0,0.0,0.0,0.0,0.0,0.0,0.0,0.0,0.0,0.0,0.0,0.0,0.0,0.0,0.0,0.0,0.0,0.0,0.0,0.0,0.0,0.0,0.0,0.0,0.0,0.0,0.0,0.0,0.0,0.0,0.0,0.0,0.0,0.0,0.0,0.0,0.0,0.0,0.0,0.0,0.0,0.0,0.0,0.0,0.0,0.0,0.0,0.0,0.0,0.0,0.0,0.0,0.0,0.0,0.0,0.0,0.0,0.0,0.0,0.0,0.0,0.0,0.0,0.0,0.0,0.0,0.0,0.0,0.0,0.0,0.0,0.0,0.0,0.0,0.0,0.0,0.0,0.0,0.0,0.0,0.0,0.0,0.0,0.0,0.0,0.0,0.0,0.0,0.0,0.0,0.0,0.0,0.0,0.0,0.0,0.0,0.0,0.0,0.0,0.0,0.0,2.6173,2.755,0.0,3.2306,3.2394,3.1706,3.113,2.9987,2.8081,0.0,0.0,0.0,0.0,0.0,0.0,0.0,0.0,0.0,0.0,0.0,0.0,0.0,0.0,0.0,0.0,0.0,0.0,0.0,0.0,0.0,0.0,0.0,0.0,0.0,0.0,0.0,0.0,0.0,0.0,0.0,0.0,0.0,0.0,0.0,0.0,0.0,0.0,0.0,0.0,0.0,0.0,0.0,0.0,0.0,0.0,0.0,0.0,0.0,0.0,0.0,0.0,0.0,0.0,0.0,0.0,0.0,0.0,0.0,0.0,0.0,0.0,0.0,0.0,0.0,0.0,0.0,0.0,0.0,0.0,0.0,0.0,0.0,0.0,0.0,0.0,0.0,0.0,0.0,0.0,0.0,0.0,0.0,0.0,0.0,0.0,0.0,0.0,0.0,0.0,0.0,0.0,0.0,0.0,0.0,0.0,0.0,0.0,0.0,0.0,0.0,0.0,2.5773,2.5711,2.7003,0.0,3.1909,3.176,3.1532,3.0855,2.977,2.8128,0.0,0.0,0.0,0.0,0.0,0.0,0.0,0.0,0.0,0.0,0.0,0.0,0.0,0.0,0.0,0.0,0.0,0.0,0.0,0.0,0.0,0.0,0.0,0.0,0.0,0.0,0.0,0.0,0.0,0.0,0.0,0.0,0.0,0.0,0.0,0.0,0.0,0.0,0.0,0.0,0.0,0.0,0.0,0.0,0.0,0.0,0.0,0.0,0.0,0.0,0.0,0.0,0.0,0.0,0.0,0.0,0.0,0.0,0.0,0.0,0.0,0.0,0.0,0.0,0.0,0.0,0.0,0.0,0.0,0.0,0.0,0.0,0.0,0.0,0.0,0.0,0.0,0.0,0.0,0.0,0.0,0.0,0.0,0.0,0.0,0.0,0.0,0.0,0.0,0.0,0.0,0.0,0.0,0.0,0.0,0.0,0.0,0.0,0.0,0.0,0.0,0.0,2.5773,2.5733,2.7348,3.2593,3.1924,3.1388,3.2108,2.9718,2.801,0.0,0.0,0.0,0.0,0.0,0.0,0.0,0.0,0.0,0.0,0.0,0.0,0.0,0.0,0.0,0.0,0.0,0.0,0.0,0.0,0.0,0.0,0.0,0.0,0.0,0.0,0.0,0.0,0.0,0.0,0.0,0.0,0.0,0.0,0.0,0.0,0.0,0.0,0.0,0.0,0.0,0.0,0.0,0.0,0.0,0.0,0.0,0.0,0.0,0.0,0.0,0.0,0.0,0.0,0.0,0.0,0.0,0.0,0.0,0.0,0.0,0.0,0.0,0.0,0.0,0.0,0.0,0.0,0.0,0.0,0.0,0.0,0.0,0.0,0.0,0.0,0.0,0.0,0.0,0.0,0.0,0.0,0.0,0.0,0.0,0.0,0.0,0.0,0.0,0.0,0.0,0.0,0.0,0.0,0.0,0.0,0.0,0.0,0.0,0.0,0.0,0.0,0.0,2.5931,2.6798,2.8094,3.0742,3.1297,3.0988,2.983,2.9118,2.8333,2.7295,0.0,0.0,0.0,0.0,0.0,0.0,0.0,0.0,0.0,0.0,0.0,0.0,0.0,0.0,0.0,0.0,0.0,0.0,0.0,0.0,0.0,0.0,0.0,0.0,0.0,0.0,0.0,0.0,0.0,0.0,0.0,0.0,0.0,0.0,0.0,0.0,0.0,0.0,0.0,0.0,0.0,0.0,0.0,0.0,0.0,0.0,0.0,0.0,0.0,0.0,0.0,0.0,0.0,0.0,0.0,0.0,0.0,0.0,0.0,0.0,0.0,0.0,0.0,0.0,0.0,0.0,0.0,0.0,0.0,0.0,0.0,0.0,0.0,0.0,0.0,0.0,0.0,0.0,0.0,0.0,0.0,0.0,0.0,0.0,0.0,0.0,0.0,0.0,0.0,0.0,0.0,0.0,0.0,0.0,0.0,0.0,0.0,0.0,0.0,0.0,0.0,0.0,2.6695,2.7497,2.8864,3.1684,3.1505,3.0922,3.0347,2.9221,2.8236,2.7623,0.0,0.0,0.0,0.0,0.0,0.0,0.0,0.0,0.0,0.0,0.0,0.0,0.0,0.0,0.0,0.0,0.0,0.0,0.0,0.0,0.0,0.0,0.0,0.0,0.0,0.0,0.0,0.0,0.0,0.0,0.0,0.0,0.0,0.0,0.0,0.0,0.0,0.0,0.0,0.0,0.0,0.0,0.0,0.0,0.0,0.0,0.0,0.0,0.0,0.0,0.0,0.0,0.0,0.0,0.0,0.0,0.0,0.0,0.0,0.0,0.0,0.0,0.0,0.0,0.0,0.0,0.0,0.0,0.0,0.0,0.0,0.0,0.0,0.0,0.0,0.0,0.0,0.0,0.0,0.0,0.0,0.0,0.0,0.0,0.0,0.0,0.0,0.0,0.0,0.0,0.0,0.0,0.0,0.0,0.0,0.0,0.0,0.0,0.0,0.0,0.0,0.0,2.7816,2.8177,2.9768,3.414,3.2309,3.1278,3.2441,2.971,2.8,2.8262,0.0,0.0,0.0,0.0,0.0,0.0,0.0,0.0,0.0,0.0,0.0,0.0,0.0,0.0,0.0,0.0,0.0,0.0,0.0,0.0,0.0,0.0,0.0,0.0,0.0,0.0,0.0,0.0,0.0,0.0,0.0,0.0,0.0,0.0,0.0,0.0,0.0,0.0,0.0,0.0,0.0,0.0,0.0,0.0,0.0,0.0,0.0,0.0,0.0,0.0,0.0,0.0,0.0,0.0,0.0,0.0,0.0,0.0,0.0,0.0,2.8729,0.0,0.0,0.0,0.0,0.0,0.0,0.0,0.0,0.0,0.0,0.0,0.0,0.0,0.0,0.0,0.0,0.0,0.0,0.0,0.0,0.0,0.0,0.0,0.0,0.0,0.0,0.0,0.0,0.0,0.0,0.0,0.0,0.0,0.0,0.0,0.0,0.0,0.0,0.0,0.0,0.0,2.8273,2.974,3.1152,3.2962,3.2947,3.2454,3.1611,2.98,2.8516,2.7936,2.7147,0.0,0.0,0.0,0.0,0.0,0.0,0.0,0.0,0.0,0.0,0.0,0.0,0.0,0.0,0.0,0.0,0.0,0.0,0.0,0.0,0.0,0.0,0.0,0.0,0.0,0.0,0.0,0.0,0.0,0.0,0.0,0.0,0.0,0.0,0.0,0.0,0.0,0.0,0.0,0.0,0.0,0.0,0.0,0.0,0.0,0.0,0.0,0.0,0.0,0.0,0.0,0.0,0.0,0.0,0.0,0.0,0.0,0.0,0.0,0.0,3.06,0.0,0.0,0.0,0.0,0.0,0.0,0.0,0.0,0.0,0.0,0.0,0.0,0.0,0.0,0.0,0.0,0.0,0.0,0.0,0.0,0.0,0.0,0.0,0.0,0.0,0.0,0.0,0.0,0.0,0.0,0.0,0.0,0.0,0.0,0.0,0.0,0.0,0.0,0.0,0.0,2.8558,3.0529,3.2191,3.3426,3.3465,3.3085,3.2307,3.0581,2.9364,2.8939,2.7858,0.0,0.0,0.0,0.0,0.0,0.0,0.0,0.0,0.0,0.0,0.0,0.0,0.0,0.0,0.0,0.0,0.0,0.0,0.0,0.0,0.0,0.0,0.0,0.0,0.0,0.0,0.0,0.0,0.0,0.0,0.0,0.0,0.0,0.0,0.0,0.0,0.0,0.0,0.0,0.0,0.0,0.0,0.0,0.0,0.0,0.0,0.0,0.0,0.0,0.0,0.0,0.0,0.0,3.5878,3.6746,3.7165,3.7285,3.7973,3.8871,3.5048,3.3304,3.3098,0.0,0.0,0.0,0.0,0.0,0.0,0.0,0.0,0.0,0.0,0.0,0.0,0.0,0.0,0.0,0.0,0.0,0.0,0.0,0.0,0.0,0.0,0.0,0.0,0.0,3.4269,3.3863,0.0,0.0,0.0,0.0,0.0,0.0,0.0,0.0,0.0,0.0,0.0,0.0,2.9305,3.1152,3.2903,3.4506,3.4167,3.3672,3.3423,3.163,3.0378,3.0142,2.8635,2.7858,0.0,0.0,0.0,0.0,0.0,0.0,0.0,0.0,0.0,0.0,0.0,0.0,0.0,0.0,0.0,0.0,0.0,0.0,0.0,0.0,0.0,0.0,0.0,0.0,0.0,0.0,0.0,0.0,0.0,0.0,0.0,0.0,3.0073,2.9532,0.0,0.0,0.0,0.0,0.0,0.0,0.0,0.0,0.0,0.0,0.0,0.0,0.0,3.4771,3.6477,3.7789,3.8506,3.8661,3.9978,4.0367,3.9918,4.0487,4.1183,4.1811,4.0613,0.0,3.5963,3.4151,0.0,0.0,0.0,0.0,0.0,0.0,0.0,0.0,0.0,0.0,0.0,0.0,0.0,0.0,0.0,0.0,0.0,0.0,0.0,0.0,0.0,0.0,3.5295,3.5295,3.5363,3.5329,0.0,3.2697,3.0701,3.0089,0.0,0.0,0.0,0.0,0.0,0.0,0.0,0.0,3.1537,3.2097,3.3106,3.5228,3.5363,3.4788,3.3525,3.2544,3.1481,3.0176,2.8635,2.8094,2.8807,2.7453,0.0,0.0,0.0,0.0,0.0,0.0,0.0,0.0,0.0,0.0,0.0,0.0,0.0,0.0,0.0,0.0,0.0,0.0,0.0,0.0,0.0,0.0,0.0,0.0,0.0,0.0,0.0,0.0,0.0,3.112,3.1809,3.0791,3.1569,3.139,0.0,0.0,0.0,0.0,0.0,0.0,0.0,0.0,0.0,3.7315,3.8003,3.8996,4.0224,4.1504,4.2342,4.2731,4.4077,4.4766,4.4855,4.5125,4.5645,4.6214,4.4766,4.3159,4.1258,3.7777,3.5666,3.4538,0.0,0.0,0.0,0.0,3.6051,3.7062,3.7859,3.8421,0.0,0.0,0.0,0.0,0.0,0.0,0.0,0.0,0.0,0.0,0.0,0.0,0.0,3.8034,3.8125,3.8024,3.7618,3.5825,3.402,0.0,3.1922,3.112,3.0388,0.0,0.0,0.0,0.0,0.0,3.1247,3.2251,3.3457,3.4844,3.4979,3.4709,3.4066,3.3322,3.2476,3.1393,2.9939,2.9244,2.96,2.857,2.7943,0.0,0.0,0.0,0.0,0.0,0.0,0.0,0.0,0.0,0.0,0.0,0.0,0.0,0.0,0.0,0.0,0.0,0.0,0.0,0.0,0.0,0.0,0.0,0.0,0.0,0.0,0.0,0.0,3.2886,3.3784,3.2437,3.3754,3.3664,0.0,0.0,0.0,0.0,0.0,0.0,3.6926,3.8242,3.9768,4.1594,4.2462,4.3339,4.4178,4.5274,4.6172,4.683,4.7489,4.8147,4.8775,4.8626,4.885,4.9239,4.7728,4.6591,4.5484,4.1175,3.8594,3.7304,3.7064,3.7062,3.7284,3.8163,3.9325,4.0624,4.1687,4.2275,4.2567,4.2366,0.0,4.0466,3.8458,0.0,0.0,0.0,0.0,3.6744,3.747,3.8578,3.9749,4.0442,4.0502,4.0223,3.9681,3.8531,3.71,0.0,3.432,3.3517,3.2246,0.0,0.0,0.0,0.0,3.1699,3.16,3.2816,3.3964,3.4709,3.4776,3.4709,3.4506,3.3829,3.3085,3.2361,3.092,3.0156,3.0378,2.9484,2.8789,2.8398,0.0,0.0,0.0,0.0,0.0,0.0,0.0,0.0,0.0,0.0,0.0,0.0,0.0,0.0,0.0,0.0,0.0,0.0,0.0,0.0,0.0,0.0,0.0,0.0,0.0,0.0,0.0,0.0,0.0,3.4503,3.6596,0.0,0.0,0.0,0.0,3.6178,3.8571,4.0307,4.1055,4.2372,4.3688,4.5005,4.6322,4.7608,4.894,4.9583,5.0226,5.09,4.9733,4.9523,5.0076,4.9494,4.9269,4.9299,4.9209,4.8386,4.695,4.3609,4.1033,3.9176,3.8557,3.8412,3.8681,4.004,4.1526,4.3043,4.4408,4.4478,4.414,4.5477,4.4537,4.2618,4.1211,4.0288,0.0,0.0,3.9851,3.9995,4.0617,4.0905,4.1219,4.1829,4.1572,4.1136,4.1102,4.046,3.9063,0.0,3.4957,3.4416,3.4336,0.0,3.3199,3.3165,3.3233,3.3558,3.4213,3.4404,3.4742,3.5464,3.5532,3.5284,3.4539,3.3829,3.3085,3.2361,3.092,3.0412,3.1123,2.9754,2.9314,2.9954,2.9296,0.0,0.0,0.0,0.0,0.0,0.0,0.0,0.0,0.0,0.0,0.0,0.0,0.0,0.0,0.0,0.0,0.0,0.0,0.0,0.0,0.0,0.0,0.0,0.0,0.0,0.0,0.0,0.0,3.9026,4.1235,0.0,3.8841,3.923,3.9835,4.0284,4.1923,4.3778,4.5723,4.6681,4.7967,4.9673,4.9793,5.0242,5.1139,5.096,5.1199,5.1858,5.1379,5.1289,5.1498,5.1259,5.093,5.0511,5.0092,4.9374,4.8446,4.6873,4.478,4.2477,4.1815,4.1581,4.1716,4.2714,4.4058,4.5536,4.6485,4.7111,4.7291,4.6483,4.5042,4.3471,4.2518,4.2295,4.2206,4.1297,4.1418,4.1854,4.2177,4.2415,4.2692,4.3489,4.3172,4.2489,4.2016,4.1339,4.0358,3.8802,3.7516,3.6535,3.6084,3.5318,3.4822,3.4822,3.525,3.5487,3.525,3.5216,3.5318,3.5566,3.5182,3.4979,3.5216,3.41,3.3288,3.3017,3.163,3.092,3.119,3.0702,3.0311,3.0108,2.9837,2.9465,0.0,0.0,0.0,0.0,0.0,0.0,0.0,0.0,0.0,0.0,0.0,0.0,0.0,0.0,0.0,0.0,0.0,0.0,0.0,0.0,0.0,0.0,0.0,0.0,0.0,0.0,4.306,4.306,4.5364,4.5933,4.3299,4.3658,4.4317,4.4975,4.6441,4.8177,5.0182,5.09,5.1768,5.2845,5.2665,5.2665,5.2875,5.2456,5.2546,5.3204,5.2755,5.2546,5.2516,5.2306,5.1828,5.1199,5.0704,5.0182,4.9553,4.8895,4.749,4.5576,4.4664,4.4335,4.4481,4.5204,4.6475,4.7893,4.8434,4.9051,4.9261,4.7128,4.576,4.486,4.4152,4.4252,4.4423,4.3456,4.3551,4.4006,4.4097,4.4212,4.4422,4.4772,4.4322,4.3606,4.2828,4.2083,4.1339,4.0595,3.9276,3.8125,3.7642,3.6907,3.6377,3.6377,3.684,3.6975,3.6445,3.6163,3.5994,3.5994,3.5318,3.4979,3.5216,3.4336,3.3558,3.3051,3.2104,3.1481,3.119,3.119,3.0954,3.048,3.048,3.0243,2.9754,0.0,0.0,0.0,0.0,0.0,0.0,0.0,0.0,0.0,0.0,0.0,0.0,0.0,0.0,0.0,0.0,0.0,0.0,0.0,0.0,0.0,0.0,0.0,4.0397,4.3958,4.6429,4.6518,4.882,4.9359,4.6817,4.8327,4.9703,5.0285,5.2187,5.3593,5.4281,5.491,5.497,5.4341,5.491,5.491,5.4251,5.4221,5.4521,5.5149,5.3832,5.3204,5.3144,5.2516,5.1858,5.1229,5.1229,5.084,5.0106,4.9523,4.891,4.8117,4.686,4.6444,4.6656,4.7382,4.867,5.0042,5.0208,5.0253,4.9889,4.7703,4.6974,4.6873,4.6234,4.6188,4.6374,4.6344,4.6431,4.6488,4.6334,4.6394,4.6279,4.5572,4.5009,4.435,4.3578,4.2861,4.2117,4.1339,4.0054,3.9039,3.9039,3.843,3.799,3.799,3.799,0.0,3.7956,3.7313,3.6863,3.6829,3.6129,3.5363,3.4607,3.4539,3.3884,3.2429,3.2293,3.1955,3.1224,3.119,3.119,3.119,3.119,3.119,3.1224,0.0,0.0,0.0,0.0,0.0,0.0,0.0,0.0,0.0,0.0,0.0,0.0,0.0,0.0,0.0,0.0,0.0,0.0,0.0,0.0,0.0,0.0,4.4287,4.4646,4.7236,4.9837,5.1798,5.3533,5.4072,5.2875,5.3234,5.3623,5.3803,5.476,5.5837,5.6974,5.6735,5.6705,5.7034,5.6286,5.5598,5.494,5.4431,5.4311,5.4491,5.4102,5.3653,5.3174,5.2995,5.2306,5.1229,5.1229,5.0571,4.9523,4.9389,4.864,4.7605,4.7855,4.7967,4.8101,4.8903,4.9864,5.0923,5.1562,5.1446,5.0783,4.9657,4.8928,4.8365,4.7668,4.7564,4.7591,4.7091,4.7049,4.7069,4.6559,4.5992,4.5555,4.5442,4.4894,4.4181,4.344,4.3185,4.2726,4.1441,4.0865,4.0426,3.991,3.9639,3.9503,3.9503,3.9503,0.0,3.8768,3.8497,3.8193,3.7652,3.7415,3.6975,3.622,3.5137,3.41,3.3152,3.207,3.1393,3.119,3.119,3.119,3.119,3.119,3.1481,0.0,0.0,0.0,0.0,0.0,0.0,0.0,0.0,0.0,0.0,0.0,0.0,0.0,0.0,0.0,0.0,0.0,0.0,0.0,0.0,0.0,0.0,4.5442,4.8581,5.0571,5.2157,5.3803,5.5628,5.7004,5.7543,5.6885,5.7094,5.7244,5.7244,5.7872,5.8441,5.8919,5.856,5.8291,5.8141,5.7393,5.6526,5.5598,5.5209,5.491,5.461,5.461,5.4251,5.3593,5.3324,5.2606,0.0,5.1349,5.0631,4.9643,4.9419,4.87,0.0,0.0,0.0,0.0,0.0,4.9638,5.0119,5.0671,5.0794,5.0591,4.9538,4.9154,4.8961,4.8233,4.8065,4.8129,4.7665,4.7628,4.7653,4.7312,4.6907,4.6468,4.595,4.563,4.5081,4.4007,4.3855,4.3538,4.2354,0.0,0.0,4.0696,4.0316,4.0113,4.0113,4.0113,3.9943,3.9537,3.9174,3.8836,3.8396,3.7821,3.711,3.6366,3.5487,0.0,0.0,0.0,3.2442,3.2138,3.2104,0.0,0.0,0.0,3.2341,0.0,0.0,0.0,0.0,3.1935,3.1901,0.0,0.0,0.0,0.0,0.0,0.0,0.0,0.0,0.0,0.0,0.0,0.0,0.0,0.0,0.0,0.0,4.9149,5.2516,5.6825,5.7573,5.7872,5.8411,5.9488,5.9967,5.9398,5.9847,6.0206,6.0206,6.0775,6.0835,6.0236,0.0,0.0,0.0,0.0,5.7633,5.6406,5.6368,5.5957,5.5299,5.5239,5.485,5.4192,5.3503,5.2815,5.2157,5.1498,5.0764,5.0046,4.9494,4.888,4.8161,4.7735,4.7624,4.7807,4.8615,4.8913,0.0,0.0,0.0,0.0,4.855,4.8582,4.9094,4.8266,4.8065,4.8163,4.8066,4.8098,4.8227,4.8227,4.8289,4.8046,4.6891,4.6604,4.6283,4.4964,4.4621,4.435,4.3572,4.2861,4.2151,4.1339,4.0595,4.0113,4.0113,4.0113,4.0113,4.0113,3.9537,3.9106,3.9106,0.0,0.0,3.5938,3.5701,3.4991,3.3626,3.4066,3.4066,3.3423,3.3423,3.3423,3.3423,3.3423,3.3457,3.3525,3.3525,3.3558,3.366,3.3491,3.3423,0.0,0.0,0.0,0.0,0.0,0.0,0.0,0.0,0.0,0.0,0.0,0.0,0.0,0.0,0.0,4.9673,5.3354,5.6645,5.9159,6.0446,6.0984,6.0595,6.0775,6.0864,6.0745,6.0835,6.0924,6.0924,6.1044,6.1044,6.0924,6.0386,0.0,5.9727,5.9189,5.853,5.7752,5.7184,5.6615,5.5987,0.0,0.0,5.4192,5.3503,5.2815,5.2157,5.1498,5.0541,4.9464,4.9359,4.8566,4.7589,4.8852,4.9757,5.0416,5.057,5.1065,5.1549,5.0865,5.1206,5.1696,5.021,4.9852,4.9756,4.8398,4.8065,0.0,4.8163,4.8292,4.8452,4.8452,4.7922,4.7389,4.7245,4.6334,4.5454,4.5269,4.4907,4.435,4.3572,4.3274,4.2733,4.1441,4.0595,4.0113,4.0113,4.0113,4.0113,4.0113,3.9977,3.991,3.991,3.9097,3.8261,3.7516,3.6309,3.5228,3.4336,3.3863,3.3558,3.3423,3.3423,3.3423,3.3423,3.3423,3.3694,3.4269,3.4269,3.4607,3.516,3.3943,3.3423,0.0,0.0,0.0,0.0,0.0,0.0,0.0,0.0,0.0,0.0,0.0,4.1474,0.0,0.0,5.0331,5.3623,5.6645,5.9189,6.0864,6.1942,6.2331,6.1672,6.1912,6.2091,6.2091,6.2091,6.2091,6.2091,6.2091,6.1942,6.1613,6.0954,6.0446,6.0086,5.9458,5.88,5.8141,5.7453,5.6944,5.6615,5.5658,5.5179,5.5149,5.4162,5.3324,5.2665,5.2007,5.096,4.9703,4.9045,4.8207,4.7409,4.8708,4.9197,4.9197,4.9197,4.9757,5.0422,4.9994,5.0685,5.1499,5.0023,4.9844,4.9922,4.8465,4.8066,4.8131,4.8131,4.8163,4.8227,4.8227,4.8025,4.7786,4.7448,4.6697,4.5938,4.5626,4.5037,4.4479,4.4079,4.3673,4.3172,4.2429,4.1373,4.0553,4.018,4.0113,4.0113,4.0113,4.0113,4.0113,4.0113,3.9436,3.87,3.7956,3.6479,3.543,3.5081,3.4687,3.4484,3.4484,3.4484,3.4484,3.4484,3.4484,3.4687,3.5047,3.5047,3.525,3.5566,3.4822,3.4484,0.0,0.0,0.0,0.0,0.0,0.0,0.0,0.0,3.9709,4.1713,4.3778,4.6112,4.8925,5.1588,5.4311,5.7214,5.9249,6.0894,6.2121,6.275,6.2869,6.2361,6.275,6.3079,6.3079,6.3079,6.3079,6.3079,6.3079,6.272,6.1942,6.1403,6.0745,5.9907,5.9368,5.886,5.8321,5.7513,5.7094,5.7064,5.5807,5.5478,5.5927,5.461,5.3713,5.3144,5.2217,5.1139,4.9972,4.8775,4.7908,4.7396,4.8061,4.7934,4.7309,4.7495,4.8198,4.9035,4.8738,4.9678,5.087,4.9544,4.9586,4.9915,4.8597,4.8233,4.8199,4.8034,4.8001,4.8001,4.8001,4.8228,4.8286,4.7747,4.7258,4.6794,4.6249,4.5534,4.4987,4.4852,4.4282,4.3747,4.3443,4.2395,4.1339,4.0451,4.018,4.0113,4.0113,4.0113,4.0113,4.0113,3.9436,3.8633,3.7753,3.6569,3.5769,3.56,3.56,3.56,3.56,3.56,3.56,3.56,3.56,3.56,3.56,3.56,3.56,3.56,3.56,3.56,3.54,3.528,3.5938,3.8182,3.8452,3.9409,0.0,0.0,4.5903,4.7878,5.0301,5.2366,5.3354,5.5688,5.7962,5.9488,6.0954,6.2121,6.2869,6.3019,6.3049,6.2989,6.3019,6.3079,6.3079,6.3079,6.3079,6.3079,6.3079,6.254,6.1283,6.1164,6.0535,5.9249,5.9129,5.9069,5.9009,5.7723,5.7094,5.7064,5.5807,5.5239,5.5269,5.3922,5.3264,5.3084,5.1259,5.0032,4.9359,4.8596,4.7908,4.7309,4.7439,4.7396,4.7366,4.8187,4.9439,5.0608,4.9116,4.9678,5.0973,5.0126,4.9941,4.9896,4.9189,4.8995,4.8829,4.8199,4.8001,4.8001,4.8001,4.8033,4.8098,4.8319,4.7845,4.7402,4.7609,4.709,4.6346,4.5703,4.55,4.5026,4.3612,4.324,4.2692,4.1305,4.0493,4.0113,4.0113,4.0113,4.0113,4.0113,3.9436,3.843,3.7032,3.6761,3.6366,3.5633,3.56,3.56,3.56,3.56,3.56,3.56,3.56,3.56,3.56,3.56,3.56,3.56,3.56,3.56,3.7375,3.7764,3.8721,4.0187,4.2073,4.4347,4.7369,4.8925,5.0301,5.2306,5.4491,5.6256,5.6944,5.8919,6.0625,0.0,6.2061,6.275,6.3049,6.275,6.2061,6.0894,6.1104,6.1792,6.2959,6.3079,6.3079,6.3079,6.272,6.2271,6.1702,6.0954,6.0266,5.9697,5.9308,5.8919,5.853,5.7962,5.7693,5.7693,5.6376,5.5957,5.6256,5.494,5.3922,5.3084,5.1498,5.0212,4.9299,4.903,4.8237,4.7309,4.7309,4.7309,4.7352,4.7709,4.8872,5.0229,4.9527,5.0422,5.174,5.1018,5.0755,5.0626,4.9952,4.9756,4.9591,4.8862,4.8663,4.8531,4.81,4.8066,4.813,4.8292,4.7914,4.7533,4.772,4.7267,4.6718,4.638,4.6007,4.55,4.4857,4.3984,4.3172,4.2564,4.1508,4.073,4.073,4.0383,4.0113,4.0113,3.9436,3.8734,3.8125,3.7686,3.711,3.6332,3.6299,3.6096,3.5633,3.56,3.56,3.56,3.56,3.56,3.56,3.56,3.56,3.56,3.56,3.56,3.8811,4.0038,4.1803,4.3249,4.6112,4.9134,5.099,5.2665,5.4401,5.6406,5.8112,5.9428,6.0086,6.1224,6.2151,6.2331,6.26,6.2869,6.3049,6.2181,6.0924,5.9308,5.9189,5.9817,6.1283,6.1942,6.2331,6.251,6.2271,6.1942,6.1553,6.0805,6.0206,5.9817,5.9338,5.889,5.8411,5.8022,5.7842,5.7812,5.6526,5.6137,5.6526,5.5418,5.4192,5.2845,5.1708,5.0481,4.9299,4.912,4.8327,4.7309,4.7309,4.7482,4.7666,4.7666,4.8449,4.9447,4.9447,5.0461,5.1631,5.1355,5.1227,5.113,5.0648,5.0518,5.0353,4.9624,4.9425,4.9293,4.8763,4.853,4.843,4.8495,4.812,4.7804,4.7897,4.7615,4.7331,4.7158,4.6684,4.6177,4.5771,4.479,4.3978,4.3775,4.2625,4.1677,4.1271,4.0561,4.0113,4.0113,3.9639,3.9208,3.9005,3.8497,3.7889,3.7168,3.6931,3.6535,3.596,3.5701,3.56,3.56,3.56,3.56,3.56,3.56,3.56,3.56,3.56,3.56,3.9409,4.1743,4.4975,4.8251,5.0541,5.2905,5.6107,5.7423,5.8501,6.0535,6.1493,6.2181,6.2839,6.248,6.2301,6.2929,6.254,6.2361,6.2989,6.1373,5.9877,5.9189,5.7962,5.7214,0.0,5.9039,6.0446,6.1134,6.1732,6.1523,6.0206,6.0745,6.0475,5.9189,5.9129,5.9099,5.9069,5.7782,5.7124,5.7124,5.5837,5.5239,5.5209,5.4551,5.3503,5.2187,5.1498,5.0481,4.9269,4.8566,4.7908,4.7309,4.7309,4.7807,4.8573,4.8573,4.8615,4.8656,4.8656,4.9197,5.0002,5.0843,5.1107,5.116,5.1234,5.1282,5.1082,5.0386,5.0187,5.0187,5.0154,4.9624,4.9094,4.926,4.8727,4.829,4.8673,4.8767,4.8562,4.8007,4.7838,4.7365,4.5974,4.5669,4.5399,4.4682,4.3876,4.2801,4.1373,4.0561,4.0113,4.0113,4.0079,3.9774,3.9039,3.8971,3.8633,3.7922,3.7202,3.6795,3.6761,3.6028,3.56,3.56,3.56,3.56,3.56,3.56,3.56,3.56,3.56,3.56,4.2192,4.5095,4.8386,5.1708,5.4341,5.6765,5.9219,6.0266,6.0835,6.1074,6.0565,5.9787,5.868,5.8321,5.853,5.9608,6.0326,6.1164,6.2271,6.1463,5.9548,5.6256,5.6585,0.0,0.0,0.0,0.0,6.0356,6.0625,6.0775,6.0775,6.0565,6.0236,5.9757,5.9338,5.889,5.8471,5.8441,5.7992,5.7094,5.6226,5.5388,5.4521,5.3832,5.3054,5.2157,5.1498,5.0481,4.9299,4.909,4.8297,4.7309,4.7309,4.7807,4.8615,4.8615,4.8953,4.9447,5.0073,5.0838,5.1582,5.1871,5.1944,5.1984,5.2004,5.2045,5.1879,5.1115,5.0916,5.0817,5.0353,5.0021,4.9723,4.926,4.9427,4.9492,4.8748,4.9076,4.9306,4.8751,4.824,4.7736,4.7259,4.6346,4.5466,4.4716,4.391,4.2868,4.1407,4.0967,4.0629,4.0146,4.0113,4.0011,3.9774,3.974,3.9436,3.8667,3.7922,3.7313,3.6829,3.6028,3.56,3.56,3.56,3.56,3.56,3.56,3.56,3.56,3.56,3.56,4.5603,4.8865,5.2187,5.5478,5.7932,5.9937,6.1463,6.1972,6.1702,6.0326,5.8979,5.7393,5.5179,5.4162,5.4281,5.6077,5.6885,5.8141,6.0685,5.9847,5.8052,5.5538,5.5718,5.5239,0.0,0.0,0.0,5.9249,5.9817,6.0266,6.0715,6.0565,6.0326,6.0086,5.9458,5.889,5.8471,5.865,5.8082,5.6765,5.6428,5.5598,5.4551,5.3862,5.3174,5.2486,5.1349,5.0272,4.9269,4.8745,4.8057,4.7309,4.7309,4.8019,4.9035,4.9035,4.9757,5.0767,5.1027,5.1471,5.198,5.2302,5.2409,5.2409,5.2409,5.2409,5.231,5.1846,5.1713,5.158,5.1115,5.0783,5.0485,4.9988,5.0123,5.0025,4.899,4.9286,4.9547,4.9029,4.8551,4.821,4.7939,4.6684,4.5534,4.506,4.4316,4.3301,4.1779,4.1136,4.0629,4.0146,4.0113,4.0113,4.0113,4.0113,3.991,3.9436,3.87,3.8091,3.7608,3.684,3.6276,3.6028,3.6028,3.5893,3.56,3.56,3.56,3.56,3.56,3.56,4.9418,5.2935,5.6226,5.9428,6.1164,6.2241,6.2839,6.2391,6.1074,5.8381,5.6705,5.491,0.0,0.0,4.9988,5.2606,5.2665,5.4012,5.856,5.7064,5.5897,0.0,0.0,0.0,0.0,0.0,0.0,5.7992,0.0,6.0027,6.0086,6.0745,6.0805,6.0116,5.9458,5.9099,5.9099,5.8471,5.7483,5.6278,5.6248,5.5777,5.5059,5.4431,5.3743,5.2935,5.105,4.9853,4.9179,4.7921,4.7382,4.7396,4.7409,4.8449,4.9844,4.9844,5.0919,5.2302,5.1471,5.1172,5.1322,5.2125,5.2409,5.2409,5.2409,5.2409,5.2409,5.2409,5.2409,5.2409,5.2409,5.1879,5.1348,5.1315,5.0783,5.0122,4.946,4.9491,4.9486,4.8906,4.8925,4.8781,4.8007,4.6718,4.5737,4.5703,4.5026,4.4005,4.2489,4.1094,4.018,4.0113,4.0113,4.0113,4.0113,4.0113,4.0113,4.0113,3.9436,3.9005,3.9005,3.8294,3.7584,3.6863,3.6863,3.6468,3.5667,3.5667,3.5633,3.56,3.56,3.56,5.3563,5.6705,5.9398,6.1732,6.2211,6.2002,6.1672,5.9937,5.7483,5.4341,5.1498,4.8596,0.0,0.0,0.0,5.0481,5.3324,0.0,6.0086,6.0027,0.0,5.7304,0.0,5.7094,5.5119,5.6705,0.0,0.0,5.871,5.9069,6.0027,6.0745,6.0805,6.0116,5.9458,5.9099,5.9099,5.8471,5.7693,5.6855,5.6376,5.5349,5.3683,5.3503,5.2546,5.096,5.0405,4.9583,4.855,4.8857,4.8657,4.8324,4.8913,4.9837,5.08,5.08,5.1471,5.2373,5.2158,5.2053,5.2122,5.2338,5.2409,5.2409,5.2409,5.2409,5.2409,5.2409,5.2409,5.2409,5.2409,5.2277,5.1978,5.1448,5.158,5.1383,4.966,4.9892,5.009,4.9007,4.8925,4.8781,4.8007,4.7124,4.6346,4.5805,4.4587,4.3369,4.2422,4.1948,4.1331,4.0214,4.0113,4.0113,4.0113,4.0113,4.0113,4.0113,3.9436,3.9005,3.9005,3.8294,3.7821,3.7618,3.7618,3.7246,3.6468,3.6468,3.6197,3.56,3.56,3.56,5.7334,5.9847,6.1732,6.3139,6.257,6.1194,5.9368,5.7094,5.4102,4.9643,4.683,4.4227,4.1212,4.1773,0.0,0.0,0.0,0.0,5.8351,5.9189,5.9219,0.0,5.9249,0.0,5.7483,5.8411,5.9338,0.0,5.9638,5.9757,6.0505,6.1164,6.1224,6.0565,5.9877,5.9398,5.9099,5.874,5.8052,5.7094,5.6735,5.5538,5.3623,5.3324,5.2426,5.1033,0.0,4.9673,4.876,4.923,4.9237,4.9088,4.9864,5.0731,5.1556,5.1556,5.1917,5.2409,5.2409,5.2409,5.2409,5.2409,5.2409,5.2409,5.2409,5.2409,5.2409,5.2409,5.2409,5.2409,5.2409,5.2409,5.231,5.1879,5.2111,5.1914,5.0159,5.0259,5.0357,4.9102,4.8956,4.8883,4.8477,4.7767,4.7022,4.6278,4.5196,4.4045,4.2929,4.2219,4.1508,4.0663,4.0282,4.0113,4.0113,4.0113,4.0113,4.0113,3.9706,3.9503,3.9503,3.9073,3.87,3.8396,3.8396,3.7855,3.6795,3.6795,3.6592,3.6129,3.6129,3.6299,6.0745,6.248,6.3438,6.3887,6.2421,5.9967,5.6675,5.4012,5.0661,4.4975,4.2671,4.0943,3.8332,3.8631,4.018,4.308,0.0,5.0331,5.5807,5.7034,5.8291,6.0805,6.0655,6.0296,6.0116,5.9817,6.0086,6.1164,6.1313,6.1253,6.0984,6.1702,6.1762,6.1014,6.0386,5.9757,5.9129,5.9009,5.8351,5.7094,5.7004,5.5987,5.4192,5.3503,5.2785,5.2007,0.0,0.0,4.9299,4.9434,4.9661,4.9965,5.068,5.1593,5.2492,5.2492,5.2519,5.2506,5.2506,5.244,5.2409,5.2409,5.2409,5.2409,5.2409,5.2409,5.2409,5.2409,5.2409,5.2409,5.2409,5.2409,5.2409,5.2409,5.2409,5.2047,5.0691,5.046,5.0188,4.9193,4.9018,4.9018,4.9018,4.8409,4.7699,4.7022,4.6244,4.5229,4.3882,4.232,4.1305,4.1204,4.0527,4.0113,4.0113,4.0113,4.0113,4.0113,4.0113,4.0113,4.0113,4.0113,3.9808,3.914,3.914,3.8488,3.71,3.71,3.7032,3.6965,3.6965,3.728,6.3617,6.4515,6.4575,6.4126,6.1702,5.859,5.5299,5.09,0.0,4.1953,3.9589,3.7614,3.5582,3.7015,3.9978,4.4257,4.7279,5.1319,5.7693,5.868,5.9338,0.0,6.1493,6.1313,6.0206,0.0,0.0,0.0,0.0,6.2002,6.0356,6.1433,6.1523,6.0296,6.0146,5.9757,5.9129,5.856,5.7902,5.7094,5.6585,5.5598,5.4192,5.3503,5.2516,5.1349,0.0,0.0,4.9344,5.0039,5.0739,5.1609,5.2388,5.3298,5.4072,5.4072,5.3754,5.3235,5.3235,5.287,5.2409,5.2409,5.2409,5.2409,5.2409,5.2409,5.2409,5.2409,5.2409,5.2409,5.2409,5.2409,5.2409,5.2409,5.2409,5.2047,5.0691,4.9756,4.9104,4.9021,4.9018,4.9018,4.9018,4.8409,4.7838,4.7733,4.6583,4.5602,4.5331,4.3436,4.188,4.1271,4.0527,4.0113,4.0113,4.0113,4.0113,4.0113,4.0113,4.0113,4.0113,4.0113,4.0045,3.991,3.991,3.9503,3.8599,3.8599,3.8294,3.7719,3.7719,3.7787,6.4575,6.5263,6.5383,6.4695,6.1253,5.6944,5.2606,0.0,0.0,3.8751,3.7075,3.6118,3.519,3.6866,3.9349,4.2282,4.4975,4.8865,5.5149,5.6615,5.8201,6.1253,6.2211,6.2361,0.0,0.0,0.0,0.0,0.0,6.251,6.1194,6.1433,6.1283,6.0655,6.0266,5.9757,5.9129,5.8471,5.7782,5.7094,5.6466,5.5478,5.4192,5.3503,5.2665,5.1678,5.0973,0.0,4.9838,5.0548,5.1493,5.2574,5.3328,5.4233,5.5052,5.5052,5.4357,5.34,5.34,5.297,5.2409,5.2409,5.2409,5.2409,5.2409,5.2409,5.2409,5.2409,5.2409,5.2409,5.2409,5.2409,5.2409,5.248,5.2357,5.1963,5.0928,5.005,4.9364,4.9055,4.9018,4.9018,4.9018,4.8714,4.8342,4.7939,4.6989,4.6143,4.5771,4.4045,4.276,4.2361,4.1339,4.0663,4.0663,4.0316,4.0113,4.0113,4.0113,4.0113,4.0113,4.0113,4.0113,4.0113,4.0113,3.974,3.9005,3.9005,3.8802,3.8464,3.8464,3.8667,6.4814,6.5503,6.5742,6.4665,6.0505,5.5299,5.0062,4.5316,4.0763,3.6387,3.5519,3.5459,3.531,3.6656,3.8332,4.0098,4.2252,4.5813,5.1887,5.4162,5.6765,0.0,6.2421,0.0,0.0,0.0,0.0,0.0,0.0,0.0,6.2331,6.1553,6.1104,6.1104,6.0446,5.9757,5.9129,5.8291,5.7633,5.7094,5.6316,5.5418,5.4401,5.3563,5.2905,5.2366,5.1558,0.0,0.0,5.0973,5.1984,5.326,5.3755,5.4744,5.5852,5.5648,5.4754,5.3596,5.3467,5.297,5.2409,5.2409,5.2409,5.2409,5.2409,5.2409,5.2409,5.2409,5.2409,5.2409,5.2409,5.2409,5.2445,5.2553,5.2367,5.1933,5.1361,5.075,5.0168,4.9593,4.9357,4.9255,4.9255,4.912,4.8815,4.821,4.753,4.6819,4.6244,4.4857,4.3882,4.3882,4.2422,4.1373,4.1204,4.0663,4.0282,4.0113,4.0113,4.0113,4.0113,4.0113,4.0113,4.0113,4.0113,3.9808,3.9242,3.9242,3.9242,3.9242,3.9242,3.9571,6.4695,6.5503,6.5413,6.2989,5.883,5.3982,4.8686,0.0,3.9619,3.6207,3.5519,3.531,3.4713,3.522,3.6776,3.9888,4.1115,4.3928,5.0481,5.3593,5.6226,5.9039,0.0,0.0,0.0,0.0,0.0,0.0,0.0,0.0,6.2959,6.1792,6.1104,6.1104,6.0446,5.9757,5.9129,5.7842,5.7154,5.7094,5.5867,5.5209,5.5059,5.3773,5.3144,5.3025,0.0,0.0,0.0,5.1199,5.226,5.3882,5.3976,5.5076,5.6514,5.5852,5.5085,5.4328,5.3632,5.297,5.2409,5.2409,5.2409,5.2409,5.2409,5.2409,5.2409,5.2409,5.2409,5.2409,5.2409,5.2409,5.2445,5.2553,5.2367,5.2102,5.2001,5.1526,5.1082,5.0982,5.0473,4.9999,4.9999,4.9424,4.8984,4.8917,4.8274,4.777,4.7703,4.6413,4.55,4.55,4.3504,4.1914,4.1271,4.1136,4.0798,4.0146,4.0113,4.0113,4.0113,4.0113,4.0113,4.0113,4.0113,4.0079,4.0011,4.0011,4.0011,4.0011,4.0011,4.0045,6.3737,6.5203,6.5562,6.3707,5.856,5.2905,4.8835,0.0,3.8482,3.6028,3.5519,3.5429,3.516,3.531,3.6058,3.7764,3.8272,4.0337,4.5753,4.8087,5.1259,5.6705,5.8979,0.0,0.0,0.0,0.0,0.0,0.0,0.0,6.248,6.1224,6.0505,6.0505,5.9847,5.9189,5.853,5.7573,5.6915,5.6526,5.5628,5.5179,5.5149,5.3803,5.3174,5.3114,0.0,0.0,0.0,5.1229,5.1957,5.3196,5.3762,5.4521,5.5293,5.5529,5.4821,5.3798,5.35,5.297,5.2409,5.2409,5.2409,5.2409,5.2409,5.2409,5.2409,5.2409,5.2409,5.2409,5.2409,5.2551,5.2694,5.2764,5.2874,5.2808,5.2336,5.2031,5.1725,5.1286,5.098,5.0608,5.0168,4.9864,4.9492,4.9086,4.8376,4.7906,4.7906,4.6616,4.5703,4.5703,4.4079,4.2861,4.253,4.2117,4.1542,4.0798,4.0764,4.0561,4.0113,4.0113,4.0113,4.0113,4.0113,4.0113,4.0113,4.0113,4.0113,4.0113,4.0113,4.0113,6.1194,6.3528,6.4725,6.2989,5.7693,5.1887,4.7997,0.0,3.7853,3.5908,3.5519,3.5519,3.5519,3.5519,3.5729,3.6387,3.6806,3.8452,4.2521,4.4706,4.7997,0.0,0.0,0.0,0.0,0.0,0.0,0.0,0.0,0.0,0.0,6.0416,5.9877,6.0086,5.9249,5.859,5.8112,5.7244,5.6585,5.6218,5.5508,5.5179,5.5149,5.3803,5.3174,5.3114,0.0,0.0,0.0,5.1229,5.1727,5.2664,5.3412,5.3921,5.4363,5.4787,5.4258,5.3367,5.3169,5.2804,5.2409,5.2409,5.2409,5.2409,5.2409,5.2409,5.2409,5.2409,5.2409,5.2409,5.2409,5.2657,5.2903,5.2903,5.3212,5.3348,5.2773,5.2672,5.2503,5.1995,5.1691,5.1352,5.0845,5.0574,5.0168,4.9424,4.8883,4.8477,4.8274,4.7158,4.6346,4.6346,4.4993,4.3882,4.3443,4.2929,4.232,4.1576,4.1339,4.0967,4.0451,4.0214,4.0113,4.0113,4.0113,4.0113,4.0113,4.0113,4.0113,4.0113,4.0113,4.0113,5.6623,6.0086,6.248,5.9817,5.5658,5.084,4.5544,4.1265,3.7853,3.5908,3.5519,3.5519,3.5519,3.5519,3.5729,3.6387,3.7554,3.929,4.2021,4.5214,4.8027,0.0,0.0,0.0,0.0,0.0,0.0,0.0,0.0,0.0,0.0,5.9488,5.9398,6.0057,5.883,5.8141,5.8112,5.6825,5.6248,5.6218,5.5508,5.5179,5.5149,5.3803,5.3174,0.0,0.0,0.0,0.0,5.1229,5.1727,5.2634,5.2836,5.3506,5.4233,5.3667,5.3434,5.3334,5.2638,5.2409,5.2409,5.2409,5.2409,5.2409,5.2409,5.2409,5.2409,5.2409,5.2409,5.2409,5.2409,5.2657,5.2903,5.2903,5.3212,5.3518,5.3484,5.3484,5.3484,5.3484,5.2841,5.23,5.2266,5.1691,5.0947,5.0202,5.0067,4.9796,4.9086,4.8342,4.7872,4.7872,4.6583,4.506,4.3511,4.3375,4.3064,4.232,4.161,4.1204,4.1204,4.0493,4.0113,4.0113,4.0113,4.0113,4.0113,4.0113,4.0113,4.0113,4.0113,4.0113,5.1109,5.3324,5.4551,5.2815,4.9583,4.6022,4.3,3.9918,3.7285,3.5818,3.5519,3.5519,3.5519,3.5519,3.5998,3.7554,3.8512,3.9709,0.0,0.0,0.0,0.0,0.0,0.0,0.0,0.0,0.0,0.0,0.0,0.0,0.0,5.9039,5.853,5.874,5.8351,5.7693,5.6795,5.6376,5.5957,5.5508,5.5299,5.497,5.4491,5.3593,0.0,0.0,0.0,0.0,0.0,5.1229,5.1386,5.1773,5.3153,5.3218,5.2739,5.377,5.3533,5.2672,5.244,5.2409,5.2409,5.2409,5.2409,5.2409,5.2409,5.2409,5.2409,5.2409,5.2409,5.2409,5.2409,5.2657,5.2903,5.2903,5.3212,5.3518,5.3518,5.3518,5.3518,5.3518,5.3281,5.2942,5.2401,5.2097,5.1725,5.098,5.0405,4.9999,4.9763,4.868,4.7906,4.7906,4.6583,4.55,4.5026,4.4519,4.3876,4.3098,4.2801,4.2252,4.1238,4.0967,4.0595,4.0113,4.0113,4.0113,4.0113,4.0113,4.0113,4.0113,4.0113,4.0113,4.6112,4.8536,4.9793,4.8476,4.6022,0.0,4.1145,3.8781,3.6776,3.5729,3.5519,3.5519,3.5519,3.5519,3.5908,3.7105,3.8063,3.911,0.0,0.0,0.0,0.0,0.0,0.0,0.0,0.0,0.0,0.0,0.0,0.0,0.0,5.871,5.7992,5.7752,5.7513,5.7004,5.6248,5.5927,5.5598,5.5179,5.5179,5.497,5.4551,5.3623,0.0,0.0,0.0,0.0,0.0,5.1229,5.1386,5.1835,5.309,5.3069,5.246,5.3639,5.3367,5.2409,5.2409,5.2409,5.2409,5.2409,5.2409,5.2409,5.2409,5.2409,5.2409,5.2409,5.2409,5.2409,5.248,5.2692,5.2903,5.3007,5.328,5.3518,5.3518,5.3518,5.3518,5.3518,5.3518,5.3348,5.2841,5.2739,5.2503,5.1725,5.1217,5.071,5.0168,4.9289,4.8612,4.8342,4.7259,4.6549,4.6549,4.5331,4.4412,4.3876,4.3572,4.297,4.2083,4.1508,4.0967,4.0493,4.0248,4.0113,4.0113,4.0113,4.0113,4.0113,4.0113,4.0113,0.0,4.5065,4.713,4.5873,4.4157,4.2154,3.9709,3.7764,0.0,3.5639,3.5519,3.5519,3.5579,3.5549,3.5579,3.5759,3.6806,0.0,0.0,4.321,0.0,0.0,0.0,0.0,0.0,0.0,0.0,0.0,0.0,0.0,0.0,5.8441,5.7752,5.7124,5.6406,5.6098,5.6158,5.5508,5.5179,5.5179,5.5179,5.5149,5.4999,5.3743,0.0,0.0,0.0,0.0,0.0,5.1229,5.1727,5.2634,5.2867,5.3082,5.3214,5.3399,5.3036,5.2409,5.2409,5.2409,5.2409,5.2409,5.2409,5.2409,5.2409,5.2409,5.2409,5.2409,5.2409,5.2445,5.2553,5.2729,5.2938,5.3144,5.3348,5.3518,5.3518,5.3518,5.3518,5.3518,5.3518,5.3518,5.3518,5.3518,5.3247,5.2503,5.2334,5.1792,5.0439,5.0135,4.983,4.9154,4.8376,4.7906,4.7906,4.5974,4.475,4.4682,4.3978,4.3511,4.3375,4.2083,4.1305,4.1204,4.0485,4.0113,4.0113,4.0113,4.0113,4.0113,4.0113,4.0113,3.7045,0.0,3.905,3.8242,3.8063,3.7793,0.0,3.6447,3.6297,3.5639,3.5519,3.5669,3.6178,3.5848,3.6148,3.8182,0.0,0.0,0.0,0.0,0.0,0.0,0.0,0.0,0.0,0.0,0.0,0.0,0.0,0.0,0.0,5.7992,5.7274,5.7094,5.5508,5.491,5.5418,5.5269,5.5179,5.5179,5.5179,5.464,5.3653,5.3324,0.0,0.0,0.0,0.0,5.1229,5.1229,5.1727,5.2664,5.3444,5.3496,5.3279,5.3959,5.3467,5.2409,5.2409,5.2409,5.2409,5.2409,5.2409,5.2409,5.2409,5.2409,5.2409,5.2409,5.2409,5.2445,5.2553,5.2729,5.2938,5.3144,5.3348,5.3518,5.3518,5.3518,5.3518,5.3518,5.3518,5.3518,5.3518,5.3518,5.345,5.3247,5.2706,5.2164,5.1826,5.0777,5.0033,4.9864,4.868,4.7906,4.7906,4.6921,4.6041,4.5466,4.5263,4.4626,4.3443,4.3071,4.2354,4.1238,4.0485,4.0113,4.0113,4.0113,4.0113,4.0113,4.0113,4.0113,3.5519,3.5998,3.6387,3.6058,3.6237,3.6387,3.6028,3.5998,3.5938,3.5579,3.5519,3.5699,3.6357,3.5938,3.6267,3.8571,3.926,0.0,0.0,0.0,0.0,0.0,0.0,0.0,0.0,0.0,0.0,0.0,0.0,0.0,0.0,5.7393,5.6675,5.6675,5.5359,5.482,5.5179,5.488,5.491,5.5179,5.488,5.4371,5.3623,5.3025,0.0,0.0,0.0,0.0,5.1229,5.1229,5.2002,5.3284,5.3805,5.3944,5.3886,5.4703,5.3897,5.2407,5.2738,5.2638,5.2409,5.2409,5.2409,5.2409,5.2409,5.2409,5.2409,5.2409,5.2409,5.2445,5.2659,5.2799,5.2972,5.328,5.3416,5.3518,5.3518,5.3518,5.3518,5.3518,5.3518,5.3518,5.3518,5.3518,5.3518,5.3518,5.3145,5.2706,5.2367,5.1319,5.0473,5.0135,4.9086,4.8379,4.8379,4.8037,4.7192,4.5805,4.5703,4.5162,4.4012,4.3606,4.2699,4.1238,4.0798,4.0426,4.0113,4.0113,4.0113,4.0113,4.0113,4.0113,3.5639,3.6207,3.6716,3.6417,3.6417,3.6447,3.6357,3.5908,3.5519,3.5519,3.5519,3.5699,3.6357,3.6178,3.6507,0.0,0.0,0.0,0.0,0.0,0.0,0.0,0.0,0.0,0.0,0.0,0.0,0.0,0.0,0.0,0.0,5.6795,0.0,5.6017,5.5179,5.479,5.488,5.4431,5.4431,5.488,5.4311,5.4012,5.3862,5.2725,5.2157,0.0,0.0,0.0,5.1229,5.1339,5.2426,5.4019,5.4052,5.4253,5.4556,5.5052,5.4063,5.2473,5.3069,5.287,5.2409,5.2409,5.2409,5.2409,5.2409,5.2409,5.2409,5.2409,5.2409,5.248,5.2799,5.2903,5.2972,5.3382,5.3518,5.3518,5.3518,5.3518,5.3518,5.3518,5.3518,5.3518,5.3518,5.3518,5.3518,5.3518,5.3518,5.3247,5.257,5.1826,5.1116,5.0338,4.9593,4.912,4.9018,4.9018,4.8139,4.6177,4.6041,4.5635,4.4818,4.391,4.2801,4.1576,4.1305,4.0899,4.0282,4.0146,4.0113,4.0113,4.0113,4.0113,3.6178,3.7195,3.7704,3.6058,3.6058,3.6327,3.5789,3.5579,3.5519,3.5519,3.5519,3.5699,3.6357,3.7285,3.8242,0.0,0.0,0.0,0.0,0.0,0.0,0.0,0.0,0.0,0.0,0.0,0.0,0.0,0.0,0.0,0.0,0.0,0.0,5.5329,5.3593,5.2935,5.3473,5.3982,5.3952,5.3503,5.3384,5.3054,5.2516,5.2306,5.1887,0.0,0.0,5.1229,5.1276,5.2048,5.302,5.3999,5.4177,5.4346,5.4423,5.393,5.3169,5.2407,5.2506,5.2473,5.2409,5.2409,5.2409,5.2409,5.2409,5.2409,5.2409,5.2409,5.2409,5.248,5.2799,5.2903,5.2972,5.3382,5.3518,5.3518,5.3518,5.3518,5.3518,5.3518,5.3518,5.3518,5.3518,5.3518,5.3518,5.3518,5.3518,5.345,5.3348,5.2638,5.186,5.1116,5.0371,4.9661,4.9052,4.9018,4.8612,4.7601,4.7534,4.6955,4.5602,4.4181,4.3274,4.3071,4.1847,4.1136,4.1035,4.0417,4.0113,4.0113,4.0113,4.0113,3.5878,3.6656,3.7225,3.6686,3.7315,3.7704,3.6357,3.6028,3.6028,3.6028,3.6028,3.6327,3.7315,3.8302,3.9858,4.2662,0.0,0.0,0.0,0.0,0.0,0.0,0.0,0.0,0.0,0.0,0.0,0.0,0.0,0.0,0.0,0.0,0.0,0.0,5.3414,5.2695,5.2665,5.2965,5.3144,5.3174,5.2815,5.2486,5.2187,5.1828,5.1498,5.1229,0.0,5.1229,5.1216,5.1758,5.2548,5.3429,5.3624,5.377,5.3831,5.3102,5.2904,5.287,5.2506,5.2409,5.2409,5.2409,5.2409,5.2409,5.2409,5.2409,5.2409,5.2409,5.2445,5.2587,5.2834,5.2972,5.311,5.3416,5.3518,5.3518,5.3518,5.3518,5.3518,5.3518,5.3518,5.3518,5.3518,5.3518,5.3518,5.3518,5.3518,5.3518,5.3518,5.2807,5.2164,5.1826,5.0777,4.9965,4.9627,4.9221,4.8714,4.7939,4.7128,4.6413,4.5737,4.4654,4.3842,4.3409,4.2733,4.2185,4.1779,4.1441,4.1068,4.0696,4.0696,4.0485,3.5699,3.6207,3.6776,3.7105,3.7973,3.8482,3.7614,3.7285,3.7255,3.7554,3.7644,3.7883,3.8721,3.9918,0.0,4.6322,0.0,0.0,0.0,0.0,0.0,0.0,0.0,0.0,0.0,0.0,0.0,0.0,0.0,0.0,0.0,0.0,0.0,0.0,5.3084,5.2486,5.1977,5.1828,5.2067,5.2725,5.2217,5.1977,5.1947,5.1673,5.1526,5.1526,5.1773,5.1774,5.1638,5.218,5.2627,5.3022,5.3355,5.3372,5.3102,5.2572,5.2705,5.3102,5.2572,5.2409,5.2409,5.2409,5.2409,5.2409,5.2409,5.2409,5.2409,5.2409,5.2551,5.2694,5.2868,5.3041,5.3247,5.345,5.3518,5.3518,5.3518,5.3518,5.3518,5.3518,5.3518,5.3518,5.3518,5.3518,5.3518,5.3518,5.3518,5.3518,5.3518,5.2976,5.2503,5.2334,5.1285,5.0473,5.0135,4.9424,4.8781,4.8176,4.6786,4.5974,4.5974,4.506,4.4316,4.3707,4.3477,4.3132,4.2557,4.2388,4.1914,4.1204,4.1204,4.0798,3.6237,3.6866,3.7225,3.6686,3.6626,3.7315,3.9589,3.9649,3.9559,4.0786,4.1063,4.0876,4.0337,4.2791,4.5783,4.864,0.0,0.0,0.0,0.0,0.0,0.0,0.0,0.0,0.0,0.0,0.0,0.0,0.0,0.0,0.0,0.0,0.0,0.0,0.0,5.1349,5.1289,5.0644,5.0674,5.1349,5.1319,5.1289,5.1289,5.2094,5.2516,5.2561,5.3415,5.3384,5.2891,5.4384,5.4309,5.3265,5.4076,5.3592,5.244,5.2442,5.2442,5.244,5.2442,5.2409,5.2409,5.2409,5.2409,5.2409,5.2409,5.2409,5.2409,5.2409,5.2657,5.2868,5.2903,5.3041,5.3247,5.345,5.3518,5.3518,5.3518,5.3518,5.3518,5.3518,5.3518,5.3518,5.3518,5.3518,5.3518,5.3518,5.3518,5.3518,5.3518,5.345,5.3145,5.2367,5.2198,5.1589,5.0202,4.9424,4.8984,4.8917,4.753,4.6718,4.6718,4.5359,4.4581,4.4513,4.3775,4.3375,4.3308,4.2625,4.1914,4.1204,4.1204,4.0798,3.5818,3.6626,3.7464,3.7614,3.8003,3.8571,3.9559,4.0876,4.2043,4.2521,4.3269,4.3748,4.3479,0.0,4.7878,0.0,0.0,0.0,0.0,0.0,0.0,0.0,0.0,0.0,0.0,0.0,0.0,0.0,0.0,0.0,0.0,0.0,0.0,0.0,0.0,5.0421,5.0002,4.9763,4.9763,5.0002,5.0002,5.0421,5.1199,5.1727,5.2206,5.2651,5.3589,5.3566,5.2976,5.368,5.3427,5.2566,5.3004,5.287,5.2409,5.2409,5.2409,5.2409,5.2409,5.2409,5.2409,5.2409,5.2409,5.2409,5.2409,5.2409,5.2409,5.2516,5.2694,5.2903,5.2903,5.3144,5.3416,5.345,5.3518,5.3518,5.3518,5.3518,5.3518,5.3518,5.3518,5.3518,5.3518,5.3518,5.3518,5.3518,5.3518,5.3518,5.3518,5.3518,5.3382,5.3078,5.2198,5.1217,5.0168,4.9424,4.9018,4.9018,4.8071,4.7496,4.7496,4.6075,4.5263,4.5263,4.4519,4.4147,4.4147,4.387,4.3335,4.2564,4.2564,4.2185,3.5519,3.6148,3.7015,3.7853,3.8901,4.0068,4.1287,4.318,4.4855,4.5693,4.6052,4.6172,4.5963,4.7219,0.0,0.0,0.0,0.0,0.0,0.0,0.0,0.0,0.0,0.0,0.0,0.0,0.0,0.0,0.0,0.0,0.0,0.0,0.0,0.0,0.0,4.9733,4.9299,4.912,4.912,4.9299,4.9147,4.9629,5.0647,5.1366,5.1933,5.2443,5.3649,5.376,5.3086,5.3454,5.3166,5.2486,5.2422,5.2409,5.2409,5.2409,5.2409,5.2409,5.2409,5.2409,5.2409,5.2409,5.2409,5.2409,5.2409,5.2409,5.2445,5.2553,5.2729,5.2903,5.2972,5.3246,5.3518,5.3518,5.3518,5.3518,5.3518,5.3518,5.3518,5.3518,5.3518,5.3518,5.3518,5.3518,5.3518,5.3518,5.3518,5.3518,5.3518,5.3518,5.3518,5.3518,5.2131,5.1014,5.0473,4.956,4.9018,4.9018,4.8545,4.8142,4.7906,4.6718,4.594,4.5703,4.5196,4.4852,4.4615,4.4615,4.4181,4.3375,4.3375,4.2997,3.5519,3.5519,3.5818,3.7105,3.8931,4.1474,4.5424,4.686,4.8057,5.069,4.9673,4.8117,4.7459,4.7878,0.0,0.0,0.0,0.0,0.0,0.0,0.0,0.0,0.0,0.0,0.0,0.0,0.0,0.0,0.0,0.0,0.0,0.0,0.0,0.0,0.0,0.0,4.9299,4.8596,4.864,4.9269,4.8797,4.8846,4.9344,5.1098,5.1891,5.2014,5.3743,5.4096,5.3467,5.4158,5.4063,5.3334,5.2638,5.2409,5.2409,5.2409,5.2409,5.2409,5.2409,5.2409,5.2409,5.2409,5.2409,5.2409,5.2409,5.2409,5.2445,5.2553,5.2729,5.2938,5.3144,5.3348,5.3518,5.3518,5.3518,5.3518,5.3518,5.3518,5.3518,5.3518,5.3518,5.3518,5.3518,5.3518,5.3518,5.3518,5.3518,5.3518,5.3518,5.3518,5.3518,5.3518,5.2131,5.1217,5.1185,4.9864,4.9018,4.9018,4.9018,4.868,4.7939,4.7192,4.6481,4.5737,4.5703,4.5365,4.4615,4.4615,4.4215,4.3409,4.3409,4.3031,3.5639,3.6148,3.7165,3.8482,4.0666,4.3419,4.692,4.7848,4.8865,5.1947,5.1768,5.084,5.0182,5.0601,0.0,0.0,0.0,0.0,0.0,0.0,0.0,0.0,0.0,0.0,0.0,0.0,0.0,0.0,0.0,0.0,0.0,0.0,0.0,0.0,0.0,0.0,4.7908,4.7698,4.8015,4.8809,4.8675,4.9155,5.0184,5.1507,5.237,5.2885,5.4005,5.4096,5.34,5.3135,5.287,5.2672,5.2509,5.2409,5.2409,5.2409,5.2409,5.2409,5.2409,5.2409,5.2409,5.2409,5.2409,5.2409,5.2409,5.248,5.2553,5.2764,5.2938,5.3144,5.3348,5.3484,5.3518,5.3518,5.3518,5.3518,5.3518,5.3518,5.3518,5.3518,5.3518,5.3518,5.3518,5.3518,5.3518,5.3518,5.3518,5.3518,5.3518,5.3518,5.3518,5.3518,5.257,5.1758,5.1251,5.0338,4.956,4.9052,4.9018,4.8917,4.868,4.797,4.7496,4.7229,4.6752,4.6346,4.6172,4.6172,4.5771,4.5026,4.5026,4.4621,3.5609,3.6447,3.7853,3.9738,4.2192,4.5065,4.8626,5.0481,5.1977,5.3952,5.3653,5.2785,5.2127,5.1678,0.0,0.0,0.0,0.0,0.0,0.0,0.0,0.0,0.0,0.0,0.0,0.0,0.0,0.0,0.0,0.0,0.0,0.0,0.0,0.0,0.0,0.0,4.7309,4.7309,4.7752,4.8615,4.8913,4.9675,5.0784,5.1449,5.1977,5.2398,5.3264,5.34,5.297,5.2572,5.2409,5.2409,5.2409,5.2409,5.2409,5.2409,5.2409,5.2409,5.2409,5.2409,5.2409,5.2409,5.2409,5.2409,5.2409,5.2445,5.2553,5.2834,5.2972,5.3144,5.3416,5.3518,5.3518,5.3518,5.3518,5.3518,5.3518,5.3518,5.3518,5.3518,5.3518,5.3518,5.3518,5.3518,5.3518,5.3518,5.3518,5.3518,5.3518,5.3518,5.3518,5.3518,5.2773,5.1995,5.1285,5.0507,4.9796,4.9052,4.9018,4.9018,4.9018,4.8578,4.8206,4.7906,4.7462,4.709,4.6786,4.6786,4.6583,4.6143,4.5838,4.5466,3.5644,3.657,3.8123,4.0816,4.3629,4.6711,5.0451,5.3743,5.5987,5.5948,5.5029,5.4072,5.3324,0.0,0.0,0.0,0.0,0.0,0.0,0.0,0.0,0.0,0.0,0.0,0.0,0.0,0.0,0.0,0.0,0.0,0.0,0.0,0.0,0.0,0.0,0.0,4.7439,4.7439,4.7892,0.0,4.9599,5.0384,5.1247,5.1247,5.1247,5.1285,5.2053,5.2409,5.2409,5.2409,5.2409,5.2409,5.2409,5.2409,5.2409,5.2409,5.2409,5.2409,5.2409,5.2409,5.2409,5.2409,5.2409,5.2409,5.2409,5.2445,5.2516,5.2799,5.2938,5.3041,5.3382,5.3518,5.3518,5.3518,5.3518,5.3518,5.3518,5.3518,5.3518,5.3518,5.3518,5.3518,5.3518,5.3518,5.3518,5.3518,5.3518,5.3518,5.3518,5.3518,5.3518,5.3518,5.2841,5.2131,5.1386,5.0608,4.9898,4.9154,4.9052,4.9018,4.9018,4.9018,4.868,4.8007,4.7973,4.7665,4.6989,4.6989,4.6955,4.6887,4.621,4.5838,3.6862,3.757,3.8811,4.1542,4.5693,4.9628,5.1558,5.3354,5.4491,5.3922,5.4431,5.461,5.3414,0.0,0.0,0.0,0.0,0.0,0.0,0.0,0.0,0.0,0.0,0.0,0.0,0.0,0.0,0.0,0.0,0.0,0.0,0.0,0.0,0.0,0.0,4.7624,4.8282,4.8324,4.9075,0.0,5.0761,5.1285,5.2089,5.2089,5.2089,5.2125,5.2338,5.2409,5.2409,5.2409,5.2409,5.2409,5.2409,5.2409,5.2409,5.2409,5.2409,5.2409,5.2409,5.2409,5.2409,5.2518,5.248,5.2409,5.2551,5.2659,5.2799,5.2868,5.3144,5.3382,5.3484,5.3518,5.3518,5.3518,5.3518,5.3518,5.3518,5.3518,5.3518,5.3518,5.3518,5.3518,5.3518,5.3518,5.3518,5.3518,5.3518,5.3518,5.3518,5.3518,5.3518,5.3518,5.3348,5.2942,5.2131,5.1386,5.0642,4.9898,4.9323,4.9018,4.9018,4.9018,4.8951,4.8781,4.8781,4.868,4.8545,4.8545,4.824,4.7665,4.75,4.6819,3.6842,3.7883,3.9828,4.3748,4.7519,5.0524,5.1887,5.2755,5.3144,5.2785,5.3773,5.4401,0.0,0.0,0.0,0.0,0.0,0.0,0.0,0.0,0.0,0.0,0.0,0.0,0.0,0.0,0.0,0.0,0.0,0.0,0.0,0.0,0.0,0.0,4.7709,4.8145,4.8615,4.8994,4.9837,5.1102,5.1102,5.1545,5.2409,5.2409,5.2409,5.2409,5.2409,5.2409,5.2409,5.2409,5.2409,5.2409,5.2409,5.2409,5.2409,5.2409,5.2409,5.2409,5.2409,5.2409,5.2409,5.2587,5.2516,5.2409,5.2553,5.2659,5.2764,5.2868,5.311,5.3382,5.345,5.3518,5.3518,5.3518,5.3518,5.3518,5.3518,5.3518,5.3518,5.3518,5.3518,5.3518,5.3518,5.3518,5.3518,5.3518,5.3518,5.3518,5.3518,5.3518,5.3518,5.3518,5.3518,5.3179,5.2367,5.1961,5.1251,5.0168,4.9729,4.9357,4.9018,4.9018,4.9018,4.9018,4.9018,4.9018,4.9018,4.9018,4.8815,4.8443,4.8041,4.7466,3.6847,3.8394,4.1055,4.5795,4.8356,5.0016,5.1379,5.1708,5.1708,5.1708,5.2755,0.0,0.0,0.0,0.0,0.0,0.0,0.0,0.0,0.0,0.0,0.0,0.0,0.0,0.0,0.0,0.0,0.0,0.0,0.0,0.0,0.0,4.701,4.713,4.784,4.8348,4.8635,4.9324,5.0077,5.0932,5.0932,5.1463,5.2409,5.2144,5.2142,5.2409,5.2409,5.2409,5.2409,5.2409,5.2409,5.2409,5.2409,5.2409,5.2409,5.2409,5.2409,5.2409,5.2409,5.2409,5.2409,5.2589,5.2551,5.2445,5.2624,5.2659,5.2694,5.2903,5.3076,5.3314,5.3484,5.3518,5.3518,5.3518,5.3518,5.3518,5.3518,5.3518,5.3518,5.3518,5.3518,5.3518,5.3518,5.3518,5.3518,5.3518,5.3518,5.3518,5.3518,5.3518,5.3518,5.3518,5.3518,5.3247,5.257,5.2266,5.1589,5.0371,5.0033,4.9627,4.9018,4.9018,4.9018,4.9018,4.9018,4.9018,4.9018,4.9018,4.9018,4.8984,4.8376,4.8007,3.8619,4.0377,4.2528,4.4959,4.6651,4.8027,4.9344,4.9689,4.9689,0.0,0.0,0.0,0.0,0.0,0.0,0.0,0.0,0.0,0.0,0.0,0.0,0.0,0.0,0.0,0.0,0.0,0.0,0.0,0.0,0.0,0.0,4.5574,4.5843,4.6441,4.6641,4.7384,4.8655,4.8888,4.9437,5.0312,5.0312,5.1043,5.2376,5.1082,5.1181,5.2409,5.2409,5.2409,5.2409,5.2409,5.2409,5.2409,5.2409,5.2409,5.2409,5.2409,5.2409,5.2409,5.2409,5.2409,5.2445,5.2764,5.2624,5.248,5.2972,5.3007,5.2903,5.311,5.3314,5.3484,5.3518,5.3518,5.3518,5.3518,5.3518,5.3518,5.3518,5.3518,5.3518,5.3518,5.3518,5.3518,5.3518,5.3518,5.3518,5.3518,5.3518,5.3518,5.3518,5.3518,5.3518,5.3518,5.3518,5.345,5.3348,5.2131,5.1285,5.1082,4.9864,4.912,4.9018,4.9018,4.9018,4.9018,4.9018,4.9018,4.9018,4.9018,4.9018,4.9018,4.8917,4.8511,3.862,3.9705,4.1148,4.3166,4.4377,4.5633,4.7698,4.8177,4.8386,0.0,0.0,0.0,0.0,0.0,0.0,0.0,0.0,0.0,0.0,0.0,0.0,0.0,0.0,0.0,0.0,0.0,0.0,0.0,0.0,0.0,4.5304,4.5304,4.5424,4.5753,4.6665,4.7495,4.8123,4.9127,4.9809,5.022,5.022,5.0551,5.1148,5.0518,5.0783,5.1779,5.1779,5.1779,5.1846,5.2243,5.2409,5.2409,5.2409,5.2409,5.2409,5.2409,5.2409,5.2409,5.2409,5.2409,5.2445,5.2764,5.2659,5.248,5.2903,5.2972,5.2903,5.3007,5.328,5.3518,5.3518,5.3518,5.3518,5.3518,5.3518,5.3518,5.3518,5.3518,5.3518,5.3518,5.3518,5.3518,5.3518,5.3518,5.3518,5.3518,5.3518,5.3518,5.3518,5.3518,5.3518,5.3518,5.3518,5.3315,5.2875,5.2638,5.1961,5.0676,5.0371,4.9864,4.9052,4.9018,4.9018,4.9018,4.9018,4.9018,4.9018,4.9018,4.9018,4.9018,4.9018,4.8849,3.8402,3.8865,3.9742,4.1267,4.2106,4.32,4.5723,0.0,4.6681,0.0,0.0,0.0,0.0,0.0,0.0,0.0,0.0,0.0,0.0,0.0,0.0,0.0,0.0,0.0,0.0,0.0,0.0,0.0,0.0,0.0,4.4796,4.4796,4.4937,4.5333,4.6547,4.7352,4.7728,4.9003,4.9756,4.9922,4.9756,4.9856,5.0187,4.9823,5.0055,5.075,5.0916,5.1015,5.1048,5.1846,5.2144,5.2144,5.2343,5.2409,5.2409,5.2409,5.2409,5.2409,5.2409,5.2409,5.2445,5.2764,5.2659,5.248,5.2834,5.2938,5.2903,5.2972,5.3246,5.3518,5.3518,5.3518,5.3518,5.3518,5.3518,5.3518,5.3518,5.3518,5.3518,5.3518,5.3518,5.3518,5.3518,5.3518,5.3518,5.3518,5.3518,5.3518,5.3518,5.3518,5.3518,5.3518,5.3518,5.3281,5.2672,5.2976,5.2469,5.0744,5.0811,5.0439,4.9323,4.9086,4.9018,4.9018,4.9018,4.9018,4.9018,4.9018,4.9018,4.9018,4.9018,4.9018,3.846,3.879,3.9344,3.9496,4.0061,4.1085,0.0,0.0,0.0,0.0,0.0,0.0,0.0,0.0,0.0,0.0,0.0,0.0,0.0,0.0,0.0,0.0,0.0,0.0,0.0,0.0,0.0,0.0,0.0,0.0,4.3439,4.3379,4.4046,4.544,4.5696,4.6434,4.7787,4.7998,4.8465,4.916,4.8465,4.8862,5.0154,4.8763,4.8531,4.926,4.9955,5.0286,5.032,5.1048,5.1382,5.1448,5.2144,5.2409,5.2409,5.2409,5.2409,5.2409,5.2409,5.2409,5.2445,5.2764,5.2659,5.248,5.3007,5.3041,5.2938,5.311,5.3348,5.3518,5.3518,5.3518,5.3518,5.3518,5.3518,5.3518,5.3518,5.3518,5.3518,5.3518,5.3518,5.3518,5.3518,5.3518,5.3518,5.3518,5.3518,5.3518,5.3518,5.3518,5.3518,5.3518,5.3518,5.3484,5.345,5.2773,5.23,5.2198,5.0913,5.0101,5.0033,4.9357,4.9018,4.9018,4.9018,4.9018,4.9018,4.9018,4.9018,4.9018,4.9018,4.9018,3.8479,3.8495,3.8667,3.8736,3.895,3.952,4.107,4.1773,0.0,0.0,0.0,0.0,0.0,0.0,0.0,0.0,0.0,0.0,0.0,0.0,0.0,0.0,0.0,0.0,0.0,0.0,0.0,0.0,0.0,0.0,4.329,4.329,4.3775,4.4841,4.542,4.6433,4.7899,4.8002,4.8133,4.8398,4.8133,4.8299,4.8763,4.8233,4.8133,4.8398,4.8663,4.9061,4.9591,5.0783,5.1315,5.1382,5.2111,5.2409,5.2409,5.2409,5.2409,5.2409,5.2409,5.2409,5.2445,5.2764,5.2729,5.2589,5.2903,5.3041,5.3076,5.3007,5.3246,5.3518,5.3518,5.3518,5.3518,5.3518,5.3518,5.3518,5.3518,5.3518,5.3518,5.3518,5.3518,5.3518,5.3518,5.3518,5.3518,5.3518,5.3518,5.3518,5.3518,5.3518,5.3518,5.3518,5.3518,5.3281,5.2773,5.2942,5.2435,5.098,5.0845,5.0371,4.9424,4.9154,4.9018,4.9018,4.9018,4.9018,4.9018,4.9018,4.9018,4.9018,4.9018,4.9018,3.8761,3.8479,3.837,3.8684,3.8403,3.8422,3.9793,0.0,0.0,0.0,0.0,0.0,0.0,0.0,0.0,0.0,0.0,0.0,0.0,0.0,0.0,0.0,0.0,0.0,0.0,0.0,0.0,0.0,0.0,0.0,4.303,4.3235,4.3701,4.4502,4.5288,4.6249,4.7272,4.7504,4.7636,4.7636,4.7868,4.8001,4.8001,4.8001,4.8001,4.8001,4.8001,4.8299,4.8829,5.0055,5.0551,5.0651,5.168,5.2045,5.2078,5.231,5.2409,5.2409,5.2409,5.2445,5.2516,5.2799,5.2799,5.2729,5.2938,5.3076,5.3179,5.3041,5.3246,5.3518,5.3518,5.3518,5.3518,5.3518,5.3518,5.3518,5.3518,5.3518,5.3518,5.3518,5.3518,5.3518,5.3518,5.3518,5.3518,5.3518,5.3518,5.3518,5.3518,5.3518,5.3518,5.3518,5.3518,5.3281,5.2739,5.3179,5.2841,5.1319,5.1454,5.1014,4.9796,4.9492,4.9255,4.9018,4.9018,4.9018,4.9018,4.9018,4.9018,4.9018,4.9018,4.9018,0.0,0.0,0.0,3.9181,0.0,0.0,3.9106,0.0,0.0,0.0,0.0,0.0,0.0,0.0,0.0,0.0,0.0,0.0,0.0,0.0,0.0,0.0,0.0,0.0,0.0,0.0,0.0,0.0,0.0,4.3069,4.244,4.3046,4.3742,4.4558,4.537,4.5781,4.5781,4.6543,4.6908,4.6908,4.7636,4.8001,4.8001,4.8001,4.8001,4.8001,4.8001,4.8001,4.8067,4.8796,4.9094,4.926,5.0684,5.1282,5.1415,5.2111,5.2409,5.2409,5.2409,5.2516,5.2624,5.2834,5.2903,5.2938,5.3144,5.3213,5.3213,5.3179,5.3348,5.3518,5.3518,5.3518,5.3518,5.3518,5.3518,5.3518,5.3518,5.3518,5.3518,5.3518,5.3518,5.3518,5.3518,5.3518,5.3518,5.3518,5.3518,5.3518,5.3518,5.3518,5.3518,5.3518,5.3518,5.3518,5.3518,5.3518,5.3484,5.3484,5.2739,5.1961,5.1185,5.0507,4.9796,4.9052,4.9052,4.9052,4.9052,4.9018,4.9018,4.9018,4.9018,4.9018,3.9315,0.0,0.0,0.0,0.0,0.0,0.0,0.0,0.0,0.0,0.0,0.0,0.0,0.0,0.0,0.0,0.0,0.0,0.0,0.0,0.0,0.0,0.0,0.0,0.0,0.0,0.0,0.0,4.3652,4.371,4.2488,4.3106,4.3661,4.3886,4.5146,4.5781,4.5781,4.6543,4.6908,4.6908,4.7636,4.8001,4.8001,4.8001,4.8001,4.8001,4.8001,4.8001,4.8067,4.8796,4.9094,4.9193,5.0154,5.0817,5.1348,5.1547,5.1945,5.2409,5.2409,5.2516,5.2624,5.2834,5.3007,5.311,5.3179,5.3314,5.3382,5.3213,5.3348,5.3518,5.3518,5.3518,5.3518,5.3518,5.3518,5.3518,5.3518,5.3518,5.3518,5.3518,5.3518,5.3518,5.3518,5.3518,5.3518,5.3518,5.3518,5.3518,5.3518,5.3518,5.3518,5.3518,5.3518,5.3518,5.3518,5.3518,5.3247,5.2672,5.2435,5.1725,5.0439,5.071,5.0541,4.9796,5.0338,5.0338,4.9796,4.9255,4.9018,4.9018,4.9018,4.9018,3.9315,3.9315,3.9268,0.0,0.0,0.0,3.7971,3.81,0.0,0.0,0.0,0.0,0.0,0.0,0.0,0.0,0.0,0.0,0.0,0.0,0.0,0.0,0.0,0.0,0.0,0.0,0.0,0.0,4.3173,4.3448,4.2917,4.3071,4.3326,4.3589,4.442,4.4887,4.4887,4.5616,4.6146,4.6444,4.7173,4.7703,4.8001,4.8001,4.8001,4.8001,4.8001,4.8001,4.8034,4.8465,4.8663,4.873,4.9458,5.0187,5.0883,5.1216,5.1779,5.2409,5.2409,5.2551,5.2729,5.2868,5.3076,5.3348,5.3348,5.3416,5.3484,5.3348,5.3416,5.3518,5.3518,5.3518,5.3518,5.3518,5.3518,5.3518,5.3518,5.3518,5.3518,5.3518,5.3518,5.3518,5.3518,5.3518,5.3518,5.3518,5.3518,5.3518,5.3518,5.3518,5.3518,5.3518,5.3518,5.3518,5.3518,5.3518,5.3315,5.2841,5.2807,5.2266,5.1048,5.142,5.1319,5.0574,5.098,5.1014,5.0574,4.983,4.9289,4.9018,4.9018,4.9018,3.9315,3.9315,3.9448,0.0,0.0,0.0,3.8713,3.857,3.8004,0.0,0.0,0.0,0.0,0.0,0.0,0.0,0.0,0.0,0.0,0.0,0.0,0.0,0.0,0.0,0.0,0.0,4.0813,4.2093,4.2325,4.2751,4.359,4.2974,4.2865,4.3479,4.3568,4.3598,4.3598,4.4324,4.5019,4.5682,4.651,4.7239,4.7868,4.7968,4.8001,4.8001,4.8001,4.8001,4.8001,4.8001,4.8001,4.8067,4.873,4.9491,5.0286,5.0916,5.1713,5.2409,5.2409,5.2657,5.2903,5.2938,5.3212,5.3518,5.3518,5.3518,5.3518,5.3518,5.3518,5.3518,5.3518,5.3518,5.3518,5.3518,5.3518,5.3518,5.3518,5.3518,5.3518,5.3518,5.3518,5.3518,5.3518,5.3518,5.3518,5.3518,5.3518,5.3518,5.3518,5.3518,5.3518,5.3518,5.3518,5.3518,5.3518,5.3518,5.3518,5.3518,5.3518,5.3145,5.2334,5.2401,5.2097,5.1352,5.132,5.132,5.132,5.0507,4.9763,4.912,4.9052,4.9018,0.0,0.0,0.0,0.0,0.0,0.0,3.9281,3.96,3.9565,0.0,0.0,0.0,0.0,0.0,0.0,0.0,0.0,0.0,0.0,0.0,0.0,0.0,0.0,0.0,0.0,0.0,3.9957,4.082,4.1863,4.2829,4.3622,4.3005,4.2648,4.2772,4.3325,4.3598,4.3598,4.4324,4.4754,4.492,4.6245,4.6974,4.7139,4.7736,4.8001,4.8001,4.8001,4.8001,4.8001,4.8001,4.8001,4.8001,4.8166,4.9028,5.022,5.0386,5.1247,5.2409,5.2518,5.2694,5.2938,5.3076,5.3314,5.3518,5.3518,5.3518,5.3518,5.3518,5.3518,5.3518,5.3518,5.3518,5.3518,5.3518,5.3518,5.3518,5.3518,5.3518,5.3518,5.3518,5.3518,5.3518,5.3518,5.3518,5.3518,5.3518,5.3518,5.3518,5.3518,5.3518,5.3518,5.3518,5.3518,5.3518,5.3518,5.3518,5.3518,5.3518,5.3518,5.3145,5.2334,5.2909,5.2909,5.2097,5.2097,5.2097,5.2097,5.0744,5.0033,4.9864,4.9289,4.9018,0.0,0.0,0.0,3.9746,0.0,0.0,0.0,3.9594,3.9468,0.0,0.0,0.0,0.0,0.0,0.0,0.0,0.0,0.0,0.0,0.0,0.0,0.0,0.0,0.0,0.0,0.0,3.8824,3.9866,4.1183,4.229,4.305,4.2752,4.272,4.308,4.3416,4.3598,4.3598,4.3992,4.4324,4.4688,4.5814,4.6543,4.6941,4.7669,4.8001,4.8001,4.8001,4.8001,4.8001,4.8001,4.8001,4.8001,4.8001,4.8696,4.9657,4.9657,5.0585,5.1846,5.2021,5.2429,5.2938,5.3144,5.3348,5.3518,5.3518,5.3518,5.3518,5.3518,5.3518,5.3518,5.3518,5.3518,5.3518,5.3518,5.3518,5.3518,5.3518,5.3518,5.3518,5.3518,5.3518,5.3518,5.3518,5.3518,5.3518,5.3518,5.3518,5.3518,5.3518,5.3518,5.3518,5.3518,5.3518,5.3518,5.3518,5.3518,5.3518,5.3518,5.3518,5.3315,5.2909,5.3281,5.3315,5.2909,5.2909,5.2909,5.2909,5.1758,5.1014,5.0642,4.9898,4.9763,0.0,0.0,0.0,0.0,0.0,3.9842,0.0,0.0,0.0,3.803,0.0,0.0,0.0,0.0,0.0,0.0,0.0,0.0,0.0,0.0,0.0,0.0,0.0,0.0,0.0,0.0,3.8165,3.9497,4.0736,4.1645,4.2241,4.2406,4.2771,4.3367,4.3532,4.3598,4.3598,4.3598,4.3926,4.4489,4.5218,4.5947,4.6709,4.7438,4.7868,4.8001,4.8001,4.8001,4.8001,4.8001,4.8001,4.8001,4.8001,4.8465,4.9127,4.926,5.0154,5.1383,5.1657,5.2263,5.2938,5.3179,5.3382,5.3518,5.3518,5.3518,5.3518,5.3518,5.3518,5.3518,5.3518,5.3518,5.3518,5.3518,5.3518,5.3518,5.3518,5.3518,5.3518,5.3518,5.3518,5.3518,5.3518,5.3518,5.3518,5.3518,5.3518,5.3518,5.3518,5.3518,5.3518,5.3518,5.3518,5.3518,5.3518,5.3518,5.3518,5.3518,5.3518,5.3518,5.3518,5.3518,5.3518,5.3518,5.3518,5.3518,5.3518,5.2841,5.2164,5.1386,5.0676,5.0642,0.0,0.0,0.0,0.0,4.1707,0.0,0.0,0.0,4.0023,3.9253,0.0,0.0,0.0,0.0,0.0,0.0,0.0,0.0,0.0,0.0,0.0,0.0,0.0,0.0,0.0,0.0,0.0,4.0203,4.0993,4.1442,4.1513,4.2142,4.2539,4.2605,4.3267,4.3598,4.3598,4.3598,4.3631,4.3731,4.4456,4.5185,4.5947,4.6676,4.7371,4.8001,4.8001,4.8001,4.8001,4.8001,4.8001,4.8001,4.8001,4.8465,4.9193,4.9856,5.0585,5.145,5.243,5.2802,5.2938,5.3348,5.345,5.3518,5.3518,5.3518,5.3518,5.3518,5.3518,5.3518,5.3518,5.3518,5.3518,5.3518,5.3518,5.3518,5.3518,5.3518,5.3518,5.3518,5.3518,5.3518,5.3518,5.3518,5.3518,5.3518,5.3518,5.3518,5.3518,5.3518,5.3518,5.3518,5.3518,5.3518,5.3518,5.3518,5.3518,5.3518,5.3518,5.3518,5.3518,5.3518,5.3518,5.3518,5.3518,5.3518,5.3518,5.3416,5.2942,5.2164,5.142,5.115,0.0,0.0,0.0,0.0,0.0,0.0,4.1011,0.0,3.968,0.0,0.0,0.0,0.0,0.0,0.0,0.0,0.0,0.0,0.0,0.0,0.0,0.0,0.0,0.0,0.0,0.0,0.0,0.0,0.0,4.0348,4.0779,4.111,4.1475,4.1844,4.2572,4.2936,4.2936,4.3367,4.3598,4.3598,4.4357,4.5086,4.5814,4.6543,4.7305,4.8001,4.8001,4.8001,4.8001,4.8001,4.8001,4.8001,4.8001,4.8199,4.8498,4.8829,4.9725,5.0857,5.1429,5.2235,5.311,5.3416,5.3518,5.3518,5.3518,5.3518,5.3518,5.3518,5.3518,5.3518,5.3518,5.3518,5.3518,5.3518,5.3518,5.3518,5.3518,5.3518,5.3518,5.3518,5.3518,5.3518,5.3518,5.3518,5.3518,5.3518,5.3518,5.3518,5.3518,5.3518,5.3518,5.3518,5.3518,5.3518,5.3518,5.3518,5.3518,5.3518,5.3518,5.3518,5.3518,5.3518,5.3518,5.3518,5.3518,5.3518,5.3518,5.3518,5.3348,5.2976,5.2198,5.2097,4.3065,0.0,0.0,0.0,0.0,0.0,0.0,0.0,0.0,0.0,0.0,0.0,0.0,0.0,0.0,0.0,0.0,0.0,0.0,0.0,0.0,0.0,0.0,0.0,0.0,0.0,0.0,0.0,0.0,0.0,4.0078,4.031,4.0613,4.111,4.2009,4.2506,4.2506,4.3234,4.3598,4.3598,4.4158,4.4787,4.5516,4.6245,4.7007,4.7703,4.7901,4.8001,4.8001,4.8001,4.8001,4.8001,4.8001,4.8001,4.8067,4.8465,4.936,5.0459,5.0861,5.1866,5.3011,5.3382,5.3518,5.3518,5.3518,5.3518,5.3518,5.3518,5.3518,5.3518,5.3518,5.3518,5.3518,5.3518,5.3518,5.3518,5.3518,5.3518,5.3518,5.3518,5.3518,5.3518,5.3518,5.3518,5.3518,5.3518,5.3518,5.3518,5.3518,5.3518,5.3518,5.3518,5.3518,5.3518,5.3518,5.3518,5.3518,5.3518,5.3518,5.3518,5.3518,5.3518,5.3518,5.3518,5.3518,5.3518,5.3518,5.3518,5.3518,5.3484,5.2909,5.2942,0.0,0.0,0.0,4.3731,0.0,0.0,0.0,0.0,4.0945,0.0,0.0,0.0,0.0,0.0,3.9083,3.8361,0.0,0.0,0.0,0.0,0.0,0.0,0.0,0.0,0.0,0.0,0.0,0.0,0.0,0.0,3.9315,4.0011,4.0409,4.0442,4.1773,4.2506,4.2506,4.3234,4.3598,4.3598,4.3598,4.4026,4.4754,4.5483,4.6245,4.6974,4.7703,4.8001,4.8001,4.8001,4.8001,4.8001,4.8001,4.8001,4.8166,4.9624,5.0223,5.0559,5.1429,5.2001,5.2469,5.3247,5.3518,5.3518,5.3518,5.3518,5.3518,5.3518,5.3518,5.3518,5.3518,5.3518,5.3518,5.3518,5.3518,5.3518,5.3518,5.3518,5.3518,5.3518,5.3518,5.3518,5.3518,5.3518,5.3518,5.3518,5.3518,5.3518,5.3518,5.3518,5.3518,5.3518,5.3518,5.3518,5.3518,5.3518,5.3518,5.3518,5.3518,5.3518,5.3518,5.3518,5.3518,5.3518,5.3518,5.3518,5.3518,5.3518,5.3518,5.3518,5.3484,5.3484,0.0,0.0,4.3926,4.3664,0.0,0.0,0.0,0.0,0.0,0.0,0.0,0.0,0.0,0.0,3.9216,3.8984,3.9149,3.9216,0.0,0.0,0.0,0.0,0.0,0.0,0.0,0.0,0.0,0.0,0.0,0.0,0.0,3.9547,3.968,3.968,4.1044,4.1744,4.1744,4.2969,4.3598,4.3598,4.3598,4.4257,4.5417,4.5682,4.6477,4.7636,4.7901,4.8001,4.8001,4.8001,4.8001,4.8001,4.8001,4.8001,4.8133,4.9261,5.0059,5.0827,5.2371,5.3011,5.3145,5.3416,5.3518,5.3518,5.3518,5.3518,5.3518,5.3518,5.3518,5.3518,5.3518,5.3518,5.3518,5.3518,5.3518,5.3518,5.3518,5.3518,5.3518,5.3518,5.3518,5.3518,5.3518,5.3518,5.3518,5.3518,5.3518,5.3518,5.3518,5.3518,5.3518,5.3518,5.3518,5.3518,5.3518,5.3518,5.3518,5.3518,5.3518,5.3518,5.3518,5.3518,5.3518,5.3518,5.3518,5.3518,5.3518,5.3518,5.3518,5.3518,5.3518,5.3518,4.3598,4.3598,0.0,4.3598,4.3234,0.0,4.2539,0.0,0.0,0.0,0.0,0.0,0.0,0.0,3.9613,3.9348,3.9315,3.9315,0.0,3.9315,0.0,0.0,0.0,0.0,0.0,0.0,0.0,3.7214,3.7794,0.0,0.0,0.0,3.9315,3.9315,4.068,4.1409,4.1409,4.2837,4.3598,4.3598,4.3598,4.4257,4.5417,4.5682,4.6444,4.7636,4.7901,4.8001,4.8001,4.8001,4.8001,4.8001,4.8001,4.8001,4.8166,4.9294,5.0359,5.143,5.2977,5.3315,5.3112,5.3416,5.3518,5.3518,5.3518,5.3518,5.345,5.3145,5.3281,5.345,5.3145,5.3281,5.3518,5.3518,5.3518,5.3518,5.3518,5.3518,5.3518,5.3518,5.3518,5.3518,5.3518,5.3518,5.3518,5.3518,5.3518,5.3518,5.3518,5.3518,5.3518,5.3518,5.3518,5.3518,5.3518,5.3518,5.3518,5.3518,5.3518,5.3518,5.3518,5.3518,5.3754,5.4296,5.3788,5.3754,5.4296,5.3754,5.3518,5.3518,5.3518,5.3518]}]]